Date StartTime U_cm/s V_cm/s W_cm/s Ustd_cm/s Vstd_cm/s Wstd_cm/s Uvar_(cm/s)^2 Vvar_(cm/s)^2 Wvar_(cm/s)^2 KE_(m/s)^2 TurbulentKE_(m/s)^2 HorizWindSpeed_cm/s FrictionSpeec_cm/s DragCoef SpeedOfSound_m/s SonicTemperature_C Pressure_mb 
03/06/2014  00:00:00     -221.882     -116.390       -7.183       78.166       70.724       44.999     6109.982     5001.862     2024.929        3.798        0.657      250.556       40.801        0.027      339.239       12.433      858.824
03/06/2014  00:01:00     -222.445     -125.288        2.573       91.473       73.321       43.061     8367.401     5376.011     1854.267        4.039        0.780      255.301       43.058        0.028      339.269       12.483      858.916
03/06/2014  00:02:00     -241.374      -45.042       -7.188       72.322       76.988       41.250     5230.465     5927.165     1701.531        3.660        0.643      245.541       39.485        0.026      339.280       12.502      858.964
03/06/2014  00:03:00     -181.648      -30.161        6.947       99.323       60.977       40.961     9865.091     3718.212     1677.806        2.460        0.763      184.135       42.912        0.054      339.333       12.592      858.943
03/06/2014  00:04:00     -218.347     -101.570       -2.379       91.597       90.412       45.704     8389.928     8174.398     2088.884        3.832        0.933      240.815       51.577        0.046      339.329       12.582      858.952
03/06/2014  00:05:00     -256.272      -91.266       -8.146       98.400       69.195       49.655     9682.537     4787.880     2465.620        4.550        0.847      272.039       52.397        0.037      339.365       12.645      859.004
03/06/2014  00:06:00      -97.208      -14.720       14.136       53.687       67.908       36.573     2882.257     4611.482     1337.549        0.935        0.442       98.316       30.173        0.094      339.345       12.614      859.042
03/06/2014  00:07:00     -165.190      -52.648        4.659       97.809       81.113       47.683     9566.510     6579.250     2273.702        2.425        0.921      173.376       47.354        0.075      339.373       12.659      859.126
03/06/2014  00:08:00     -265.692     -143.944       -6.260      140.953      123.648       66.433    19867.776    15288.893     4413.305        6.545        1.978      302.179       66.214        0.048      339.348       12.616      859.296
03/06/2014  00:09:00     -110.239      -19.650        9.520       91.183       73.548       40.462     8314.310     5409.374     1637.195        1.399        0.768      111.977       37.710        0.113      339.343       12.611      859.382
03/06/2014  00:10:00     -103.126      -97.465        2.038      115.951       93.852       54.491    13444.650     8808.263     2969.241        2.268        1.261      141.896       53.312        0.141      339.254       12.459      859.353
03/06/2014  00:11:00      -79.931      -40.970       19.211      107.595      118.616       58.064    11576.671    14069.856     3371.476        1.872        1.451       89.819       64.581        0.517      339.207       12.381      859.336
03/06/2014  00:12:00     -388.198      -76.259      -13.415      142.904      180.191       74.042    20421.667    32468.811     5482.160       10.752        2.919      395.617       97.533        0.061      339.146       12.276      859.351
03/06/2014  00:13:00     -314.135     -115.037       -7.336      187.007      108.280       65.056    34971.586    11724.525     4232.324        8.144        2.546      334.536       66.271        0.039      339.113       12.221      859.433
03/06/2014  00:14:00     -388.953     -123.820      -26.058      156.753      149.889       70.177    24571.567    22466.740     4924.766       10.962        2.598      408.186       74.676        0.033      339.089       12.179      859.433
03/06/2014  00:15:00     -257.671     -144.034       -0.135      145.975      131.923       69.072    21308.812    17403.630     4770.937        6.530        2.174      295.195       63.947        0.047      339.061       12.133      859.599
03/06/2014  00:16:00     -335.559      -89.540        4.897      171.637      141.004       79.452    29459.282    19882.107     6312.680        8.814        2.783      347.300       72.788        0.044      339.029       12.080      859.766
03/06/2014  00:17:00     -297.871     -125.271        0.737      166.768      180.352       75.493    27811.518    32526.774     5699.121        8.522        3.302      323.141       83.503        0.067      339.011       12.050      859.848
03/06/2014  00:18:00     -198.798     -133.908        5.916      191.511      128.509       74.346    36676.454    16514.502     5527.315        5.809        2.936      239.692       88.710        0.137      338.960       11.964      859.886
03/06/2014  00:19:00     -184.145     -174.316       14.205      127.177      132.734       64.301    16174.008    17618.254     4134.646        5.121        1.896      253.566       68.883        0.074      338.944       11.937      859.877
03/06/2014  00:20:00     -213.885     -190.388       -1.939      138.410      127.272       66.469    19157.280    16198.044     4418.171        6.088        1.989      286.347       57.353        0.040      338.942       11.933      859.927
03/06/2014  00:21:00     -201.498     -103.019       20.724      161.816       95.893       66.210    26184.373     9195.504     4383.727        4.570        1.988      226.306       77.913        0.119      338.903       11.869      859.871
03/06/2014  00:22:00     -101.884     -190.444        0.629      121.717      134.646       48.025    14815.027    18129.414     2306.381        4.094        1.763      215.985       28.386        0.017      338.894       11.853      859.855
03/06/2014  00:23:00     -175.213     -207.950       18.243      154.439      183.754       67.725    23851.310    33765.437     4586.638        6.823        3.110      271.924       68.302        0.063      338.921       11.897      859.892
03/06/2014  00:24:00     -329.110     -291.945       -9.250      222.871      127.300       93.495    49671.512    16205.301     8741.235       13.411        3.731      439.938       77.444        0.031      338.885       11.836      860.023
03/06/2014  00:25:00     -142.411     -246.284       12.719      143.686      134.320       65.822    20645.535    18041.762     4332.576        6.205        2.151      284.494       67.654        0.057      338.907       11.874      860.029
03/06/2014  00:26:00     -220.120     -130.537       -1.473      178.292      108.328       67.827    31787.951    11734.942     4600.547        5.680        2.406      255.915       78.707        0.095      338.857       11.790      860.065
03/06/2014  00:27:00     -292.369     -130.791       -2.995      143.502      148.503       65.455    20592.785    22053.176     4284.349        7.475        2.347      320.290       51.998        0.026      338.839       11.759      860.071
03/06/2014  00:28:00     -338.819     -215.069      -13.315      190.120      198.593       93.119    36145.725    39439.364     8671.065       12.273        4.213      401.314      101.952        0.065      338.801       11.695      860.097
03/06/2014  00:29:00     -295.562      -80.795       15.423      205.130      138.455       89.301    42078.127    19169.715     7974.690        8.166        3.461      306.406      100.883        0.108      338.748       11.608      860.108
03/06/2014  00:30:00     -421.711     -195.621      -22.587      216.002      175.734       87.069    46656.846    30882.508     7581.063       15.086        4.256      464.874       83.288        0.032      338.718       11.557      860.123
03/06/2014  00:31:00     -416.051     -228.247        0.605      255.127      224.291      104.538    65089.599    50306.393    10928.254       17.574        6.316      474.547      115.449        0.059      338.682       11.496      860.151
03/06/2014  00:32:00     -559.618     -333.646      -21.878      273.402      254.771      132.493    74748.523    64908.454    17554.300       29.106        7.861      651.531      142.395        0.048      338.626       11.402      860.146
03/06/2014  00:33:00     -582.044     -408.312      -26.539      412.617      250.854      158.057   170252.964    62927.538    24982.064       38.214       12.908      710.981      185.545        0.068      338.542       11.263      860.122
03/06/2014  00:34:00     -549.669     -296.148        8.576      312.876      212.248      119.445    97891.666    45049.034    14267.199       27.353        7.860      624.371      143.402        0.053      338.494       11.180      860.216
03/06/2014  00:35:00     -591.036     -302.539       -8.611      368.673      317.951      145.424   135919.918   101092.803    21148.246       34.950       12.908      663.968      182.789        0.076      338.505       11.199      860.245
03/06/2014  00:36:00     -615.174     -374.269      -10.627      308.073      220.783      129.652    94909.167    48745.338    16809.752       33.952        8.023      720.081      152.920        0.045      338.408       11.037      860.320
03/06/2014  00:37:00     -487.602     -280.959       -8.367      246.617      181.317      103.751    60819.912    32875.913    10764.329       21.059        5.223      562.755      113.135        0.040      338.300       10.856      860.444
03/06/2014  00:38:00     -479.264     -150.946      -15.369      203.820      198.136      107.867    41542.615    39257.815    11635.389       17.256        4.622      502.473       91.614        0.033      338.207       10.699      860.539
03/06/2014  00:39:00     -592.492     -323.047      -13.620      267.030      217.859      117.182    71304.766    47462.359    13731.521       29.402        6.625      674.838      126.896        0.035      338.163       10.624      860.600
03/06/2014  00:40:00     -306.086     -219.845       -9.449      244.349      215.962      115.123    59706.306    46639.739    13253.372       13.083        5.980      376.855      125.113        0.110      338.113       10.541      860.614
03/06/2014  00:41:00     -554.412     -338.935      -21.160      267.839      232.661      112.999    71737.824    54131.035    12768.706       28.064        6.932      649.807      112.311        0.030      338.063       10.458      860.586
03/06/2014  00:42:00     -496.407     -294.102      -32.563      260.264      151.445       86.249    67737.144    22935.552     7438.885       21.603        4.906      576.988       89.696        0.024      338.038       10.416      860.597
03/06/2014  00:43:00     -388.936     -288.012      -12.260      208.907      163.256       99.358    43642.162    26652.665     9871.993       15.726        4.008      483.965      100.981        0.044      337.984       10.324      860.511
03/06/2014  00:44:00     -363.354     -230.836      -11.931      143.421      154.762       82.836    20569.527    23951.241     6861.873       11.841        2.569      430.478       74.672        0.030      337.905       10.190      860.401
03/06/2014  00:45:00      -40.984      -73.908       16.275      116.556      101.709       48.692    13585.305    10344.755     2370.866        1.685        1.315       84.511       39.741        0.221      337.824       10.059      860.141
03/06/2014  00:46:00       -6.427       32.976        7.367       41.542       37.605       33.142     1725.761     1414.101     1098.375        0.271        0.212       33.597       14.350        0.182      337.771        9.969      859.671
03/06/2014  00:47:00      -34.702      -26.062       -5.937       51.894       70.110       37.512     2692.999     4915.449     1407.155        0.547        0.451       43.399       20.457        0.222      337.814       10.042      859.464
03/06/2014  00:48:00       -6.584      -10.788       16.247       55.070       69.604       43.214     3032.760     4844.697     1867.447        0.508        0.487       12.638       48.987       15.025      337.799       10.017      859.365
03/06/2014  00:49:00       55.354      -75.200        5.117       99.005      113.417       80.647     9801.919    12863.367     6503.915        1.895        1.458       93.376       85.113        0.831      337.828       10.066      859.362
03/06/2014  00:50:00       -8.967       18.374       49.243       34.186       46.311       43.674     1168.714     2144.705     1907.391        0.403        0.261       20.445       32.213        2.482      337.819       10.051      859.264
03/06/2014  00:51:00       22.579       35.359       69.775       42.372       51.192       46.128     1795.382     2620.595     2127.756        0.659        0.327       41.953       40.605        0.937      337.884       10.159      859.179
03/06/2014  00:52:00       23.175       34.695       57.306       55.140       52.452       36.600     3040.415     2751.217     1339.595        0.608        0.357       41.724       41.357        0.983      337.898       10.182      859.193
03/06/2014  00:53:00      -36.494       53.889       -8.504       62.291       27.690       28.642     3880.208      766.759      820.355        0.489        0.273       65.084       22.897        0.124      337.872       10.139      859.268
03/06/2014  00:54:00     -149.746       57.689      -22.586       40.936       40.143       30.300     1675.746     1611.497      918.108        1.523        0.210      160.474       21.580        0.018      337.731        9.904      859.311
03/06/2014  00:55:00     -133.073       42.649      -16.602       36.579       37.310       29.746     1338.054     1392.060      884.824        1.171        0.181      139.741       22.372        0.026      337.690        9.834      859.354
03/06/2014  00:56:00      -98.652       -4.040       -6.679       45.874       63.886       39.981     2104.403     4081.460     1598.502        0.879        0.389       98.735       36.256        0.135      337.643        9.757      859.407
03/06/2014  00:57:00     -168.335      -17.973      -13.390       54.507       43.158       25.514     2971.023     1862.649      650.985        1.716        0.274      169.291       23.821        0.020      337.592        9.669      859.473
03/06/2014  00:58:00     -209.402      -10.136      -21.054       30.440       33.244       25.664      926.564     1105.131      658.629        2.354        0.135      209.647       15.104        0.005      337.602        9.686      859.549
03/06/2014  00:59:00     -204.198      -44.566      -27.397       58.451       41.544       22.031     3416.564     1725.909      485.350        2.503        0.281      209.004       21.025        0.010      337.604        9.691      859.628
03/06/2014  01:00:00     -165.435        3.710      -19.888       35.283       44.325       25.336     1244.902     1964.737      641.938        1.581        0.193      165.477       19.494        0.014      337.598        9.680      859.676
03/06/2014  01:01:00     -174.157      -33.434       -6.770       74.853       41.626       34.105     5602.928     1732.749     1163.166        2.000        0.425      177.337       34.792        0.038      337.630        9.733      859.727
03/06/2014  01:02:00     -205.954      -67.224       -5.402       59.768       43.076       25.889     3572.170     1855.558      670.240        2.653        0.305      216.647       12.145        0.003      337.709        9.862      859.753
03/06/2014  01:03:00     -225.172      -23.297       -4.753       51.738       39.054       29.697     2676.862     1525.189      881.892        2.817        0.254      226.374       30.111        0.018      337.761        9.950      859.759
03/06/2014  01:04:00     -211.384      -87.455       -7.461       42.254       48.941       26.708     1785.380     2395.218      713.319        2.864        0.245      228.761       23.382        0.010      337.711        9.867      859.764
03/06/2014  01:05:00     -229.666      -66.091        1.964       66.531       55.707       33.006     4426.428     3103.234     1089.428        3.287        0.431      238.987       31.364        0.017      337.697        9.842      859.761
03/06/2014  01:06:00     -222.419      -42.683       -5.957       89.393       77.609       45.982     7991.114     6023.187     2114.335        3.373        0.806      226.478       44.856        0.039      337.704        9.856      859.713
03/06/2014  01:07:00     -266.068      -31.729      -21.981       89.662       69.595       43.805     8039.186     4843.491     1918.845        4.354        0.740      267.953       47.224        0.031      337.748        9.928      859.654
03/06/2014  01:08:00     -249.151      -86.103       -8.247       81.509       61.084       41.248     6643.679     3731.286     1701.404        4.082        0.604      263.610       41.364        0.025      337.789        9.998      859.612
03/06/2014  01:09:00     -332.268       -4.665      -25.111      163.266       77.950       52.041    26655.628     6076.157     2708.288        7.324        1.772      332.300       69.162        0.043      337.792       10.002      859.518
03/06/2014  01:10:00     -273.725      -49.476      -21.483      110.434       91.908       50.435    12195.608     8447.041     2543.667        5.051        1.159      278.161       56.388        0.041      337.848       10.096      859.413
03/06/2014  01:11:00     -206.959      -34.629       -3.456       68.388       55.222       36.138     4676.945     3049.518     1305.921        2.654        0.452      209.836       33.090        0.025      337.883       10.155      859.429
03/06/2014  01:12:00     -194.935      -82.259      -17.321       71.605       44.307       40.075     5127.287     1963.148     1606.017        2.688        0.435      211.581       26.387        0.016      337.761        9.952      859.549
03/06/2014  01:13:00     -208.833      -42.381       -5.419       88.143       63.098       43.052     7769.113     3981.401     1853.443        2.952        0.680      213.090       45.570        0.046      337.838       10.079      859.598
03/06/2014  01:14:00     -394.086       13.467      -25.253      115.009       68.406       47.844    13227.145     4679.397     2289.090        8.816        1.010      394.316       57.395        0.021      337.866       10.125      859.636
03/06/2014  01:15:00     -198.024      -29.007       -5.368       95.468       66.986       48.895     9114.215     4487.097     2390.681        2.804        0.800      200.137       49.664        0.062      337.812       10.036      859.702
03/06/2014  01:16:00     -183.566      -46.610       -2.642       78.039       91.713       40.910     6090.053     8411.249     1673.594        2.602        0.809      189.391       37.102        0.038      337.878       10.146      859.765
03/06/2014  01:17:00     -142.304       13.753       -6.998       98.218       64.506       41.451     9646.866     4161.077     1718.169        1.800        0.776      142.967       46.856        0.107      337.852       10.104      859.772
03/06/2014  01:18:00     -272.243      -79.288        4.131      163.778      106.887       73.994    26823.180    11424.892     5475.088        6.206        2.186      283.554       80.887        0.081      337.890       10.168      859.752
03/06/2014  01:19:00     -135.941      -42.824        2.647      110.969       64.724       38.475    12314.018     4189.167     1480.331        1.915        0.899      142.527       46.730        0.107      337.894       10.174      859.760
03/06/2014  01:20:00     -200.388     -146.304      -10.326       70.348       99.400       48.298     4948.881     9880.286     2332.738        3.941        0.858      248.113       38.838        0.025      338.049       10.431      859.781
03/06/2014  01:21:00     -144.882     -200.517        0.728       90.732       88.771       43.115     8232.361     7880.244     1858.908        3.958        0.899      247.382       46.741        0.036      338.039       10.416      859.810
03/06/2014  01:22:00      -33.759     -117.496       -0.646       40.038       32.526       34.465     1603.044     1057.952     1187.835        0.940        0.192      122.250       26.581        0.047      338.068       10.468      859.841
03/06/2014  01:23:00       28.660      -20.603       26.238       50.942       57.671       45.964     2595.114     3325.890     2112.720        0.498        0.402       35.296       34.634        0.963      338.084       10.495      859.866
03/06/2014  01:24:00        8.686       55.831      103.617       50.135       87.599       44.884     2513.505     7673.627     2014.562        1.306        0.610       56.503       50.551        0.800      338.034       10.412      859.858
03/06/2014  01:25:00       34.636       44.052       59.533       62.540       42.619       45.550     3911.256     1816.395     2074.846        0.724        0.390       56.038       34.504        0.379      338.022       10.391      859.853
03/06/2014  01:26:00       34.559       58.506       -2.788       26.514       23.628       20.756      703.014      558.283      430.794        0.316        0.085       67.950        5.380        0.006      338.014       10.377      859.864
03/06/2014  01:27:00       13.509       44.475      -27.539       51.761       48.170       25.707     2679.183     2320.320      660.863        0.429        0.283       46.482       22.678        0.238      337.987       10.333      859.934
03/06/2014  01:28:00       18.962      -38.090       40.972       31.671       55.229       23.640     1003.023     3050.217      558.853        0.405        0.231       42.549       20.784        0.239      338.163       10.628      860.006
03/06/2014  01:29:00       -7.379     -111.845      -14.754       64.761       50.037       29.895     4194.025     2503.669      893.724        1.019        0.380      112.088       17.059        0.023      338.111       10.540      860.063
03/06/2014  01:30:00      -40.832     -185.057       -9.027       46.218       85.602       31.909     2136.067     7327.630     1018.214        2.324        0.524      189.508       26.017        0.019      338.236       10.748      860.054
03/06/2014  01:31:00       87.780       78.505       80.270       70.696       91.176       67.506     4997.913     8313.058     4557.045        1.909        0.893      117.763       59.103        0.252      338.260       10.788      859.930
03/06/2014  01:32:00      124.710      152.573      152.079       79.286       68.642       44.175     6286.329     4711.657     1951.416        3.745        0.647      197.056       42.309        0.046      338.280       10.821      859.812
03/06/2014  01:33:00       -3.166       55.747       90.664       35.987       53.202       47.648     1295.096     2830.452     2270.295        0.887        0.320       55.837       40.122        0.516      338.270       10.807      859.783
03/06/2014  01:34:00       24.259        2.745       13.735       27.982       66.866       32.861      782.973     4471.014     1079.855        0.356        0.317       24.414       32.920        1.818      338.226       10.734      859.809
03/06/2014  01:35:00      -19.122      -35.780       -8.130       50.407       29.853       16.497     2540.842      891.198      272.151        0.271        0.185       40.569        8.144        0.040      338.243       10.761      859.841
03/06/2014  01:36:00      -45.435       -6.551       16.293       33.888       31.086       26.308     1148.424      966.354      692.125        0.259        0.140       45.905       10.303        0.050      338.233       10.744      859.837
03/06/2014  01:37:00       -1.662       18.618       14.542       27.862       23.106       19.991      776.313      533.899      399.641        0.114        0.085       18.692       13.965        0.558      338.224       10.730      859.786
03/06/2014  01:38:00     -105.624       36.431      -12.668       37.842       31.476       26.311     1431.999      990.736      692.256        0.788        0.156      111.730       11.621        0.011      338.123       10.561      859.756
03/06/2014  01:39:00     -193.785       88.350      -28.232       95.043       75.087       35.674     9033.154     5638.072     1272.624        3.105        0.797      212.975       38.264        0.032      338.062       10.456      859.727
03/06/2014  01:40:00      -15.320       60.683       13.215       46.190       87.490       39.332     2133.544     7654.485     1547.015        0.771        0.567       62.587       45.059        0.518      338.132       10.574      859.642
03/06/2014  01:41:00       20.799      135.626      -21.962       62.165       58.630       28.826     3864.488     3437.497      830.924        1.372        0.407      137.212       30.575        0.050      338.013       10.376      859.608
03/06/2014  01:42:00        6.474       74.968      -14.214       35.471       62.615       19.449     1258.164     3920.673      378.250        0.571        0.278       75.247       11.887        0.025      337.990       10.337      859.680
03/06/2014  01:43:00      -43.526      -42.882        0.184       71.436       31.743       22.326     5103.034     1007.586      498.432        0.517        0.330       61.101       26.747        0.192      338.034       10.412      859.747
03/06/2014  01:44:00      -11.361       26.828       61.517       27.351       51.678       39.065      748.072     2670.568     1526.098        0.479        0.247       29.135       25.766        0.782      338.039       10.420      859.772
03/06/2014  01:45:00       43.339      142.393      173.552       90.961      129.009       95.201     8273.929    16643.425     9063.211        4.312        1.699      148.842       91.031        0.374      338.012       10.373      859.552
03/06/2014  01:46:00      157.179       86.314       90.320      125.007      114.331       93.516    15626.747    13071.545     8745.219        3.887        1.872      179.319       84.990        0.225      337.991       10.338      859.293
03/06/2014  01:47:00      -33.126      -52.317        3.769       43.604       44.567       36.635     1901.291     1986.226     1342.127        0.454        0.261       61.923       22.482        0.132      338.000       10.354      859.426
03/06/2014  01:48:00      -87.972        1.432       -5.743       44.650       31.138       22.431     1993.587      969.595      503.170        0.562        0.173       87.983       18.618        0.045      337.935       10.245      859.641
03/06/2014  01:49:00      -21.824        4.130        1.507       61.649       31.240       25.567     3800.540      975.962      653.647        0.296        0.272       22.212       32.302        2.115      337.875       10.144      859.459
03/06/2014  01:50:00      -27.339      -99.900      -21.838       43.452       53.470       30.573     1888.119     2859.001      934.722        0.844        0.284      103.574       20.763        0.040      337.947       10.265      859.444
03/06/2014  01:51:00        8.929       24.554       70.115       37.816       72.855       41.964     1430.062     5307.781     1760.968        0.705        0.425       26.128       40.925        2.454      337.964       10.295      859.351
03/06/2014  01:52:00       64.232       37.555       54.831       84.151       97.204       69.237     7081.329     9448.547     4793.695        1.493        1.066       74.405       73.225        0.969      337.928       10.234      859.207
03/06/2014  01:53:00      173.481       84.879       26.224       72.920       50.952       54.278     5317.309     2596.088     2946.141        2.442        0.543      193.133       36.523        0.036      337.819       10.048      859.041
03/06/2014  01:54:00       -1.742      204.790      -25.690      129.787      128.578       63.194    16844.666    16532.181     3993.496        3.998        1.869      204.798       61.093        0.089      337.788        9.997      858.917
03/06/2014  01:55:00      -27.439      142.017      -17.004      141.291      120.115       52.770    19963.275    14427.717     2784.697        2.919        1.859      144.644       65.005        0.202      338.056       10.446      859.021
03/06/2014  01:56:00       92.704       88.977       92.790       76.761       78.931       60.834     5892.288     6230.177     3700.721        2.047        0.791      128.495       55.353        0.186      337.898       10.183      859.006
03/06/2014  01:57:00      -46.085      -30.169       15.648       78.142       30.769       42.973     6106.140      946.707     1846.715        0.609        0.445       55.082       50.196        0.830      337.872       10.139      859.243
03/06/2014  01:58:00     -135.469      -50.604      -14.548       27.568       41.168       15.089      760.006     1694.814      227.693        1.190        0.134      144.612        6.913        0.002      337.923       10.227      859.406
03/06/2014  01:59:00      -88.516      -40.761        1.820       46.183       57.145       24.177     2132.896     3265.536      584.521        0.774        0.299       97.450       14.167        0.021      337.955       10.280      859.352
03/06/2014  02:00:00      -35.690       96.402      -20.465       29.314       30.866       19.590      859.331      952.693      383.763        0.659        0.110      102.797       16.813        0.027      337.954       10.278      859.277
03/06/2014  02:01:00      -55.950      124.786      -15.608       34.637       68.544       23.822     1199.750     4698.284      567.486        1.270        0.323      136.755       30.429        0.050      337.906       10.195      859.241
03/06/2014  02:02:00     -107.954      149.971      -27.814       46.837       64.251       24.295     2193.688     4128.201      590.244        2.091        0.346      184.784       19.641        0.011      337.802       10.021      859.231
03/06/2014  02:03:00      -66.018      168.876      -21.808       41.007       75.152       33.617     1681.576     5647.780     1130.079        2.090        0.423      181.322       29.940        0.027      337.773        9.973      859.231
03/06/2014  02:04:00      -71.255      245.162      -27.403       47.083       90.730       34.790     2216.823     8231.917     1210.355        3.879        0.583      255.307       45.341        0.032      337.804       10.023      859.242
03/06/2014  02:05:00      -29.750      271.498      -26.239       41.488       62.554       28.768     1721.222     3912.979      827.620        4.087        0.323      273.123       29.441        0.012      337.775        9.973      859.211
03/06/2014  02:06:00      -12.621      266.523      -37.536       74.558       51.976       31.158     5558.877     2701.514      970.849        4.092        0.462      266.822       17.756        0.004      337.817       10.042      859.155
03/06/2014  02:07:00       69.213      126.109      -14.951       60.564       77.800       45.253     3667.995     6052.886     2047.832        1.634        0.588      143.854       40.369        0.079      337.712        9.872      859.140
03/06/2014  02:08:00       44.728      104.917      -19.123       67.027       49.626       34.849     4492.561     2462.736     1214.443        1.077        0.408      114.054       15.208        0.018      337.726        9.895      859.115
03/06/2014  02:09:00       -5.195      138.694      -25.105       35.519       48.774       20.366     1261.582     2378.860      414.772        1.197        0.203      138.791       22.951        0.027      337.817       10.047      859.057
03/06/2014  02:10:00       23.050      100.631      -13.527       28.214       43.879       22.253      796.017     1925.344      495.208        0.703        0.161      103.237       22.265        0.047      337.755        9.942      859.050
03/06/2014  02:11:00       25.291       54.228      -13.512       28.662       25.664       19.112      821.504      658.666      365.257        0.280        0.092       59.835       14.773        0.061      337.728        9.897      859.111
03/06/2014  02:12:00       81.591       61.291       16.458       44.955       43.464       35.453     2020.908     1889.091     1256.937        0.792        0.258      102.047       27.261        0.071      337.748        9.931      859.126
03/06/2014  02:13:00       87.057       89.267      112.229       69.534       66.745       40.653     4834.933     4454.896     1652.661        1.954        0.547      124.690       30.112        0.058      337.615        9.708      859.099
03/06/2014  02:14:00       95.560       51.749       33.471       79.823       64.875       48.467     6371.711     4208.776     2349.088        1.293        0.646      108.672       34.765        0.102      337.529        9.565      859.123
03/06/2014  02:15:00       45.482       98.483       -6.885       35.018       43.785       31.166     1226.295     1917.105      971.326        0.796        0.206      108.478       26.816        0.061      337.625        9.726      859.196
03/06/2014  02:16:00       41.642       37.846       -4.346       56.182       43.489       34.253     3156.406     1891.281     1173.279        0.470        0.311       56.271       26.352        0.219      337.650        9.767      859.222
03/06/2014  02:17:00       72.580      110.288       -4.537       60.101       49.371       35.995     3612.127     2437.501     1295.612        1.240        0.367      132.028       17.245        0.017      337.694        9.841      859.195
03/06/2014  02:18:00      131.821       70.772       17.875       46.439       35.959       36.648     2156.535     1293.070     1343.049        1.375        0.240      149.617       29.674        0.039      337.675        9.810      859.126
03/06/2014  02:19:00      146.128       80.622       12.472       67.005       50.842       35.884     4489.724     2584.862     1287.696        1.818        0.418      166.893       24.587        0.022      337.614        9.705      859.058
03/06/2014  02:20:00       90.721       28.456       12.379       59.396       73.089       31.135     3527.872     5341.940      969.378        0.951        0.492       95.079       25.499        0.072      337.625        9.725      859.155
03/06/2014  02:21:00       34.106      -60.525       11.925       50.868       65.600       41.900     2587.601     4303.310     1755.588        0.681        0.432       69.473       35.103        0.255      337.835       10.077      859.370
03/06/2014  02:22:00      -33.169      -17.194       27.938       60.074       43.450       37.080     3608.891     1887.912     1374.905        0.452        0.344       37.361       34.258        0.841      337.990       10.338      859.488
03/06/2014  02:23:00      -12.247       -6.426        3.886       67.181       44.451       27.204     4513.314     1975.880      740.051        0.372        0.361       13.831       30.471        4.854      337.963       10.292      859.462
03/06/2014  02:24:00       65.609       71.633       -0.020       35.839       45.517       28.771     1284.419     2071.802      827.750        0.681        0.209       97.138       22.936        0.056      337.897       10.182      859.362
03/06/2014  02:25:00      132.039       71.305        4.388       67.870       44.501       45.514     4606.338     1980.333     2071.548        1.560        0.433      150.063       35.228        0.055      337.839       10.083      859.231
03/06/2014  02:26:00       96.682       59.357       30.843       73.787       46.743       50.842     5444.469     2184.876     2584.888        1.202        0.511      113.449       21.875        0.037      337.801       10.021      859.096
03/06/2014  02:27:00       94.289       46.134       16.745       64.008       33.989       33.520     4096.990     1155.230     1123.602        0.884        0.319      104.971       21.471        0.042      337.701        9.853      859.043
03/06/2014  02:28:00       52.711       36.269       14.652       52.831       38.252       29.673     2791.143     1463.209      880.474        0.472        0.257       63.983       23.700        0.137      337.711        9.870      859.048
03/06/2014  02:29:00       89.045       45.725       23.456       45.574       51.498       40.437     2077.029     2652.079     1635.163        0.847        0.318      100.099       25.894        0.067      337.737        9.912      859.050
03/06/2014  02:30:00       63.413       41.882       11.627       42.728       57.560       36.356     1825.711     3313.203     1321.764        0.618        0.323       75.996       28.093        0.137      337.810       10.035      858.990
03/06/2014  02:31:00      153.829      139.222       11.712      102.411       71.387       55.589    10487.962     5096.098     3090.091        3.093        0.934      207.475       38.506        0.034      337.785        9.991      858.784
03/06/2014  02:32:00      147.782      129.302       19.257       95.236       63.496       50.411     9069.942     4031.723     2541.219        2.728        0.782      196.364       25.196        0.016      337.803       10.022      858.578
03/06/2014  02:33:00      124.548       96.062       30.679       82.975       64.649       49.574     6884.863     4179.546     2457.554        1.960        0.676      157.290       37.205        0.056      337.794       10.006      858.557
03/06/2014  02:34:00      -20.601      -54.229       -9.644       59.616       38.962       30.404     3554.050     1517.999      924.386        0.473        0.300       58.010       12.172        0.044      337.901       10.189      858.752
03/06/2014  02:35:00       24.388      -59.221        9.471       63.377       60.699       41.124     4016.620     3684.326     1691.176        0.679        0.470       64.046       26.449        0.171      338.024       10.394      858.917
03/06/2014  02:36:00      -18.891      -64.606       -0.880       44.607       71.592       33.778     1989.796     5125.374     1140.952        0.639        0.413       67.311       32.013        0.226      338.001       10.356      859.008
03/06/2014  02:37:00      -34.905       72.467      -14.069       36.067       22.996       21.984     1300.821      528.796      483.300        0.449        0.116       80.435       16.774        0.043      337.959       10.288      859.089
03/06/2014  02:38:00     -102.467      107.070      -31.347       47.041       35.570       23.785     2212.819     1265.238      565.717        1.349        0.202      148.201       19.927        0.018      338.102       10.526      859.137
03/06/2014  02:39:00       77.208      146.676       -7.910      122.496       52.495       35.775    15005.180     2755.676     1279.840        2.329        0.952      165.756       40.472        0.060      337.961       10.287      859.038
03/06/2014  02:40:00      230.083      159.903       60.768       90.176       61.858       72.543     8131.770     3826.412     5262.476        4.971        0.861      280.191       62.062        0.049      337.938       10.245      858.767
03/06/2014  02:41:00      308.969      205.866       55.256      142.005       92.369       80.250    20165.557     8532.066     6440.118        8.801        1.757      371.271       70.807        0.036      337.729        9.896      858.430
03/06/2014  02:42:00       92.907       36.872        9.562       84.745       63.961       52.088     7181.645     4090.955     2713.128        1.203        0.699       99.956       38.568        0.149      337.841       10.087      858.236
03/06/2014  02:43:00        5.059      -13.620      -19.580       49.205       84.017       27.306     2421.116     7058.817      745.637        0.541        0.511       14.529       32.123        4.888      337.940       10.253      858.442
03/06/2014  02:44:00      -81.977     -115.554       -4.048      113.866       77.512       41.825    12965.361     6008.172     1749.351        2.040        1.036      141.679       40.094        0.080      338.016       10.379      858.848
03/06/2014  02:45:00     -200.583     -159.863      -18.212       96.072       66.271       50.570     9229.768     4391.786     2557.292        4.115        0.809      256.495       46.911        0.033      337.962       10.288      859.147
03/06/2014  02:46:00      -67.068      -27.990       21.327      121.118       75.145       51.571    14669.660     5646.701     2659.546        1.435        1.149       72.675       70.169        0.932      337.967       10.299      859.181
03/06/2014  02:47:00       66.045      205.493      -18.396       74.856      127.750       67.495     5603.432    16320.088     4555.542        3.670        1.324      215.845       87.950        0.166      337.951       10.269      858.870
03/06/2014  02:48:00      148.840      185.258       -6.830      141.545      116.437       84.850    20034.875    13557.676     7199.478        4.865        2.040      237.643       66.033        0.077      337.858       10.113      858.406
03/06/2014  02:49:00       67.412       90.182        3.585      135.898      140.962       56.043    18468.212    19870.401     3140.851        2.708        2.074      112.593       44.448        0.156      337.935       10.246      858.325
03/06/2014  02:50:00      -86.206     -153.829      -12.757      155.659       90.739       59.373    24229.614     8233.587     3525.096        3.362        1.799      176.338       53.662        0.093      338.018       10.382      858.634
03/06/2014  02:51:00       55.038     -163.739       11.719       97.109       87.787       63.768     9430.175     7706.590     4066.357        2.559        1.060      172.741       47.314        0.075      338.017       10.382      858.839
03/06/2014  02:52:00       16.824      -33.992        7.657       49.836       99.534       49.250     2483.611     9907.031     2425.547        0.815        0.741       37.928       53.085        1.959      338.028       10.401      858.849
03/06/2014  02:53:00      145.579       95.916       32.086       56.764       48.040       49.068     3222.188     2307.864     2407.635        1.968        0.397      174.336       16.089        0.009      337.895       10.178      858.613
03/06/2014  02:54:00       87.309       61.380        4.262       58.310       53.944       42.376     3400.085     2909.904     1795.744        0.976        0.405      106.726       18.135        0.029      337.850       10.101      858.336
03/06/2014  02:55:00       73.730       69.326       11.455       76.069       57.407       44.436     5786.535     3295.561     1974.572        1.071        0.553      101.204       34.556        0.117      337.807       10.031      858.277
03/06/2014  02:56:00      -48.706      -28.012      -18.985       71.824       32.266       17.069     5158.618     1041.087      291.340        0.500        0.325       56.187       18.093        0.104      337.868       10.133      858.334
03/06/2014  02:57:00     -146.330      -68.932       -4.390       91.461       37.607       32.382     8365.061     1414.316     1048.568        1.850        0.541      161.753       16.941        0.011      337.880       10.152      858.474
03/06/2014  02:58:00     -128.405      -64.271        2.917       67.398       63.607       35.531     4542.513     4045.894     1262.475        1.524        0.493      143.592       39.206        0.075      337.924       10.227      858.601
03/06/2014  02:59:00     -165.340      -18.633       -8.886       51.714       37.573       24.164     2674.369     1411.694      583.892        1.622        0.233      166.387       21.451        0.017      338.014       10.378      858.649
03/06/2014  03:00:00     -197.432      -25.141       -4.830       67.590       55.393       35.763     4568.403     3068.413     1278.994        2.427        0.446      199.026       36.181        0.033      337.904       10.190      858.654
03/06/2014  03:01:00      -60.860      -54.827        7.787       75.088       36.461       31.352     5638.188     1329.404      982.938        0.736        0.398       81.914       38.527        0.221      337.900       10.185      858.532
03/06/2014  03:02:00        9.494       13.575       50.437       41.322       70.591       57.771     1707.517     4983.131     3337.531        0.642        0.501       16.565       61.355       13.719      337.949       10.270      858.319
03/06/2014  03:03:00       -8.219      133.177       17.889       31.352       38.186       67.467      982.962     1458.137     4551.793        1.256        0.350      133.431       31.393        0.055      337.921       10.221      858.148
03/06/2014  03:04:00      -87.655       50.135      -17.269       31.733       84.750       19.940     1006.982     7182.496      397.600        0.954        0.429      100.980       28.299        0.079      338.120       10.556      858.210
03/06/2014  03:05:00      -54.527      -74.435        2.501       89.419       44.708       29.285     7995.701     1998.815      857.619        0.968        0.543       92.270       32.473        0.124      338.010       10.371      858.369
03/06/2014  03:06:00     -129.426     -185.135       -3.573      107.067      104.695       42.920    11463.350    10961.107     1842.152        3.765        1.213      225.890       57.239        0.064      337.956       10.278      858.493
03/06/2014  03:07:00     -162.405     -101.751       -1.593       71.985       52.923       42.829     5181.851     2800.818     1834.363        2.327        0.491      191.647       43.659        0.052      337.989       10.335      858.505
03/06/2014  03:08:00     -184.972     -139.476      -15.315      113.352       97.621       39.358    12848.655     9529.952     1549.053        3.891        1.196      231.664       47.527        0.042      338.035       10.411      858.488
03/06/2014  03:09:00     -223.623      -60.600      -19.506       97.198       93.360       45.447     9447.474     8716.135     2065.417        3.714        1.011      231.689       47.158        0.041      338.028       10.398      858.462
03/06/2014  03:10:00     -184.706      -73.901       -1.432       86.509       75.851       39.589     7483.757     5753.327     1567.317        2.719        0.740      198.942       32.926        0.027      337.944       10.258      858.443
03/06/2014  03:11:00     -105.044      -28.589       -8.122       57.530       39.487       25.751     3309.658     1559.194      663.139        0.872        0.277      108.865       19.562        0.032      337.893       10.174      858.406
03/06/2014  03:12:00      -29.723       -9.473       -7.774       32.117       41.926       27.982     1031.493     1757.775      782.983        0.230        0.179       31.196       23.733        0.579      337.973       10.308      858.421
03/06/2014  03:13:00      -33.689       -0.257       14.039       37.058       36.789       34.126     1373.296     1353.437     1164.558        0.261        0.195       33.690       27.048        0.645      338.062       10.459      858.365
03/06/2014  03:14:00     -139.991      -12.668      -14.198       29.735       32.156       19.401      884.180     1034.031      376.393        1.113        0.115      140.563       16.280        0.013      338.017       10.382      858.243
03/06/2014  03:15:00      -40.426      -30.967        5.898       31.399       57.972       25.072      985.915     3360.772      628.612        0.380        0.249       50.923       14.420        0.080      337.989       10.335      858.304
03/06/2014  03:16:00     -108.511      -60.971      -12.755      107.166       46.607       25.579    11484.476     2172.171      654.286        1.498        0.716      124.467       29.142        0.055      337.988       10.333      858.443
03/06/2014  03:17:00     -207.375       -0.968      -14.937       86.288       52.813       35.204     7445.637     2789.216     1239.309        2.735        0.574      207.377       40.343        0.038      338.206       10.699      858.369
03/06/2014  03:18:00     -182.648        2.198      -11.198       75.149       60.881       39.484     5647.322     3706.556     1559.020        2.220        0.546      182.662       39.049        0.046      338.294       10.847      858.236
03/06/2014  03:19:00      -36.760     -103.695       -9.647       52.235       69.440       32.685     2728.546     4821.981     1068.316        1.041        0.431      110.018       11.521        0.011      338.137       10.584      858.272
03/06/2014  03:20:00      -75.932      -67.726       -1.016       63.893       62.100       54.457     4082.336     3856.420     2965.551        1.063        0.545      101.747       43.197        0.180      338.129       10.571      858.309
03/06/2014  03:21:00       60.861      -77.211       42.029       81.986      161.714       74.425     6721.671    26151.466     5539.108        2.492        1.921       98.313       82.878        0.711      338.293       10.845      858.175
03/06/2014  03:22:00       16.675      -55.412       24.466      128.118       83.140       54.878    16414.260     6912.230     3011.614        1.514        1.317       57.867       49.747        0.739      338.240       10.756      858.222
03/06/2014  03:23:00     -279.577     -107.112      -25.022      143.883      126.564       52.331    20702.316    16018.345     2738.499        6.485        1.973      299.394       68.524        0.052      338.125       10.561      858.335
03/06/2014  03:24:00     -113.741     -108.961       15.157      145.708      116.404       67.927    21230.932    13549.837     4614.081        3.221        1.970      157.510       74.688        0.225      338.202       10.691      858.374
03/06/2014  03:25:00     -202.260     -157.778      -24.367      111.261      126.179       55.830    12379.020    15921.254     3117.017        4.890        1.571      256.521       43.106        0.028      338.300       10.855      858.294
03/06/2014  03:26:00     -202.986     -111.351      -12.380      112.427       73.525       38.510    12639.851     5405.885     1483.003        3.664        0.976      231.522       30.737        0.018      338.213       10.708      858.304
03/06/2014  03:27:00     -163.727      -59.992       -1.948       91.939       64.768       33.644     8452.802     4194.860     1131.942        2.209        0.689      174.372       39.145        0.050      338.092       10.508      858.369
03/06/2014  03:28:00     -173.620      -67.079        9.460      138.505       67.619       38.340    19183.599     4572.280     1469.975        2.998        1.261      186.128       50.326        0.073      338.066       10.464      858.430
03/06/2014  03:29:00     -223.996      -90.636       -9.378       99.336       80.944       45.294     9867.694     6551.866     2051.512        3.847        0.924      241.638       34.187        0.020      337.998       10.350      858.487
03/06/2014  03:30:00     -273.958      -62.745      -13.379      104.774       59.869       46.293    10977.645     3584.245     2143.060        4.793        0.835      281.052       52.443        0.035      337.877       10.143      858.479
03/06/2014  03:31:00     -272.533      -20.069      -25.451       73.837       93.601       39.440     5451.882     8761.147     1555.488        4.554        0.788      273.271       34.490        0.016      337.958       10.281      858.467
03/06/2014  03:32:00     -350.629      -75.086      -17.553      113.786       86.274       47.807    12947.220     7443.234     2285.475        7.578        1.134      358.578       44.965        0.016      337.958       10.280      858.333
03/06/2014  03:33:00     -243.076      -51.734      -31.324       49.331       74.024       38.238     2433.582     5479.596     1462.123        3.606        0.469      248.520       23.443        0.009      338.008       10.363      858.184
03/06/2014  03:34:00     -256.795     -104.142      -26.923      132.952      114.566       63.841    17676.130    13125.404     4075.692        5.619        1.744      277.108       59.574        0.046      338.116       10.547      858.261
03/06/2014  03:35:00     -415.443     -198.253      -23.327      134.112       90.501       66.146    17985.940     8190.460     4375.251       12.149        1.528      460.323       54.667        0.014      338.004       10.359      858.432
03/06/2014  03:36:00     -207.779      -96.454      -10.894      149.419      104.748       75.068    22325.914    10972.140     5635.244        4.576        1.947      229.075       72.606        0.100      338.044       10.426      858.580
03/06/2014  03:37:00     -336.103     -180.590      -26.719      117.819      119.919       61.723    13881.382    14380.477     3809.667        8.918        1.604      381.547       67.284        0.031      338.118       10.549      858.685
03/06/2014  03:38:00     -146.985     -112.905       11.524      125.539       65.356       52.648    15760.117     4271.386     2771.851        2.864        1.140      185.343       52.459        0.080      338.156       10.614      858.718
03/06/2014  03:39:00     -115.466     -188.179       -7.529       72.154      101.826       36.964     5206.160    10368.528     1366.347        3.287        0.847      220.780       41.515        0.035      338.227       10.733      858.655
03/06/2014  03:40:00      -19.580      -49.433       11.223       37.398       57.256       31.726     1398.601     3278.272     1006.518        0.432        0.284       53.170       28.951        0.296      338.320       10.892      858.522
03/06/2014  03:41:00       12.419        3.465       34.188       35.777       38.337       30.092     1280.011     1469.719      905.526        0.249        0.183       12.894       24.839        3.711      338.318       10.887      858.438
03/06/2014  03:42:00      -62.144       -4.377       16.292       70.061       32.126       29.990     4908.502     1032.100      899.390        0.549        0.342       62.298       41.352        0.441      338.237       10.750      858.375
03/06/2014  03:43:00     -138.286      -67.186        0.793       90.354       55.400       36.666     8163.895     3069.135     1344.412        1.811        0.629      153.743       40.719        0.070      338.241       10.758      858.456
03/06/2014  03:44:00     -203.761     -154.178        4.212      143.465       87.896       61.836    20582.084     7725.695     3823.712        4.871        1.607      255.518       64.671        0.064      338.207       10.697      858.552
03/06/2014  03:45:00     -234.707      -59.262       10.990      120.829       89.389       51.589    14599.671     7990.373     2661.450        4.198        1.263      242.073       44.544        0.034      338.174       10.643      858.665
03/06/2014  03:46:00     -327.776     -141.393      -11.767      128.649       99.482       61.749    16550.612     9896.760     3812.947        7.891        1.513      356.972       56.473        0.025      338.235       10.745      858.744
03/06/2014  03:47:00     -224.238       -8.560      -16.758       74.207       69.231       38.921     5506.638     4792.871     1514.854        3.122        0.591      224.401       35.850        0.026      338.241       10.754      858.639
03/06/2014  03:48:00     -221.376      -65.721      -20.482       82.856       44.552       33.267     6865.181     1984.850     1106.668        3.185        0.498      230.925       40.078        0.030      338.341       10.924      858.585
03/06/2014  03:49:00      -36.713     -155.875      -17.277       84.521       58.594       31.898     7143.851     3433.246     1017.500        1.877        0.580      160.140       29.491        0.034      338.429       11.075      858.648
03/06/2014  03:50:00       49.739     -113.554       19.133       70.781      120.379       63.356     5009.981    14491.074     4014.040        1.962        1.176      123.970       79.075        0.407      338.503       11.199      858.586
03/06/2014  03:51:00       18.111     -177.222      -21.402      159.567       56.185       44.003    25461.713     3156.773     1936.257        3.137        1.528      178.145       44.152        0.061      338.579       11.322      858.646
03/06/2014  03:52:00      -88.691      -74.096        6.590       66.570       61.115       36.718     4431.593     3735.087     1348.229        1.146        0.476      115.570       32.854        0.081      338.473       11.148      858.696
03/06/2014  03:53:00      -11.021       39.686       61.490       56.578       31.850       27.637     3201.059     1014.417      763.787        0.523        0.249       41.188       18.933        0.211      338.415       11.051      858.549
03/06/2014  03:54:00     -176.338      -12.610      -10.621       82.664       80.576       35.385     6833.306     6492.414     1252.077        2.297        0.729      176.788       34.076        0.037      338.360       10.956      858.534
03/06/2014  03:55:00     -285.672     -123.312       -2.135      109.627       74.570       45.605    12018.057     5560.635     2079.824        5.824        0.983      311.150       50.473        0.026      338.331       10.907      858.588
03/06/2014  03:56:00     -367.721     -227.880       -4.239      224.654      153.649       89.794    50469.248    23608.040     8062.954       13.464        4.107      432.606      111.352        0.066      338.500       11.190      858.591
03/06/2014  03:57:00     -372.091     -200.603       -0.508      279.104      164.136       99.958    77898.768    26940.657     9991.623       14.674        5.742      422.721      120.203        0.081      338.678       11.490      858.523
03/06/2014  03:58:00     -371.970     -247.566      -33.629      202.004      140.424       83.600    40805.645    19719.033     6988.964       13.414        3.376      446.823       74.839        0.028      338.665       11.467      858.453
03/06/2014  03:59:00     -457.107     -264.209       12.836      278.219      242.849      126.934    77405.821    58975.806    16112.256       21.568        7.625      527.971      137.087        0.067      338.708       11.540      858.488
03/06/2014  04:00:00     -366.289     -180.322       -9.217      311.507      196.480       96.956    97036.431    38604.297     9400.551       15.588        7.252      408.269       89.490        0.048      338.733       11.584      858.542
03/06/2014  04:01:00       48.782     -152.589       25.017      133.604      160.293       89.516    17850.096    25693.940     8013.145        3.891        2.578      160.197       87.150        0.296      338.850       11.781      858.447
03/06/2014  04:02:00      -40.164       13.586       37.003       51.137       58.995       50.042     2614.997     3480.397     2504.212        0.588        0.430       42.399       36.293        0.733      338.686       11.508      858.460
03/06/2014  04:03:00     -227.262     -115.815       -3.107      118.286       73.404       47.728    13991.562     5388.167     2277.959        4.336        1.083      255.071       48.621        0.036      338.684       11.499      858.545
03/06/2014  04:04:00     -362.939     -237.003      -21.340      223.834      167.585       88.908    50101.776    28084.803     7904.593       13.721        4.305      433.468       90.790        0.044      338.679       11.490      858.694
03/06/2014  04:05:00     -208.836      -83.110        5.418      124.673      125.969       66.355    15543.336    15868.224     4402.969        4.318        1.791      224.766       67.071        0.089      338.662       11.463      858.677
03/06/2014  04:06:00      -53.558     -134.480       24.387      120.810      102.715       78.914    14595.169    10550.467     6227.342        2.646        1.569      144.753       57.750        0.159      338.784       11.670      858.624
03/06/2014  04:07:00     -217.442      -64.494       10.061      163.048      114.237       79.119    26584.678    13050.179     6259.839        4.871        2.295      226.805       79.689        0.123      338.661       11.460      858.727
03/06/2014  04:08:00     -104.535     -170.289        6.009      149.386      123.680       68.252    22316.249    15296.678     4658.379        4.111        2.114      199.815       74.421        0.139      338.672       11.479      858.710
03/06/2014  04:09:00     -322.193     -172.737        7.683      174.478      183.903       77.980    30442.409    33820.395     6080.836       10.201        3.517      365.577       93.083        0.065      338.613       11.381      858.728
03/06/2014  04:10:00     -101.040      -25.930       21.441      172.437      105.191       50.841    29734.587    11065.186     2584.807        2.736        2.169      104.315       39.073        0.140      338.619       11.392      858.614
03/06/2014  04:11:00     -126.419      -26.312        1.304       83.598       94.906       44.303     6988.694     9007.146     1962.740        1.731        0.898      129.128       41.570        0.104      338.626       11.405      858.660
03/06/2014  04:12:00     -284.412     -204.691       11.399      257.617      174.271       89.995    66366.467    30370.495     8099.139       11.386        5.242      350.412      116.441        0.110      338.611       11.376      858.662
03/06/2014  04:13:00     -358.633      -90.270        1.088      248.383      167.664       70.768    61694.267    28111.189     5008.174       11.577        4.741      369.820       61.647        0.028      338.552       11.279      858.608
03/06/2014  04:14:00     -512.811     -172.285       -4.402      275.264      201.944       95.086    75770.071    40781.503     9041.331       20.911        6.280      540.978      116.009        0.046      338.518       11.220      858.544
03/06/2014  04:15:00      -64.616     -110.179       11.445      114.380      116.347       52.569    13082.718    13536.675     2763.449        2.291        1.469      127.729       43.815        0.118      338.525       11.235      858.590
03/06/2014  04:16:00     -374.013     -293.584      -20.934      264.170      172.542       97.235    69785.552    29770.754     9454.683       16.775        5.451      475.476      118.836        0.062      338.491       11.176      858.620
03/06/2014  04:17:00     -301.088     -292.211      -18.117      173.698      133.598       86.467    30170.832    17848.541     7476.576       11.592        2.775      419.573       78.450        0.035      338.450       11.104      858.585
03/06/2014  04:18:00     -206.598     -180.060        1.312      173.938      139.035       67.835    30254.289    19330.788     4601.586        6.464        2.709      274.052       66.995        0.060      338.467       11.135      858.562
03/06/2014  04:19:00     -276.676     -200.586        4.696      188.328      181.829       85.544    35467.388    33061.920     7317.692        9.631        3.792      341.737       75.389        0.049      338.434       11.078      858.566
03/06/2014  04:20:00     -203.459     -230.695      -17.017      189.349      141.392       78.538    35852.900    19991.801     6168.261        7.845        3.101      307.597       73.610        0.057      338.452       11.111      858.567
03/06/2014  04:21:00      -77.252     -296.731        2.448       94.301      150.817       70.054     8892.706    22745.871     4907.537        6.528        1.827      306.622       49.549        0.026      338.443       11.095      858.553
03/06/2014  04:22:00     -322.956     -181.321      -23.956      282.328      242.842       89.403    79709.343    58972.243     7992.908       14.219        7.334      370.375      118.796        0.103      338.383       10.994      858.514
03/06/2014  04:23:00     -456.716     -278.708      -18.452      162.481      161.787       86.198    26400.231    26174.942     7430.041       17.330        3.000      535.040       98.310        0.034      338.380       10.988      858.490
03/06/2014  04:24:00     -184.934     -194.150        4.932      131.189      137.123       79.845    17210.550    18802.762     6375.164        5.715        2.119      268.132       74.341        0.077      338.347       10.935      858.548
03/06/2014  04:25:00     -333.724     -419.904      -16.273      207.193      268.567      103.789    42929.102    72128.351    10772.230       20.687        6.291      536.369       91.333        0.029      338.370       10.970      858.547
03/06/2014  04:26:00     -342.299     -255.958       10.811      196.672      174.341      104.366    38679.791    30394.899    10892.196       13.137        3.998      427.414      103.866        0.059      338.337       10.917      858.512
03/06/2014  04:27:00     -423.535     -273.537        1.090      278.301      175.276      105.484    77451.365    30721.728    11126.905       18.673        5.965      504.187      119.064        0.056      338.324       10.894      858.513
03/06/2014  04:28:00     -387.329     -224.579       -3.801      285.204      231.517      128.564    81341.364    53600.226    16528.652       17.595        7.574      447.727      123.252        0.076      338.324       10.894      858.507
03/06/2014  04:29:00     -357.290     -168.557        0.416      322.410      271.139      105.127   103948.414    73516.219    11051.780       17.226        9.426      395.054      112.281        0.081      338.315       10.881      858.565
03/06/2014  04:30:00     -342.738     -176.524        2.822      227.117      192.896       85.815    51582.171    37208.705     7364.265       12.238        4.808      385.526       83.451        0.047      338.305       10.864      858.578
03/06/2014  04:31:00     -574.795     -388.009      -29.470      236.180      230.947      118.639    55781.191    53336.468    14075.206       30.248        6.160      693.498      133.720        0.037      338.296       10.848      858.574
03/06/2014  04:32:00     -244.391     -340.625       -2.281      286.186      194.213      115.943    81902.272    37718.793    13442.824       15.439        6.653      419.229      113.827        0.074      338.292       10.841      858.570
03/06/2014  04:33:00     -224.715     -181.787       19.213      192.661      132.153       86.911    37118.319    17464.408     7553.564        7.301        3.107      289.038       78.164        0.073      338.267       10.801      858.606
03/06/2014  04:34:00     -353.959     -253.773        2.779      234.569      201.714      108.777    55022.625    40688.449    11832.446       14.860        5.377      435.532      129.402        0.088      338.312       10.874      858.606
03/06/2014  04:35:00     -358.519     -213.036       -8.148      229.571      181.293       95.128    52702.824    32867.307     9049.269       13.429        4.731      417.038      109.916        0.069      338.298       10.852      858.579
03/06/2014  04:36:00     -250.911     -228.128        4.498      184.415      220.690       87.759    34008.917    48704.071     7701.660       10.270        4.521      339.115       86.379        0.065      338.287       10.831      858.556
03/06/2014  04:37:00     -357.394     -243.717       -6.120      206.368      163.977       89.962    42587.706    26888.416     8093.139       13.235        3.878      432.583      105.394        0.059      338.259       10.788      858.574
03/06/2014  04:38:00     -521.433     -276.123      -12.215      233.818      177.210      104.320    54670.786    31403.316    10882.693       22.261        4.848      590.031      121.315        0.042      338.231       10.740      858.591
03/06/2014  04:39:00      -80.831      -36.121        7.600      194.995       97.237       62.509    38022.887     9455.080     3907.318        2.963        2.569       88.534       76.786        0.752      338.227       10.734      858.570
03/06/2014  04:40:00     -159.019     -119.047       -0.562      130.800       86.208       55.873    17108.565     7431.871     3121.772        3.356        1.383      198.643       43.614        0.048      338.208       10.702      858.630
03/06/2014  04:41:00     -197.285      -94.721      -15.667      143.545      118.424       56.773    20605.310    14024.359     3223.123        4.299        1.893      218.846       64.299        0.086      338.203       10.692      858.638
03/06/2014  04:42:00     -315.819      -20.811        1.675      228.840      146.834       87.740    52367.607    21560.338     7698.386        9.089        4.081      316.504       98.113        0.096      338.161       10.622      858.635
03/06/2014  04:43:00      -20.222      -99.218        8.839       84.183      137.729       54.188     7086.826    18969.311     2936.334        1.966        1.450      101.258       49.701        0.241      338.210       10.706      858.644
03/06/2014  04:44:00     -392.619     -184.216       -7.001      220.273      197.926       94.151    48520.158    39174.627     8864.459       14.233        4.828      433.688       94.066        0.047      338.154       10.608      858.665
03/06/2014  04:45:00     -268.754     -224.950       11.749      177.276      164.565       82.130    31426.692    27081.493     6745.330        9.410        3.263      350.473       81.750        0.054      338.188       10.666      858.669
03/06/2014  04:46:00     -190.988     -161.805       21.269      139.144      189.024       67.378    19361.155    35730.163     4539.858        6.136        2.982      250.314       63.633        0.065      338.151       10.604      858.659
03/06/2014  04:47:00     -259.953     -134.150      -16.548      150.877      191.410       69.990    22763.791    36637.812     4898.659        7.506        3.215      292.526       74.991        0.066      338.123       10.558      858.669
03/06/2014  04:48:00     -298.411      -94.078       -3.415      175.588      161.742       78.179    30831.262    26160.539     6111.990        8.050        3.155      312.890       88.642        0.080      338.103       10.524      858.675
03/06/2014  04:49:00     -167.277     -149.707       19.484      139.667      169.316       80.973    19506.797    28667.941     6556.654        5.274        2.737      224.486       81.411        0.132      338.130       10.568      858.685
03/06/2014  04:50:00     -365.109     -227.364      -18.068      213.598      209.390      111.925    45624.118    43844.196    12527.112       14.364        5.100      430.115      108.932        0.064      338.104       10.526      858.563
03/06/2014  04:51:00     -288.008     -218.110       14.183      234.849      220.839       99.851    55153.828    48769.791     9970.197       12.229        5.695      361.276      120.901        0.112      338.080       10.486      858.553
03/06/2014  04:52:00     -260.956     -103.677       -0.498      187.169      173.208       68.469    35032.250    30000.866     4687.993        7.427        3.486      280.797       75.019        0.071      338.012       10.372      858.544
03/06/2014  04:53:00     -184.894     -111.222       11.409      152.101      164.931       64.053    23134.637    27202.083     4102.834        5.055        2.722      215.769       67.922        0.099      337.995       10.342      858.511
03/06/2014  04:54:00     -230.710      -79.250       15.322      188.418      139.794       77.584    35501.476    19542.439     6019.284        6.039        3.053      243.942       93.670        0.147      337.971       10.303      858.451
03/06/2014  04:55:00     -254.352     -220.995       -5.983      196.137      135.621       68.227    38469.818    18392.949     4654.867        8.753        3.076      336.948       74.869        0.049      337.952       10.271      858.490
03/06/2014  04:56:00     -291.002     -220.524        7.295      222.341      189.877      103.240    49435.602    36053.237    10658.518       11.474        4.807      365.120      108.113        0.088      337.964       10.292      858.480
03/06/2014  04:57:00     -417.418     -283.669      -14.692      286.893      174.129      114.761    82307.480    30321.064    13170.199       19.034        6.290      504.684      142.317        0.080      337.962       10.287      858.491
03/06/2014  04:58:00     -380.988     -317.428       -8.097      325.056      238.812      143.361   105661.491    57030.965    20552.278       21.458        9.162      495.896      154.400        0.097      337.951       10.270      858.451
03/06/2014  04:59:00     -383.115     -276.974       -8.807      278.759      177.263      108.405    77706.775    31422.284    11751.643       17.220        6.044      472.749      116.271        0.060      337.941       10.252      858.463
03/06/2014  05:00:00     -313.267     -191.571       10.363      246.123      178.157       98.113    60576.473    31740.083     9626.192       11.843        5.097      367.199       84.434        0.053      337.952       10.270      858.412
03/06/2014  05:01:00     -259.065      -86.997        4.857      187.428      132.660       76.815    35129.220    17598.550     5900.536        6.666        2.931      273.282       74.894        0.075      337.899       10.181      858.408
03/06/2014  05:02:00     -456.331     -261.130      -19.920      225.032      199.657       97.377    50639.500    39862.849     9482.374       18.839        4.999      525.764      105.463        0.040      337.901       10.184      858.383
03/06/2014  05:03:00     -488.760     -248.796      -26.889      288.437      275.934      115.443    83195.813    76139.824    13327.008       23.706        8.633      548.439      138.134        0.063      337.871       10.134      858.338
03/06/2014  05:04:00     -512.331     -340.403       -4.463      370.494      307.121      147.250   137265.996    94323.277    21682.677       31.578       12.664      615.108      183.171        0.089      337.859       10.115      858.342
03/06/2014  05:05:00     -666.455     -328.739      -31.627      231.838      238.040      119.023    53748.839    56663.123    14166.395       33.888        6.229      743.123      126.332        0.029      337.858       10.111      858.350
03/06/2014  05:06:00     -341.787     -266.914       -6.156      243.130      179.343      108.286    59112.397    32163.985    11725.934       14.553        5.150      433.661      131.491        0.092      337.846       10.093      858.424
03/06/2014  05:07:00     -513.953     -215.289      -35.012      317.686      192.839      106.622   100924.391    37186.903    11368.234       23.058        7.474      557.223      114.955        0.043      337.821       10.051      858.463
03/06/2014  05:08:00     -414.503     -231.882       -1.070      299.273      250.310      125.673    89564.274    62655.108    15793.773       19.677        8.401      474.955      141.509        0.089      337.848       10.094      858.441
03/06/2014  05:09:00     -308.991     -159.341       21.016      249.839      157.332      101.876    62419.341    24753.454    10378.661       10.941        4.878      347.657      109.500        0.099      337.817       10.045      858.425
03/06/2014  05:10:00     -296.140     -242.478       14.177      278.591      232.550      123.213    77612.765    54079.599    15181.412       14.676        7.344      382.746      151.685        0.157      337.845       10.091      858.411
03/06/2014  05:11:00     -535.700     -302.101        3.799      353.140      351.425      156.240   124707.598   123499.437    24410.905       32.539       13.631      615.011      201.596        0.107      337.836       10.075      858.380
03/06/2014  05:12:00     -473.842     -296.469      -15.889      289.547      225.728      124.565    83837.198    50953.213    15516.483       23.146        7.515      558.945      138.805        0.062      337.812       10.035      858.439
03/06/2014  05:13:00     -545.889     -263.972       -8.811      304.535      300.030      130.901    92741.439    90018.213    17135.044       28.379        9.995      606.363      145.914        0.058      337.803       10.019      858.402
03/06/2014  05:14:00     -345.868     -282.270        7.433      280.009      175.386      112.852    78405.103    30760.075    12735.591       16.061        6.095      446.432      141.328        0.100      337.779        9.980      858.395
03/06/2014  05:15:00     -411.628     -276.637        0.689      245.478      201.189      110.882    60259.416    40477.116    12294.752       17.948        5.652      495.950      108.059        0.047      337.766        9.959      858.436
03/06/2014  05:16:00     -620.661     -228.701       -6.904      434.282      229.382      133.658   188601.137    52616.006    17864.544       34.828       12.954      661.457      172.567        0.068      337.782        9.985      858.396
03/06/2014  05:17:00     -633.321     -408.873      -11.608      372.436      305.862      147.700   138708.847    93551.675    21815.298       41.120       12.704      753.838      154.160        0.042      337.757        9.943      858.383
03/06/2014  05:18:00     -644.286     -238.524       -6.774      312.909      295.193      127.753    97912.082    87138.691    16320.720       33.667       10.069      687.022      131.782        0.037      337.733        9.904      858.450
03/06/2014  05:19:00     -573.144     -223.806       -1.823      329.606      291.109      125.427   108640.428    84744.312    15731.830       29.382       10.456      615.291      158.433        0.066      337.718        9.878      858.440
03/06/2014  05:20:00     -758.393     -543.992      -30.875      461.390      356.935      179.436   212880.651   127402.827    32197.343       62.220       18.624      933.321      209.218        0.050      337.722        9.884      858.391
03/06/2014  05:21:00     -669.792     -374.718      -46.023      232.045      232.425      133.542    53844.793    54021.183    17833.420       35.841        6.285      767.486      114.199        0.022      337.723        9.887      858.420
03/06/2014  05:22:00     -532.738     -325.396      -29.544      356.235      242.806      122.743   126903.642    58954.540    15065.738       29.571       10.046      624.253      134.123        0.046      337.687        9.826      858.488
03/06/2014  05:23:00     -522.068     -270.626        0.827      438.154      270.846      128.070   191979.362    73357.505    16401.892       31.372       14.087      588.042      151.811        0.067      337.688        9.829      858.487
03/06/2014  05:24:00     -503.736     -133.174       15.466      300.785      270.064      135.897    90471.712    72934.623    18467.875       22.677        9.094      521.043      149.530        0.082      337.675        9.806      858.579
03/06/2014  05:25:00     -513.872     -314.654        7.363      406.579      287.125      160.611   165306.662    82440.648    25795.735       31.829       13.677      602.554      185.388        0.095      337.664        9.789      858.637
03/06/2014  05:26:00     -551.101     -156.754      -14.584      265.411      236.078      128.632    70442.951    55732.986    16546.249       23.559        7.136      572.960      124.437        0.047      337.666        9.790      858.672
03/06/2014  05:27:00     -325.224      -88.057       16.916      280.497      211.414      101.151    78678.537    44695.804    10231.443       12.369        6.680      336.934      121.607        0.130      337.643        9.752      858.710
03/06/2014  05:28:00     -547.030      -80.662       -3.128      265.021      212.791      113.395    70235.905    45280.175    12858.342       21.704        6.419      552.945      130.900        0.056      337.640        9.747      858.680
03/06/2014  05:29:00     -345.711     -195.540       16.123      347.569      178.341      102.063   120804.079    31805.532    10416.939       16.049        8.151      397.180      140.327        0.125      337.647        9.759      858.743
03/06/2014  05:30:00     -491.811     -200.025      -26.352      308.182      257.137      127.688    94976.259    66119.503    16304.128       22.996        8.870      530.931      147.355        0.077      337.694        9.839      858.812
03/06/2014  05:31:00     -490.372     -219.409       -2.299      334.300      212.620      121.599   111756.707    45207.476    14786.263       23.015        8.588      537.220      152.313        0.080      337.683        9.819      858.829
03/06/2014  05:32:00     -707.183     -281.166      -22.231      275.628      265.129      126.394    75970.647    70293.577    15975.481       37.092        8.112      761.028      123.450        0.026      337.682        9.819      858.858
03/06/2014  05:33:00     -631.798     -289.479      -15.886      351.015      240.581      113.465   123211.786    57879.294    12874.379       33.856        9.698      694.958      136.345        0.038      337.688        9.827      858.885
03/06/2014  05:34:00     -604.321     -201.992      -25.335      274.063      285.229      141.571    75110.478    81355.380    20042.217       29.155        8.825      637.185      138.531        0.047      337.665        9.790      858.979
03/06/2014  05:35:00     -664.591     -234.668      -12.423      335.106      269.107      130.856   112296.127    72418.399    17123.180       34.934       10.092      704.805      165.059        0.055      337.676        9.808      859.026
03/06/2014  05:36:00     -589.489     -258.607      -28.114      231.473      216.933      106.872    53579.879    47060.074    11421.529       26.359        5.603      643.720       98.223        0.023      337.667        9.794      859.069
03/06/2014  05:37:00     -219.440      -81.153       19.689      221.621      170.990       91.991    49115.938    29237.734     8462.325        7.096        4.341      233.965       96.153        0.169      337.624        9.721      859.163
03/06/2014  05:38:00     -369.106     -204.856      -23.856      201.059      244.462      108.285    40424.719    59761.627    11725.615       14.532        5.596      422.144       90.163        0.046      337.631        9.731      859.178
03/06/2014  05:39:00     -302.140     -320.467        7.551      271.667      226.722      110.990    73803.015    51403.019    12318.677       16.576        6.876      440.440      129.997        0.087      337.630        9.730      859.208
03/06/2014  05:40:00     -309.661     -123.948       12.901      236.318      190.553       86.151    55845.969    36310.461     7421.911       10.548        4.979      333.547      113.517        0.116      337.616        9.708      859.299
03/06/2014  05:41:00     -570.078     -429.790      -38.794      336.882      288.643      162.432   113489.783    83314.504    26384.028       36.716       11.159      713.939      147.833        0.043      337.630        9.732      859.266
03/06/2014  05:42:00     -730.193     -268.702      -39.231      389.325      326.518      150.139   151573.835   106614.330    22541.707       44.378       14.036      778.063      193.619        0.062      337.643        9.752      859.321
03/06/2014  05:43:00     -479.498     -111.678       -4.002      268.153      231.971      110.712    71906.242    53810.535    12257.046       19.017        6.899      492.332      108.384        0.048      337.626        9.724      859.373
03/06/2014  05:44:00     -416.393      -78.282       -9.111      289.159      226.041      109.665    83612.834    51094.717    12026.389       16.314        7.337      423.688      110.157        0.068      337.632        9.735      859.469
03/06/2014  05:45:00     -443.182     -348.506        6.336      292.332      227.686      133.480    85458.180    51841.011    17816.879       23.649        7.756      563.797      154.924        0.076      337.623        9.721      859.465
03/06/2014  05:46:00     -388.555     -237.004      -36.243      204.362      169.350       81.469    41763.975    28679.505     6637.162       14.276        3.854      455.132       66.640        0.021      337.631        9.734      859.548
03/06/2014  05:47:00     -153.189      -23.883       27.264      132.365      124.914       67.957    17520.454    15603.396     4618.133        3.126        1.887      155.040       73.120        0.222      337.589        9.665      859.602
03/06/2014  05:48:00     -126.070      -77.090       -3.632      137.874      143.028       58.517    19009.365    20457.002     3424.265        3.236        2.145      147.771       75.181        0.259      337.596        9.675      859.617
03/06/2014  05:49:00     -263.954     -173.138       13.344      234.605      129.040       89.520    55039.625    16651.315     8013.801        8.975        3.985      315.671       70.294        0.050      337.582        9.650      859.662
03/06/2014  05:50:00     -163.995      -89.877       16.155      146.454      122.367       59.160    21448.647    14973.615     3499.916        3.757        1.996      187.009       64.962        0.121      337.566        9.625      859.642
03/06/2014  05:51:00      -97.715      -50.737        8.400      102.083       59.746       45.026    10420.868     3569.606     2027.312        1.410        0.801      110.102       52.986        0.232      337.559        9.614      859.688
03/06/2014  05:52:00     -500.248     -185.977      -27.021      223.422      197.613       91.230    49917.409    39050.712     8322.913       19.141        4.865      533.700       95.323        0.032      337.575        9.637      859.700
03/06/2014  05:53:00     -421.287     -186.309      -20.559      278.690      201.179       91.211    77667.928    40472.951     8319.485       16.952        6.323      460.644      117.873        0.065      337.578        9.643      859.720
03/06/2014  05:54:00     -158.015     -161.335        1.782      141.922       93.414       68.527    20141.792     8726.123     4695.882        4.228        1.678      225.827       73.516        0.106      337.566        9.625      859.695
03/06/2014  05:55:00     -481.672     -110.860        6.830      221.563      203.031       91.347    49089.997    41221.502     8344.319       17.148        4.933      494.266      102.285        0.043      337.568        9.626      859.701
03/06/2014  05:56:00     -197.490      -66.308        6.339      194.192      150.740       65.429    37710.529    22722.692     4280.997        5.407        3.236      208.324       74.209        0.127      337.545        9.588      859.748
03/06/2014  05:57:00     -132.860     -153.922       20.446      179.425      101.141       66.620    32193.266    10229.502     4438.184        4.430        2.343      203.331       70.962        0.122      337.576        9.642      859.714
03/06/2014  05:58:00     -284.946      -80.994       -8.094      169.555      120.172       89.906    28748.813    14441.205     8083.143        6.954        2.564      296.233       94.642        0.102      337.526        9.557      859.731
03/06/2014  05:59:00     -104.241      -22.358       13.573       90.791       82.136       51.140     8242.989     6746.387     2615.260        1.457        0.880      106.612       53.337        0.250      337.498        9.510      859.695
03/06/2014  06:00:00     -185.420     -129.558       -6.976      131.193      123.580       56.489    17211.635    15272.105     3190.985        4.344        1.784      226.199       51.394        0.052      337.554        9.603      859.719
03/06/2014  06:01:00     -232.187      -42.844        5.152      197.025      115.499       73.673    38818.790    13339.961     5427.662        5.667        2.879      236.107       97.363        0.170      337.512        9.534      859.766
03/06/2014  06:02:00     -186.247     -144.633       14.807      143.805      177.156       57.268    20679.926    31384.300     3279.673        5.558        2.767      235.811       73.473        0.097      337.507        9.524      859.762
03/06/2014  06:03:00     -124.961       12.737       14.477      102.767       73.459       39.900    10561.127     5396.293     1591.995        1.677        0.877      125.608       42.274        0.113      337.471        9.467      859.756
03/06/2014  06:04:00      -81.270      -53.624       11.842       89.462       74.545       53.979     8003.479     5557.002     2913.771        1.304        0.824       97.367       41.525        0.182      337.470        9.464      859.794
03/06/2014  06:05:00     -145.036     -209.420        6.908      120.118      135.268       70.392    14428.363    18297.359     4955.065        5.130        1.884      254.739       70.625        0.077      337.550        9.595      859.821
03/06/2014  06:06:00     -266.760     -175.639        1.341      167.228      128.262       85.739    27965.342    16451.158     7351.139        7.688        2.588      319.390       86.963        0.074      337.556        9.605      859.748
03/06/2014  06:07:00     -137.742     -127.481        0.089      130.333      165.576       60.762    16986.708    27415.398     3692.005        4.165        2.405      187.681       58.220        0.096      337.555        9.605      859.777
03/06/2014  06:08:00      -83.257     -107.249       12.444      117.928      141.726       65.770    13907.029    20086.198     4325.663        2.845        1.916      135.772       40.749        0.090      337.528        9.560      859.821
03/06/2014  06:09:00     -165.135      -53.203      -16.151      127.629       83.421       54.325    16289.122     6959.070     2951.173        2.828        1.310      173.494       69.451        0.160      337.532        9.566      859.742
03/06/2014  06:10:00     -172.566      -62.663      -28.400      120.754      122.402       66.387    14581.516    14982.353     4407.226        3.424        1.699      183.590       60.384        0.108      337.501        9.514      859.707
03/06/2014  06:11:00     -114.995       -8.655       -3.742       78.486       51.799       28.926     6160.103     2683.173      836.700        1.149        0.484      115.320       37.001        0.103      337.415        9.372      859.718
03/06/2014  06:12:00     -139.470     -151.095       -7.844      148.571      127.874       67.673    22073.276    16351.882     4579.687        4.267        2.150      205.625       50.408        0.060      337.552        9.599      859.673
03/06/2014  06:13:00     -256.440     -130.260      -10.840      136.809      101.173       71.271    18716.663    10235.880     5079.522        5.843        1.702      287.627       73.191        0.065      337.545        9.587      859.609
03/06/2014  06:14:00     -244.834      -28.113       -7.072      112.319      133.408       54.030    12615.504    17797.723     2919.214        4.705        1.667      246.443       43.838        0.032      337.482        9.483      859.630
03/06/2014  06:15:00      -91.876       12.571        6.828      101.931       70.042       50.131    10389.880     4905.895     2513.122        1.322        0.890       92.732       45.612        0.242      337.439        9.412      859.586
03/06/2014  06:16:00      -43.233      -28.479       26.795       81.099       54.825       37.277     6577.105     3005.728     1389.580        0.718        0.549       51.770       33.477        0.418      337.432        9.402      859.545
03/06/2014  06:17:00       -5.753      -46.575      -14.561       51.185       43.074       32.663     2619.920     1855.404     1066.845        0.398        0.277       46.929       28.935        0.380      337.490        9.499      859.551
03/06/2014  06:18:00      -97.265      -23.066       -7.910       71.122       48.138       25.670     5058.341     2317.246      658.955        0.904        0.402       99.962       30.213        0.091      337.465        9.456      859.527
03/06/2014  06:19:00     -143.958      -33.418        4.156       76.601       53.930       37.374     5867.717     2908.463     1396.816        1.601        0.509      147.785       26.930        0.033      337.497        9.510      859.488
03/06/2014  06:20:00       24.250       14.628       43.645       65.493       67.025       44.847     4289.371     4492.314     2011.244        0.675        0.540       28.320       50.442        3.172      337.447        9.427      859.446
03/06/2014  06:21:00      -57.693       24.102        5.605       54.240       38.362       36.465     2941.986     1471.672     1329.683        0.484        0.287       62.525       33.665        0.290      337.491        9.501      859.413
03/06/2014  06:22:00       24.988       79.223       72.166       35.637       58.904       50.635     1269.984     3469.632     2563.857        0.970        0.365       83.071       47.908        0.333      337.411        9.366      859.381
03/06/2014  06:23:00      -72.149      -88.978        0.948       66.541       71.579       44.146     4427.644     5123.605     1948.855        1.231        0.575      114.554       33.932        0.088      337.588        9.664      859.376
03/06/2014  06:24:00     -102.455        1.628       -1.271       65.397       58.922       21.899     4276.740     3471.743      479.558        0.936        0.411      102.468        7.053        0.005      337.533        9.569      859.365
03/06/2014  06:25:00     -115.612      -94.018       -2.797       62.948       47.891       29.913     3962.430     2293.529      894.761        1.468        0.358      149.015       28.185        0.036      337.540        9.583      859.369
03/06/2014  06:26:00     -162.347      -15.589       -8.183       61.709       39.053       32.727     3808.017     1525.106     1071.084        1.653        0.320      163.093       31.481        0.037      337.563        9.621      859.388
03/06/2014  06:27:00      -90.230      -85.060       -4.229       85.666       35.856       20.986     7338.609     1285.672      440.427        1.223        0.453      124.002       25.210        0.041      337.661        9.787      859.396
03/06/2014  06:28:00       11.068       36.782        2.646       27.950       36.778       23.867      781.180     1352.655      569.619        0.209        0.135       38.411       12.579        0.107      337.558        9.614      859.403
03/06/2014  06:29:00      -49.160        7.449       -5.795       39.526       26.565       22.511     1562.290      705.698      506.739        0.264        0.139       49.721       22.973        0.213      337.547        9.595      859.400
03/06/2014  06:30:00       37.275       81.448       -4.081       24.686       34.997       31.377      609.399     1224.772      984.527        0.543        0.141       89.572       27.642        0.095      337.424        9.388      859.402
03/06/2014  06:31:00       26.054       42.406       -6.788       37.431       45.095       27.201     1401.047     2033.529      739.885        0.335        0.209       49.771       24.183        0.236      337.377        9.310      859.408
03/06/2014  06:32:00      -70.358       66.144      -17.119       26.454       44.318       18.375      699.810     1964.099      337.653        0.631        0.150       96.567       14.429        0.022      337.448        9.427      859.446
03/06/2014  06:33:00      -93.108       54.293      -10.838       41.453       31.467       22.833     1718.369      990.172      521.326        0.748        0.161      107.782       13.289        0.015      337.520        9.550      859.459
03/06/2014  06:34:00      -97.127       45.923       -7.924       37.881       44.097       23.513     1434.942     1944.526      552.879        0.777        0.197      107.436       17.291        0.026      337.435        9.406      859.500
03/06/2014  06:35:00     -105.997       92.734      -20.377       49.971       45.444       28.408     2497.073     2065.145      807.020        1.281        0.268      140.837       27.297        0.038      337.419        9.381      859.503
03/06/2014  06:36:00      -82.558        8.943       -4.889       34.392       49.720       26.153     1182.805     2472.117      684.005        0.563        0.217       83.041       18.382        0.049      337.432        9.400      859.561
03/06/2014  06:37:00     -122.940       58.646      -13.305       39.078       33.083       23.802     1527.084     1094.504      566.542        1.096        0.159      136.212       16.574        0.015      337.342        9.251      859.637
03/06/2014  06:38:00     -112.406      -23.935       -7.913       34.542       29.773       22.117     1193.121      886.454      489.143        0.792        0.128      114.926       17.487        0.023      337.251        9.100      859.719
03/06/2014  06:39:00      -79.061      -20.857       -4.053       37.244       30.733       21.327     1387.142      944.545      454.848        0.474        0.139       81.766        7.227        0.008      337.215        9.042      859.750
03/06/2014  06:40:00     -116.892      -41.667      -14.345       42.179       57.856       27.392     1779.065     3347.315      750.322        1.074        0.294      124.096       11.787        0.009      337.194        9.004      859.779
03/06/2014  06:41:00     -171.135      -28.713      -23.864       60.452       74.583       31.211     3654.476     5562.626      974.108        2.043        0.510      173.527       29.609        0.029      337.153        8.934      859.823
03/06/2014  06:42:00     -217.053      -35.940      -37.548       72.868       54.712       34.778     5309.768     2993.393     1209.534        2.966        0.476      220.009       26.851        0.015      337.171        8.962      859.832
03/06/2014  06:43:00     -420.323      -16.920      -28.084      112.659      106.710       61.207    12692.142    11386.953     3746.354       10.278        1.391      420.663       51.774        0.015      337.281        9.148      859.824
03/06/2014  06:44:00     -336.920     -113.575       -2.723      145.265       83.772       54.121    21101.809     7017.720     2929.064        7.873        1.552      355.548       58.804        0.027      337.256        9.104      859.828
03/06/2014  06:45:00     -282.654     -114.905       -5.244      153.166      112.377       52.513    23459.921    12628.513     2757.633        6.598        1.942      305.117       51.823        0.029      337.320        9.212      859.864
03/06/2014  06:46:00     -292.850      -39.923      -12.093      132.975      103.189       59.459    17682.300    10648.035     3535.326        5.968        1.593      295.559       75.630        0.065      337.314        9.202      859.876
03/06/2014  06:47:00     -292.651      -26.415      -29.370       68.068       75.259       51.500     4633.238     5663.880     2652.270        5.008        0.647      293.841       40.364        0.019      337.343        9.249      859.871
03/06/2014  06:48:00     -298.014     -105.516      -16.264       90.933       96.060       41.212     8268.825     9227.468     1698.397        5.970        0.960      316.143       34.504        0.012      337.346        9.253      859.886
03/06/2014  06:49:00     -275.981      -68.476       -0.229      129.871      121.016       52.241    16866.375    14644.986     2729.107        5.754        1.712      284.349       52.668        0.034      337.320        9.212      859.912
03/06/2014  06:50:00     -202.982     -102.192        6.573      119.999       90.889       50.217    14399.768     8260.722     2521.744        3.843        1.259      227.255       48.336        0.045      337.332        9.230      859.960
03/06/2014  06:51:00     -285.363      -45.921       -2.771      134.584       77.873       49.814    18112.775     6064.251     2481.394        5.510        1.333      289.034       61.761        0.046      337.306        9.188      859.985
03/06/2014  06:52:00     -240.943     -104.237        6.221      178.496      147.752       66.181    31860.856    21830.614     4379.989        6.350        2.904      262.524       75.726        0.083      337.327        9.224      859.946
03/06/2014  06:53:00     -171.562      -74.760       21.318      199.537      164.171       75.305    39815.075    26952.176     5670.841        5.395        3.622      187.143       82.221        0.193      337.386        9.322      859.873
03/06/2014  06:54:00     -181.828     -111.321       -0.320      172.938      119.107       94.934    29907.694    14186.438     9012.406        4.927        2.655      213.199      108.567        0.259      337.380        9.312      859.910
03/06/2014  06:55:00     -343.878      -72.562       -6.090      215.807      122.053       68.050    46572.743    14897.007     4630.771        9.482        3.305      351.450       67.445        0.037      337.387        9.324      859.951
03/06/2014  06:56:00     -281.325     -152.859        1.735      160.826      125.511       71.326    25864.863    15753.014     5087.417        7.460        2.335      320.172       69.440        0.047      337.415        9.369      859.976
03/06/2014  06:57:00     -226.264      -51.738        6.825      135.095      139.262       73.037    18250.669    19393.821     5334.416        4.844        2.149      232.104       68.306        0.087      337.397        9.341      859.982
03/06/2014  06:58:00     -369.620     -119.391        1.373      186.721      137.358       81.030    34864.591    18867.221     6565.938       10.558        3.015      388.424       72.242        0.035      337.431        9.397      859.974
03/06/2014  06:59:00     -302.935     -222.556       -8.609      144.319      130.761       82.304    20827.967    17098.458     6774.021        9.303        2.235      375.900       80.167        0.045      337.455        9.437      860.012
03/06/2014  07:00:00     -250.875     -141.244        2.612      146.958       93.024       62.209    21596.640     8653.541     3869.960        5.850        1.706      287.903       72.399        0.063      337.461        9.448      860.037
03/06/2014  07:01:00     -304.162     -178.145      -13.420      158.569      103.970       51.185    25144.171    10809.734     2619.950        8.150        1.929      352.491       48.083        0.019      337.489        9.494      860.011
03/06/2014  07:02:00     -230.822     -170.649      -10.461      141.281       81.430       56.315    19960.184     6630.820     3171.392        5.613        1.488      287.054       44.879        0.024      337.527        9.559      859.974
03/06/2014  07:03:00     -143.913      -88.796       -1.269       88.084       86.748       42.684     7758.791     7525.274     1821.960        2.285        0.855      169.103       43.166        0.065      337.482        9.484      859.977
03/06/2014  07:04:00     -283.936     -126.594      -15.298       98.084       91.059       44.016     9620.514     8291.672     1937.438        5.836        0.992      310.879       31.556        0.010      337.479        9.476      860.025
03/06/2014  07:05:00     -175.028      -71.710       -1.297       93.650       86.596       51.997     8770.256     7498.786     2703.721        2.737        0.949      189.149       50.241        0.071      337.504        9.519      860.053
03/06/2014  07:06:00     -176.708      -84.547      -12.772       78.948       54.496       39.867     6232.756     2969.793     1589.350        2.466        0.540      195.892       42.680        0.047      337.499        9.511      860.091
03/06/2014  07:07:00     -218.610     -115.872      -16.284      105.410       94.869       52.952    11111.309     9000.174     2803.915        4.219        1.146      247.421       36.092        0.021      337.490        9.495      860.099
03/06/2014  07:08:00     -222.815     -109.150       -9.914       94.626       83.403       39.580     8954.020     6956.092     1566.599        3.956        0.874      248.113       42.728        0.030      337.531        9.565      860.089
03/06/2014  07:09:00     -235.920      -62.865        7.030      109.701       84.299       51.210    12034.343     7106.249     2622.422        4.071        1.088      244.152       60.469        0.061      337.546        9.588      860.087
03/06/2014  07:10:00     -166.683     -121.244       20.112      120.247      107.610       56.657    14459.439    11579.826     3210.035        3.606        1.462      206.115       62.967        0.093      337.552        9.601      860.131
03/06/2014  07:11:00     -116.679     -158.598       13.465      124.838      108.209       53.606    15584.409    11709.272     2873.635        3.455        1.508      196.894       58.565        0.088      337.551        9.599      860.150
03/06/2014  07:12:00      -41.128     -132.000        1.900       51.933       52.138       39.260     2697.055     2718.345     1541.381        1.304        0.348      138.259       29.676        0.046      337.570        9.634      860.185
03/06/2014  07:13:00      -19.202     -160.938       -0.416      121.081       99.482       64.686    14660.502     9896.746     4184.316        2.750        1.437      162.079       51.002        0.099      337.719        9.881      860.180
03/06/2014  07:14:00       93.979     -123.264       47.507      137.959      110.107       66.756    19032.569    12123.609     4456.322        3.094        1.781      155.004       68.507        0.195      337.790       10.000      860.142
03/06/2014  07:15:00       -3.004      -40.133       43.519       63.438       60.927       39.218     4024.393     3712.113     1538.078        0.639        0.464       40.245       21.044        0.273      337.696        9.844      860.089
03/06/2014  07:16:00       91.405     -201.618      -14.364      125.342      138.500       58.326    15710.722    19182.197     3401.927        4.375        1.915      221.369       73.040        0.109      337.877       10.144      860.102
03/06/2014  07:17:00      -51.627      -83.411       -1.301       91.512       78.575       49.336     8374.367     6174.092     2433.996        1.330        0.849       98.096       45.069        0.211      337.752        9.937      860.130
03/06/2014  07:18:00      -15.972      -46.376        4.408       63.106       56.227       35.179     3982.409     3161.510     1237.587        0.540        0.419       49.049       28.220        0.331      337.795       10.011      860.180
03/06/2014  07:19:00      -44.667      -47.770       10.593       69.096       56.701       28.901     4774.295     3214.964      835.243        0.661        0.441       65.399       24.086        0.136      337.842       10.088      860.204
03/06/2014  07:20:00     -112.478     -146.320      -12.232       61.760       53.340       29.721     3814.356     2845.190      883.352        2.088        0.377      184.556       22.301        0.015      337.796       10.012      860.246
03/06/2014  07:21:00     -163.491     -111.214        5.001       76.221       46.958       41.697     5809.689     2205.039     1738.639        2.444        0.488      197.732       34.872        0.031      337.731        9.901      860.274
03/06/2014  07:22:00     -164.090     -137.926        0.971      109.117       69.500       44.518    11906.566     4830.200     1981.854        3.233        0.936      214.357       40.978        0.037      337.721        9.883      860.319
03/06/2014  07:23:00     -220.464      -82.868       -1.053      102.519      100.181       52.474    10510.233    10036.150     2753.522        3.938        1.165      235.524       51.712        0.048      337.639        9.745      860.295
03/06/2014  07:24:00     -293.463      -84.202        3.497      118.039       99.346       57.764    13933.185     9869.635     3336.653        6.018        1.357      305.304       60.467        0.039      337.647        9.759      860.252
03/06/2014  07:25:00     -172.326     -110.606        8.395       79.133      105.360       48.515     6261.962    11100.642     2353.689        3.085        0.986      204.768       39.867        0.038      337.632        9.735      860.285
03/06/2014  07:26:00     -113.614     -105.035        4.602       57.702       69.989       44.021     3329.542     4898.495     1937.814        1.706        0.508      154.727       29.048        0.035      337.676        9.809      860.277
03/06/2014  07:27:00      -99.397     -133.070       -1.052       45.059       61.092       27.858     2030.298     3732.191      776.089        1.706        0.327      166.094       21.081        0.016      337.672        9.804      860.254
03/06/2014  07:28:00     -105.093     -104.166        4.307       62.962       53.716       36.244     3964.180     2885.437     1313.620        1.504        0.408      147.970       29.952        0.041      337.647        9.763      860.226
03/06/2014  07:29:00      -86.912      -65.681        8.572       48.236       38.306       29.943     2326.684     1467.356      896.560        0.832        0.235      108.939       28.430        0.068      337.649        9.765      860.204
03/06/2014  07:30:00     -120.790     -132.995       -2.394       69.483       36.472       33.864     4827.823     1330.176     1146.803        1.979        0.365      179.660       36.003        0.040      337.667        9.794      860.230
03/06/2014  07:31:00     -120.060     -165.391       15.300       92.977       90.844       45.483     8644.750     8252.574     2068.674        3.048        0.948      204.374       46.430        0.052      337.697        9.845      860.256
03/06/2014  07:32:00     -205.658     -128.418        8.020       75.584       72.972       48.361     5713.001     5324.862     2338.749        3.611        0.669      242.458       44.903        0.034      337.698        9.844      860.277
03/06/2014  07:33:00     -170.748     -129.950       -2.925       92.805       58.967       39.121     8612.834     3477.070     1530.426        2.983        0.681      214.574       44.152        0.042      337.701        9.850      860.279
03/06/2014  07:34:00     -162.754     -122.170        7.251       88.651       64.553       42.925     7858.960     4167.045     1842.550        2.767        0.693      203.505       46.694        0.053      337.714        9.871      860.289
03/06/2014  07:35:00     -173.627     -147.464       -7.988       88.529       72.463       44.767     7837.408     5250.893     2004.119        3.352        0.755      227.798       39.312        0.030      337.740        9.914      860.270
03/06/2014  07:36:00     -155.508     -169.748       -6.135       57.361       61.830       34.546     3290.338     3823.003     1193.392        3.067        0.415      230.211       32.539        0.020      337.742        9.918      860.249
03/06/2014  07:37:00     -142.947      -95.098        8.042       95.686       59.587       34.276     9155.767     3550.569     1174.836        2.171        0.694      171.690       40.113        0.055      337.750        9.933      860.275
03/06/2014  07:38:00     -102.534      -80.406       10.593       79.011       65.348       44.928     6242.707     4270.374     2018.523        1.481        0.627      130.302       43.101        0.109      337.773        9.973      860.324
03/06/2014  07:39:00     -129.315      -92.239        5.888       83.301       58.155       35.848     6939.085     3382.006     1285.074        1.843        0.580      158.841       39.893        0.063      337.782        9.987      860.327
03/06/2014  07:40:00     -146.795     -146.617      -12.583       66.601       55.951       35.043     4435.682     3130.562     1228.009        2.600        0.440      207.473       26.853        0.017      337.787        9.995      860.316
03/06/2014  07:41:00     -103.138      -82.063       -1.775       79.912       57.910       35.773     6385.983     3353.517     1279.682        1.420        0.551      131.802       42.769        0.105      337.773        9.974      860.294
03/06/2014  07:42:00     -164.448      -94.082       -2.036      111.344       62.114       36.862    12397.542     3858.131     1358.796        2.675        0.881      189.459       44.877        0.056      337.797       10.011      860.258
03/06/2014  07:43:00     -206.712      -47.242        2.426       96.825       73.896       47.015     9375.115     5460.593     2210.445        3.100        0.852      212.042       42.168        0.040      337.815       10.042      860.241
03/06/2014  07:44:00     -256.672      -76.347       -3.538       92.697       70.746       45.337     8592.758     5005.035     2055.434        4.368        0.783      267.786       37.399        0.020      337.865       10.123      860.263
03/06/2014  07:45:00     -228.858     -126.882        1.100      106.097       67.913       43.593    11256.610     4612.124     1900.358        4.312        0.888      261.677       44.640        0.029      337.824       10.055      860.261
03/06/2014  07:46:00     -206.648      -50.630       -0.058       95.293       82.936       50.916     9080.801     6878.408     2592.486        3.191        0.928      212.760       53.167        0.062      337.821       10.051      860.261
03/06/2014  07:47:00     -176.077      -30.345        3.002       91.484       57.498       45.835     8369.297     3305.971     2100.803        2.285        0.689      178.672       47.826        0.072      337.812       10.037      860.267
03/06/2014  07:48:00     -151.669      -22.623        3.940       52.019       47.246       30.015     2705.968     2232.179      900.903        1.468        0.292      153.347       21.827        0.020      337.834       10.075      860.259
03/06/2014  07:49:00     -143.649      -57.077       -6.297       47.229       50.131       31.710     2230.579     2513.086     1005.499        1.484        0.287      154.573       25.460        0.027      337.848       10.099      860.243
03/06/2014  07:50:00      -91.310      -62.238        8.370       50.398       32.041       24.758     2539.997     1026.637      612.964        0.823        0.209      110.504       23.651        0.046      337.866       10.129      860.223
03/06/2014  07:51:00     -134.002     -123.688       -8.859       67.760       74.215       41.231     4591.357     5507.843     1699.983        2.256        0.590      182.361       41.103        0.051      337.861       10.119      860.215
03/06/2014  07:52:00     -143.747     -112.975       -1.693       75.867       68.912       37.244     5755.742     4748.908     1387.094        2.266        0.595      182.829       28.819        0.025      337.851       10.101      860.215
03/06/2014  07:53:00      -99.638      -97.374       -2.577       68.503       60.358       31.654     4692.671     3643.031     1001.945        1.438        0.467      139.318       35.215        0.064      337.846       10.093      860.192
03/06/2014  07:54:00      -44.042      -79.150       -0.901       39.224       39.887       23.492     1538.488     1591.002      551.895        0.594        0.184       90.578       19.023        0.044      337.865       10.128      860.181
03/06/2014  07:55:00      -93.932      -95.334       -6.262       47.045       41.504       27.801     2213.244     1722.567      772.914        1.133        0.235      133.835       22.416        0.028      337.862       10.124      860.183
03/06/2014  07:56:00      -95.595     -106.367        5.575       68.801       61.163       41.740     4733.600     3740.958     1742.206        1.535        0.511      143.012       44.188        0.095      337.863       10.125      860.203
03/06/2014  07:57:00      -93.884      -81.831        0.170       63.252       65.422       34.890     4000.858     4280.053     1217.308        1.250        0.475      124.541       28.119        0.051      337.850       10.105      860.192
03/06/2014  07:58:00      -34.693     -156.750       -1.701       66.644       75.924       30.292     4441.398     5764.386      917.600        1.845        0.556      160.543       19.225        0.014      337.894       10.175      860.212
03/06/2014  07:59:00      -23.557      -77.089        1.847       65.817       56.444       30.646     4331.932     3185.898      939.181        0.748        0.423       80.608       14.323        0.032      338.030       10.405      860.210
03/06/2014  08:00:00      -27.477      -49.728        2.680       55.202       45.529       28.231     3047.302     2072.886      796.963        0.458        0.296       56.815       26.781        0.222      338.026       10.399      860.240
03/06/2014  08:01:00       -4.627     -147.785        8.470      118.808      102.084       56.597    14115.223    10421.195     3203.214        2.483        1.387      147.858       42.166        0.081      338.075       10.479      860.267
03/06/2014  08:02:00      -37.765      -95.297        7.935       79.765       72.104       52.285     6362.520     5198.925     2733.719        1.243        0.715      102.507       35.458        0.120      338.096       10.515      860.285
03/06/2014  08:03:00      -52.963      -76.926       -7.747       70.332       69.624       38.438     4946.544     4847.534     1477.504        1.003        0.564       93.395       34.263        0.135      338.094       10.512      860.295
03/06/2014  08:04:00      -24.494      -85.724       18.668       80.516       80.874       41.431     6482.804     6540.681     1716.535        1.152        0.737       89.155       42.165        0.224      338.114       10.545      860.294
03/06/2014  08:05:00      -54.717      -96.696        8.534       90.638       73.375       47.652     8215.200     5383.868     2270.754        1.414        0.793      111.104       47.553        0.183      338.139       10.587      860.303
03/06/2014  08:06:00      -19.092      -47.234       -0.051       42.515       55.325       46.128     1807.563     3060.863     2127.827        0.479        0.350       50.947       28.515        0.313      338.199       10.687      860.288
03/06/2014  08:07:00      -55.619     -114.237       -5.149       57.429       81.597       47.199     3298.094     6658.067     2227.727        1.417        0.609      127.057       32.186        0.064      338.173       10.642      860.287
03/06/2014  08:08:00      -66.150      -63.373        7.222       61.267       43.040       34.501     3753.650     1852.434     1190.285        0.762        0.340       91.607       24.172        0.070      338.174       10.646      860.306
03/06/2014  08:09:00      -88.266      -82.202       -8.702       87.637       60.645       35.686     7680.181     3677.813     1273.462        1.363        0.632      120.615       27.848        0.053      338.182       10.657      860.320
03/06/2014  08:10:00     -196.288     -228.595       -3.726       84.335      121.715       58.428     7112.317    14814.470     3413.825        5.807        1.267      301.305       55.381        0.034      338.075       10.478      860.330
03/06/2014  08:11:00     -107.502     -117.838       -4.187       71.769       73.800       40.308     5150.741     5446.479     1624.717        1.884        0.611      159.507       31.320        0.039      338.154       10.612      860.310
03/06/2014  08:12:00      -43.931      -40.531        6.078       54.703       56.875       36.334     2992.372     3234.808     1320.193        0.558        0.377       59.772       31.757        0.282      338.150       10.605      860.323
03/06/2014  08:13:00     -145.454      -88.392        2.300      130.891       63.471       40.308    17132.451     4028.530     1624.742        2.588        1.139      170.206       55.103        0.105      338.168       10.634      860.316
03/06/2014  08:14:00      -98.264     -147.180      -10.353       43.989       68.312       32.810     1935.012     4666.543     1076.504        1.955        0.384      176.968       24.279        0.019      338.134       10.577      860.297
03/06/2014  08:15:00      -71.196      -60.707       -5.182       33.524       56.534       20.782     1123.841     3196.120      431.886        0.677        0.238       93.564       18.149        0.038      338.165       10.631      860.282
03/06/2014  08:16:00      -74.551     -104.638       -1.873       72.387       58.006       34.241     5239.845     3364.728     1172.413        1.314        0.489      128.479       30.064        0.055      338.215       10.715      860.280
03/06/2014  08:17:00      -35.871      -82.868       13.695       43.278       49.858       33.501     1872.954     2485.823     1122.309        0.691        0.274       90.298       24.426        0.073      338.284       10.831      860.284
03/06/2014  08:18:00      -56.885      -64.133       11.783       74.950       45.985       30.984     5617.465     2114.630      960.037        0.809        0.435       85.726       36.548        0.182      338.309       10.872      860.267
03/06/2014  08:19:00      -65.669      -85.636       12.473       68.516       54.193       38.380     4694.384     2936.916     1473.023        1.045        0.455      107.916       36.420        0.114      338.281       10.827      860.237
03/06/2014  08:20:00      -86.633      -83.591       -6.255       47.404       40.275       26.915     2247.151     1622.069      724.417        0.956        0.230      120.386       23.104        0.037      338.312       10.878      860.230
03/06/2014  08:21:00      -76.826      -30.251        4.524       60.052       56.202       34.503     3606.280     3158.694     1190.468        0.740        0.398       82.567       34.159        0.171      338.388       11.006      860.216
03/06/2014  08:22:00     -263.197     -154.176       -4.262      129.947       90.530       53.801    16886.261     8195.762     2894.598        6.051        1.399      305.029       53.838        0.031      338.271       10.807      860.214
03/06/2014  08:23:00     -294.303     -110.203       -6.710       94.809       92.178       47.686     8988.731     8496.763     2273.968        5.928        0.988      314.259       47.020        0.022      338.206       10.695      860.208
03/06/2014  08:24:00     -234.754      -32.538        1.864      104.896       75.426       54.271    11003.180     5689.099     2945.292        3.790        0.982      236.998       57.816        0.060      338.267       10.798      860.215
03/06/2014  08:25:00     -237.962      -32.799        3.790      119.736       89.856       62.710    14336.691     8074.083     3932.571        4.203        1.317      240.212       65.486        0.074      338.273       10.809      860.226
03/06/2014  08:26:00     -194.614      -94.978      -18.288       91.661       63.874       36.329     8401.726     4079.899     1319.826        3.051        0.690      216.553       24.751        0.013      338.282       10.827      860.243
03/06/2014  08:27:00     -169.762     -114.404        8.712      110.660      107.998       68.456    12245.621    11663.648     4686.190        3.528        1.430      204.713       64.904        0.101      338.272       10.808      860.257
03/06/2014  08:28:00     -123.746     -178.056       -7.571       96.382       95.869       41.679     9289.454     9190.836     1737.116        3.364        1.011      216.834       42.845        0.039      338.208       10.701      860.243
03/06/2014  08:29:00     -156.509      -98.274       -5.893       78.550       73.325       38.216     6170.105     5376.524     1460.487        2.360        0.650      184.805       33.182        0.032      338.273       10.810      860.271
03/06/2014  08:30:00      -96.073      -64.958       18.727       88.634       59.018       42.047     7855.963     3483.114     1767.930        1.345        0.655      115.972       53.507        0.213      338.416       11.052      860.284
03/06/2014  08:31:00     -208.362      -65.522       -6.301       90.799       58.708       44.072     8244.482     3446.669     1942.323        3.069        0.682      218.421       48.512        0.049      338.335       10.914      860.261
03/06/2014  08:32:00     -148.802     -104.766       -4.156       76.813       84.629       41.990     5900.293     7162.112     1763.189        2.398        0.741      181.983       41.137        0.051      338.288       10.834      860.259
03/06/2014  08:33:00     -145.545      -85.559       -3.283       73.925       78.603       39.943     5464.960     6178.498     1595.410        2.087        0.662      168.831       34.158        0.041      338.335       10.915      860.270
03/06/2014  08:34:00     -216.144     -119.458       -2.108       94.574       77.597       43.440     8944.227     6021.333     1887.049        3.892        0.843      246.958       41.004        0.028      338.324       10.897      860.294
03/06/2014  08:35:00     -247.504     -165.201      -15.394      110.860       91.421       45.517    12289.924     8357.746     2071.794        5.575        1.136      297.573       41.282        0.019      338.278       10.817      860.291
03/06/2014  08:36:00     -149.366     -161.132       -5.741       81.904       65.106       39.972     6708.238     4238.756     1597.734        3.042        0.627      219.713       36.868        0.028      338.334       10.913      860.308
03/06/2014  08:37:00     -164.977     -116.945      -12.485       91.218       59.378       46.178     8320.658     3525.718     2132.372        2.751        0.699      202.221       47.310        0.055      338.275       10.814      860.322
03/06/2014  08:38:00     -124.033      -87.893      -10.086       76.872       70.914       33.045     5909.285     5028.769     1091.946        1.762        0.601      152.017       18.412        0.015      338.238       10.753      860.326
03/06/2014  08:39:00      -85.763     -114.388       -2.167       69.573       92.300       36.810     4840.459     8519.210     1354.971        1.758        0.736      142.968       34.552        0.058      338.431       11.077      860.291
03/06/2014  08:40:00     -143.062     -180.783      -11.001       68.387       73.919       48.825     4676.834     5464.085     2383.890        3.290        0.626      230.541       45.472        0.039      338.282       10.824      860.282
03/06/2014  08:41:00     -101.179      -75.027       -6.580       88.010       72.982       46.474     7745.702     5326.385     2159.790        1.557        0.762      125.961       59.047        0.220      338.412       11.043      860.271
03/06/2014  08:42:00       19.418      -29.336       34.109      106.993       56.362       47.483    11447.536     3176.621     2254.598        0.964        0.844       35.181       47.421        1.817      338.532       11.248      860.261
03/06/2014  08:43:00      -31.469      -94.702       -7.112       50.899       56.350       39.445     2590.661     3175.308     1555.899        0.866        0.366       99.794       32.120        0.104      338.417       11.054      860.276
03/06/2014  08:44:00       -4.775      -42.447       33.375       83.830       65.859       52.183     7027.539     4337.441     2723.053        0.851        0.704       42.714       49.851        1.362      338.728       11.579      860.254
03/06/2014  08:45:00      -11.102      -59.193       -1.095       51.521       48.923       25.715     2654.461     2393.427      661.260        0.467        0.285       60.225       17.165        0.081      338.539       11.259      860.269
03/06/2014  08:46:00      -17.642      -43.594       11.939       47.986       94.705       44.544     2302.624     8968.966     1984.174        0.780        0.663       47.028       51.489        1.199      338.891       11.852      860.272
03/06/2014  08:47:00      -88.580      -42.129        5.086       83.806       76.482       36.945     7023.479     5849.421     1364.896        1.194        0.712       98.088       35.175        0.129      338.641       11.430      860.258
03/06/2014  08:48:00     -133.838      -82.989       -1.228       44.014       54.923       32.173     1937.210     3016.546     1035.087        1.539        0.299      157.480       17.597        0.012      338.398       11.022      860.267
03/06/2014  08:49:00     -183.361      -88.544      -11.415       37.891       46.737       29.519     1435.743     2184.326      871.385        2.304        0.225      203.621       14.840        0.005      338.344       10.930      860.267
03/06/2014  08:50:00     -164.595      -20.520      -21.063       43.789       58.042       24.253     1917.438     3368.859      588.188        1.691        0.294      165.869       20.714        0.016      338.380       10.992      860.274
03/06/2014  08:51:00      -97.307     -107.499        1.736       97.298       63.486       40.791     9466.948     4030.446     1663.924        1.809        0.758      144.999       42.828        0.087      338.405       11.032      860.274
03/06/2014  08:52:00      -16.049      -76.704       11.458       50.976       92.155       40.727     2598.567     8492.533     1658.664        0.951        0.637       78.365       43.243        0.305      338.639       11.427      860.273
03/06/2014  08:53:00      -32.523        3.001        8.284       62.108       52.840       27.870     3857.346     2792.087      776.760        0.428        0.371       32.661       11.426        0.122      338.774       11.655      860.262
03/06/2014  08:54:00      -46.551       -6.837        4.735       54.626       41.286       22.042     2983.976     1704.521      485.851        0.370        0.259       47.050       15.817        0.113      338.802       11.701      860.273
03/06/2014  08:55:00        5.898     -184.331       -9.615       95.558      100.326       64.038     9131.251    10065.243     4100.898        2.870        1.165      184.425       50.958        0.076      338.888       11.843      860.315
03/06/2014  08:56:00       86.078     -160.035        2.089       96.128      116.364       70.889     9240.640    13540.606     5025.191        3.041        1.390      181.715       67.655        0.139      338.771       11.649      860.316
03/06/2014  08:57:00      -41.716      -97.549       26.505      111.432       73.628       48.248    12417.136     5421.127     2327.841        1.606        1.008      106.095       37.219        0.123      338.779       11.663      860.322
03/06/2014  08:58:00      -73.387      -83.506        2.993       89.073       51.841       45.918     7934.027     2687.453     2108.419        1.255        0.636      111.171       34.334        0.095      338.710       11.545      860.317
03/06/2014  08:59:00      -62.333      -57.248      -17.757       57.866       39.306       25.975     3348.417     1544.935      674.707        0.652        0.278       84.633       18.979        0.050      338.754       11.620      860.300
03/06/2014  09:00:00      -85.313      -54.867        9.735       68.612       60.674       29.403     4707.578     3681.384      864.542        0.982        0.463      101.433       31.326        0.095      338.771       11.648      860.278
03/06/2014  09:01:00      -52.880      -38.358        1.844       37.058       35.180       27.354     1373.292     1237.634      748.237        0.381        0.168       65.328       21.011        0.103      338.767       11.642      860.282
03/06/2014  09:02:00     -111.503      -84.331       -6.910       90.996       77.244       33.857     8280.263     5966.655     1146.266        1.749        0.770      139.802       33.426        0.057      338.655       11.453      860.299
03/06/2014  09:03:00     -165.918      -95.673        6.506      117.647       78.882       46.938    13840.864     6222.302     2203.147        2.949        1.113      191.526       49.278        0.066      338.610       11.375      860.306
03/06/2014  09:04:00      -96.174     -173.102       16.774       98.536      114.962       59.939     9709.399    13216.170     3592.678        3.300        1.326      198.025       56.002        0.080      338.650       11.443      860.321
03/06/2014  09:05:00     -131.950     -138.082       -4.784       79.637       79.488       52.658     6342.041     6318.307     2772.885        2.596        0.772      190.991       48.640        0.065      338.564       11.299      860.315
03/06/2014  09:06:00     -311.748      -68.960        2.108      102.785       89.972       54.706    10564.775     8094.965     2992.790        6.180        1.083      319.284       41.975        0.017      338.523       11.228      860.274
03/06/2014  09:07:00     -177.488     -109.603       -3.098       80.107       65.303       35.576     6417.107     4264.456     1265.620        2.773        0.597      208.602       34.416        0.027      338.545       11.266      860.259
03/06/2014  09:08:00     -148.430      -98.761       -3.547       92.035       54.191       36.540     8470.372     2936.660     1335.176        2.227        0.637      178.284       37.377        0.044      338.521       11.228      860.250
03/06/2014  09:09:00     -142.567      -62.190        1.166       53.562       59.501       30.472     2868.873     3540.344      928.545        1.576        0.367      155.541       27.231        0.031      338.485       11.167      860.260
03/06/2014  09:10:00     -148.763     -121.743        0.320      101.904       76.216       44.808    10384.441     5808.943     2007.772        2.757        0.910      192.228       46.524        0.059      338.679       11.493      860.282
03/06/2014  09:11:00      -99.429      -98.268        8.279       70.798       72.918       37.448     5012.390     5316.962     1402.369        1.567        0.587      139.796       36.842        0.069      338.697       11.523      860.278
03/06/2014  09:12:00     -105.141     -143.698       -8.525       71.794       66.275       32.563     5154.418     4392.427     1060.341        2.119        0.530      178.055       28.910        0.026      338.657       11.456      860.254
03/06/2014  09:13:00      -80.936     -132.815        7.921       87.915       88.193       43.291     7728.974     7778.085     1874.145        2.081        0.869      155.533       43.870        0.080      338.692       11.513      860.248
03/06/2014  09:14:00     -195.701      -46.421       -5.734       95.610       76.996       45.943     9141.285     5928.331     2110.775        2.883        0.859      201.132       48.932        0.059      338.735       11.585      860.233
03/06/2014  09:15:00     -158.847      -77.365       -2.751       97.515       86.490       52.308     9509.253     7480.462     2736.129        2.547        0.986      176.685       49.814        0.079      338.703       11.532      860.188
03/06/2014  09:16:00     -284.975      -15.564      -25.584      104.471       57.607       40.612    10914.291     3318.576     1649.313        4.899        0.794      285.400       47.693        0.028      338.532       11.244      860.157
03/06/2014  09:17:00     -118.389      -92.632       14.675      102.836       61.522       39.973    10575.337     3784.975     1597.870        1.938        0.798      150.322       43.675        0.084      338.637       11.422      860.187
03/06/2014  09:18:00     -168.797     -113.602        9.413      104.394       63.109       44.288    10898.120     3982.720     1961.401        2.916        0.842      203.465       41.521        0.042      338.786       11.671      860.229
03/06/2014  09:19:00     -244.819     -113.895       -1.622      139.827      107.753       59.325    19551.672    11610.736     3519.450        5.379        1.734      270.016       59.892        0.049      338.778       11.659      860.211
03/06/2014  09:20:00     -265.714     -131.035       14.814      115.276      102.511       59.829    13288.617    10508.484     3579.503        5.768        1.369      296.267       58.256        0.039      338.700       11.527      860.208
03/06/2014  09:21:00      -81.533     -165.952       -0.660      115.977      126.808       50.175    13450.562    16080.234     2517.511        3.311        1.602      184.899       69.692        0.142      338.605       11.367      860.213
03/06/2014  09:22:00     -138.248      -78.070      -12.189      126.150       83.806       39.255    15913.703     7023.495     1540.972        2.491        1.224      158.768       24.606        0.024      338.654       11.451      860.162
03/06/2014  09:23:00     -173.905      -72.893       -2.891      100.266       94.628       45.949    10053.317     8954.531     2111.287        2.834        1.056      188.564       38.099        0.041      338.733       11.584      860.207
03/06/2014  09:24:00     -286.594     -138.416       -9.834      127.148      116.170       59.097    16166.563    13495.545     3492.451        6.727        1.658      318.269       60.197        0.036      338.803       11.700      860.258
03/06/2014  09:25:00     -205.832     -117.410        3.685      117.433      126.776       55.499    13790.575    16072.055     3080.141        4.455        1.647      236.964       51.195        0.047      338.883       11.835      860.304
03/06/2014  09:26:00     -172.530     -100.116        1.367      136.264      116.439       64.064    18567.972    13557.933     4104.217        3.800        1.812      199.474       61.844        0.096      338.935       11.923      860.284
03/06/2014  09:27:00     -295.308      -65.398        2.576      123.514       93.994       57.705    15255.604     8834.842     3329.916        5.945        1.371      302.462       64.403        0.045      338.848       11.774      860.238
03/06/2014  09:28:00     -325.427      -59.604       -0.892      126.363      107.101       54.239    15967.482    11470.686     2941.835        6.991        1.519      330.840       57.660        0.030      338.732       11.582      860.222
03/06/2014  09:29:00     -225.954     -149.236      -14.685      161.269      118.075       63.826    26007.785    13941.792     4073.770        5.878        2.201      270.788       66.340        0.060      338.931       11.915      860.262
03/06/2014  09:30:00     -202.405     -187.030        3.758      175.758      142.560       95.600    30890.944    20323.368     9139.305        6.815        3.018      275.587      105.362        0.146      339.148       12.281      860.299
03/06/2014  09:31:00     -221.156     -209.620       -2.491      130.466      139.003       74.494    17021.468    19321.754     5549.316        6.737        2.095      304.714       70.951        0.054      338.829       11.743      860.344
03/06/2014  09:32:00     -223.147     -129.123        4.679      164.451      125.290       83.329    27044.117    15697.644     6943.727        5.808        2.484      257.813       82.554        0.103      339.035       12.091      860.345
03/06/2014  09:33:00     -374.748      -19.356      -23.293      201.506      107.506       66.368    40604.636    11557.518     4404.705        9.895        2.828      375.248       93.909        0.063      338.822       11.730      860.357
03/06/2014  09:34:00     -426.743     -148.004       -5.153      212.725      110.342       70.458    45252.090    12175.420     4964.291       13.321        3.120      451.680       73.841        0.027      338.864       11.803      860.335
03/06/2014  09:35:00     -337.022      -59.871       -7.860      181.607      111.651       68.103    32980.964    12466.006     4638.051        8.365        2.504      342.299       56.956        0.028      338.850       11.780      860.386
03/06/2014  09:36:00     -274.255     -100.308        7.979      183.529      124.538       72.889    33683.032    15509.700     5312.796        6.991        2.725      292.023       90.863        0.097      338.923       11.902      860.485
03/06/2014  09:37:00     -299.720     -222.084        2.140      173.430      139.275       79.592    30077.892    19397.446     6334.947        9.747        2.791      373.033       91.606        0.060      338.747       11.607      860.489
03/06/2014  09:38:00     -265.648     -188.770      -15.090      120.678       91.711       63.845    14563.278     8410.857     4076.127        6.674        1.353      325.888       61.753        0.036      338.709       11.541      860.460
03/06/2014  09:39:00     -262.807     -103.028       -0.228       94.467      123.600       56.174     8924.023    15276.935     3155.532        5.351        1.368      282.281       56.922        0.041      338.793       11.682      860.421
03/06/2014  09:40:00     -279.472     -129.771       14.282      140.263      155.057       76.515    19673.662    24042.706     5854.613        7.235        2.479      308.132       74.678        0.059      339.001       12.034      860.396
03/06/2014  09:41:00     -186.047      -98.542      -17.193      157.100       90.589       56.012    24680.386     8206.333     3137.392        4.032        1.801      210.532       70.714        0.113      338.946       11.943      860.425
03/06/2014  09:42:00     -170.417     -243.793       -1.579       90.201      102.748       54.926     8136.301    10557.064     3016.818        5.509        1.086      297.451       58.556        0.039      338.742       11.597      860.427
03/06/2014  09:43:00     -164.954     -191.232        2.589       80.891      109.892       53.842     6543.369    12076.296     2898.987        4.265        1.076      252.547       47.338        0.035      338.773       11.649      860.374
03/06/2014  09:44:00     -254.672     -194.165        1.367      178.867      112.318       61.826    31993.339    12615.424     3822.480        7.549        2.422      320.246       56.395        0.031      338.932       11.917      860.386
03/06/2014  09:45:00     -202.558     -266.776       -1.176      192.524      174.051       81.960    37065.511    30293.814     6717.449        9.313        3.704      334.961       86.463        0.067      338.997       12.027      860.324
03/06/2014  09:46:00     -361.397     -112.230      -20.166      227.128      142.603       80.442    51586.931    20335.737     6470.838       11.099        3.920      378.422       87.260        0.053      339.139       12.264      860.301
03/06/2014  09:47:00     -485.479     -322.523      -21.620      228.364      201.208      118.850    52149.997    40484.540    14125.358       22.345        5.338      582.847      125.175        0.046      338.953       11.952      860.238
03/06/2014  09:48:00     -394.224     -247.847      -26.193      194.841      176.409       89.281    37963.154    31120.245     7971.038       14.728        3.853      465.662       81.039        0.030      339.014       12.055      860.196
03/06/2014  09:49:00     -164.916     -158.207       18.116      158.989      180.465       71.185    25277.563    32567.527     5067.252        5.772        3.146      228.532       58.840        0.066      339.165       12.308      860.159
03/06/2014  09:50:00     -405.529     -249.647       -5.248      227.074      260.962      120.839    51562.647    68101.413    14601.950       18.051        6.713      476.211      131.948        0.077      339.146       12.277      860.050
03/06/2014  09:51:00     -519.075     -345.551      -13.701      291.200      232.703      134.556    84797.440    54150.729    18105.408       27.302        7.853      623.573      148.170        0.056      339.049       12.113      860.184
03/06/2014  09:52:00      -23.967     -312.176        9.616      141.475      186.015       91.131    20015.181    34601.441     8304.826        8.051        3.146      313.095       86.206        0.076      338.968       11.977      860.266
03/06/2014  09:53:00     -254.730     -209.625       -3.517      192.688      143.959       63.644    37128.482    20724.190     4050.574        8.536        3.095      329.894       70.112        0.045      338.934       11.921      860.192
03/06/2014  09:54:00     -580.794     -185.906       21.200      406.243      282.889      174.093   165033.409    80026.217    30308.269       32.380       13.768      609.822      171.185        0.079      339.051       12.117      859.975
03/06/2014  09:55:00     -291.830     -316.398       14.665      182.942      223.519      100.144    33467.922    49960.835    10028.861       13.946        4.673      430.432      100.881        0.055      338.968       11.978      860.261
03/06/2014  09:56:00     -388.222     -305.506      -10.203      317.982      253.702      103.538   101112.487    64364.900    10720.061       21.015        8.810      494.015      125.573        0.065      338.929       11.912      860.249
03/06/2014  09:57:00     -650.558     -449.599        2.532      373.644      270.810      150.139   139609.758    73338.084    22541.761       43.039       11.774      790.800      177.016        0.050      338.944       11.937      860.178
03/06/2014  09:58:00     -150.602     -227.286       32.997      187.726      170.268      101.873    35241.205    28991.165    10378.112        7.501        3.731      272.653      105.929        0.151      338.939       11.928      860.129
03/06/2014  09:59:00     -277.384     -344.602       -9.065      141.433      224.766       74.026    20003.340    50519.858     5479.839       13.588        3.800      442.371       50.278        0.013      338.965       11.972      860.133
03/06/2014  10:00:00     -504.321     -277.775      -11.118      236.064      255.758      114.252    55726.021    65412.083    13053.633       23.288        6.710      575.759      127.119        0.049      339.031       12.083      860.083
03/06/2014  10:01:00     -301.453     -221.165        2.375      204.342      159.589       74.497    41755.833    25468.677     5549.809       10.627        3.639      373.882       80.709        0.047      339.110       12.217      860.164
03/06/2014  10:02:00     -545.641     -346.060      -28.013      211.124      213.639      110.920    44573.137    45641.618    12303.243       26.038        5.126      646.128      107.218        0.028      338.859       11.795      860.142
03/06/2014  10:03:00     -568.957      -93.906      -18.351      299.038      256.900      123.341    89423.495    65997.375    15212.935       25.172        8.532      576.655      128.515        0.050      339.021       12.066      859.959
03/06/2014  10:04:00     -692.279     -232.501      -32.673      279.865      282.910      142.519    78324.501    80038.015    20311.591       35.649        8.934      730.279      147.334        0.041      339.015       12.056      859.930
03/06/2014  10:05:00     -707.133     -283.026      -31.427      334.633      284.629      128.410   111978.991    81013.799    16489.056       39.527       10.474      761.670      145.656        0.037      338.912       11.883      859.946
03/06/2014  10:06:00     -332.093     -206.556       -0.950      226.716      256.423      114.249    51400.256    65752.826    13052.880       14.156        6.510      391.090      118.882        0.092      338.925       11.905      859.990
03/06/2014  10:07:00     -551.934     -289.438      -19.546      284.610      232.786      117.276    81002.724    54189.546    13753.604       26.884        7.447      623.222      140.935        0.051      338.948       11.943      859.951
03/06/2014  10:08:00     -574.322     -457.594      -34.550      238.671      218.588      124.438    56963.929    47780.505    15484.803       33.031        6.011      734.329      133.845        0.033      339.023       12.070      860.033
03/06/2014  10:09:00     -375.035     -251.003      -15.577      221.338      208.877       94.685    48990.730    43629.491     8965.302       15.272        5.079      451.280       76.051        0.028      339.055       12.123      860.093
03/06/2014  10:10:00     -474.811     -277.570        4.482      280.655      208.498      116.854    78767.081    43471.392    13654.807       21.918        6.795      549.992      129.256        0.055      338.935       11.922      860.088
03/06/2014  10:11:00     -441.644     -264.287       -2.275      230.436      214.892      103.697    53100.568    46178.738    10753.025       18.745        5.502      514.682      100.785        0.038      338.833       11.749      860.176
03/06/2014  10:12:00     -437.662     -277.228       -5.815      223.683      210.071      120.096    50034.000    44129.907    14423.169       18.849        5.429      518.077      118.962        0.053      338.766       11.638      860.087
03/06/2014  10:13:00     -385.999     -345.406       -6.855      244.170      264.026      114.351    59618.944    69709.753    13076.203       20.535        7.120      517.978      111.512        0.046      338.813       11.717      859.999
03/06/2014  10:14:00     -547.353     -282.305      -10.439      289.947      186.535      115.531    84069.221    34795.417    13347.360       25.578        6.611      615.867      127.094        0.043      338.883       11.835      860.003
03/06/2014  10:15:00     -693.348     -278.264      -36.539      326.025      291.088      124.711   106292.297    84732.156    15552.868       38.300       10.329      747.103      147.809        0.039      338.915       11.888      859.912
03/06/2014  10:16:00     -596.956     -407.720      -34.610      277.790      195.482      115.160    77167.307    38213.269    13261.763       32.619        6.432      722.905      137.260        0.036      338.984       12.003      859.931
03/06/2014  10:17:00     -485.430     -311.744      -18.680      249.645      228.014      111.146    62322.522    51990.230    12353.429       22.990        6.333      576.912      134.000        0.054      339.084       12.172      859.976
03/06/2014  10:18:00     -411.847     -292.842       -6.118      284.732      267.268      106.874    81072.044    71431.988    11421.965       20.964        8.196      505.345      109.990        0.047      339.096       12.192      859.955
03/06/2014  10:19:00     -623.892     -330.578      -20.491      322.519      294.923      109.560   104018.367    86979.641    12003.376       35.094       10.150      706.061      141.967        0.040      338.987       12.009      859.991
03/06/2014  10:20:00     -553.876     -347.092      -20.603      223.981      214.391      118.926    50167.704    45963.537    14143.485       26.896        5.514      653.645      104.065        0.025      339.011       12.049      860.108
03/06/2014  10:21:00     -216.290     -355.966        6.523      197.455      215.524       93.929    38988.647    46450.408     8822.719       13.388        4.713      416.525       98.566        0.056      339.106       12.210      860.208
03/06/2014  10:22:00     -223.483     -285.428        3.171      212.328      185.106       79.456    45083.039    34264.405     6313.236       10.853        4.283      362.511       69.305        0.037      338.850       11.779      860.170
03/06/2014  10:23:00     -394.573     -175.293       -8.512      179.232      123.994       94.030    32124.056    15374.424     8841.589       12.140        2.817      431.758      103.710        0.058      339.073       12.153      860.193
03/06/2014  10:24:00     -514.152     -308.835        3.103      301.966      236.742      116.929    91183.649    56046.956    13672.405       26.030        8.045      599.776      142.891        0.057      339.125       12.242      860.213
03/06/2014  10:25:00     -573.590     -318.295       -8.175      241.140      216.488      127.355    58148.690    46867.057    16219.416       27.579        6.062      655.986      139.217        0.045      338.863       11.800      860.208
03/06/2014  10:26:00     -339.691     -212.128        9.353      177.370      237.870      102.423    31460.235    56582.193    10490.446       12.949        4.927      400.485      108.118        0.073      339.033       12.086      860.127
03/06/2014  10:27:00     -509.555     -206.043        4.861      243.685      250.378      123.694    59382.582    62689.378    15300.241       21.972        6.869      549.636      127.586        0.054      339.087       12.177      859.980
03/06/2014  10:28:00     -462.057     -304.715        0.248      275.990      215.945      111.981    76170.217    46632.102    12539.756       22.082        6.767      553.487      136.982        0.061      339.198       12.365      860.059
03/06/2014  10:29:00     -393.389     -210.003        8.206      287.235      213.445       99.735    82503.876    45558.805     9947.117       16.844        6.900      445.933      135.324        0.092      339.091       12.185      860.040
03/06/2014  10:30:00     -426.636     -313.954       -6.302      280.343      223.539      109.873    78592.260    49969.826    12072.107       21.061        7.032      529.703      120.783        0.052      338.937       11.925      860.055
03/06/2014  10:31:00     -199.629     -228.813        0.453      179.854      128.820       79.568    32347.391    16594.493     6331.109        7.373        2.764      303.656       68.560        0.051      339.037       12.093      859.966
03/06/2014  10:32:00     -618.333     -231.972        6.279      394.401      262.339      147.504   155551.842    68821.501    21757.534       34.112       12.307      660.414      179.814        0.074      339.178       12.330      859.973
03/06/2014  10:33:00     -404.503     -428.550       -7.780      224.096      238.930      115.692    50218.869    57087.562    13384.639       23.399        6.035      589.303      121.204        0.042      339.049       12.114      860.220
03/06/2014  10:34:00     -202.306     -354.202      -17.699      164.522      161.771       86.650    27067.388    26169.718     7508.251       11.371        3.037      407.905       32.899        0.007      338.987       12.008      860.224
03/06/2014  10:35:00     -224.175     -274.508       -8.157      209.425      204.288       91.814    43858.711    41733.447     8429.863       10.983        4.701      354.414      105.419        0.088      339.127       12.244      860.222
03/06/2014  10:36:00     -347.179     -359.933      -11.156      203.646      180.694       99.536    41471.721    32650.187     9907.432       16.711        4.201      500.085      103.860        0.043      338.924       11.904      860.138
03/06/2014  10:37:00     -445.188     -243.460        1.754      255.893      200.472       92.990    65481.182    40188.911     8647.202       18.587        5.716      507.410       95.279        0.035      339.118       12.228      860.079
03/06/2014  10:38:00     -378.964     -291.697       17.099      271.540      191.876      114.468    73734.178    36816.260    13103.022       17.630        6.183      478.227      121.116        0.064      339.279       12.500      860.078
03/06/2014  10:39:00     -633.790     -429.538      -37.249      260.584      235.822      128.412    67904.261    55611.985    16489.709       36.377        7.000      765.632      139.467        0.033      339.114       12.223      860.072
03/06/2014  10:40:00     -451.828     -199.045       14.380      225.998      231.652      114.441    51075.228    53662.518    13096.672       18.088        5.892      493.728      130.813        0.070      339.300       12.536      860.090
03/06/2014  10:41:00     -433.568     -152.748      -10.612      282.210      163.455      108.398    79642.673    26717.541    11750.179       16.475        5.906      459.688      122.181        0.071      339.250       12.451      860.031
03/06/2014  10:42:00     -390.226     -220.395       -3.581      200.296      167.980       88.243    40118.465    28217.137     7786.790       13.848        3.806      448.164       97.309        0.047      339.357       12.632      860.161
03/06/2014  10:43:00     -331.348     -251.667        2.911      200.841      173.834       88.152    40337.036    30218.114     7770.778       12.572        3.916      416.087       87.872        0.045      339.337       12.597      860.181
03/06/2014  10:44:00     -426.005     -205.794       20.137      265.888      238.027      108.455    70696.611    56656.677    11762.583       18.165        6.956      473.108      130.334        0.076      339.411       12.722      860.217
03/06/2014  10:45:00     -467.321     -327.124      -15.112      281.626      224.969      106.373    79313.332    50611.150    11315.273       23.341        7.062      570.437      116.750        0.042      339.233       12.423      860.286
03/06/2014  10:46:00     -304.960     -254.580        1.928      207.902      216.111      106.086    43223.144    46703.961    11254.322       12.948        5.059      397.255      108.702        0.075      339.403       12.709      860.347
03/06/2014  10:47:00     -435.529     -312.932      -27.415      215.694      169.808       96.103    46524.046    28834.813     9235.803       18.647        4.230      536.295       92.960        0.030      339.372       12.657      860.407
03/06/2014  10:48:00     -206.709     -165.496        1.029      164.657      135.781       72.495    27112.064    18436.449     5255.511        6.045        2.540      264.797       71.699        0.073      339.570       12.992      860.443
03/06/2014  10:49:00     -144.580     -300.576      -10.973      151.307      232.282       82.454    22893.939    53955.024     6798.699        9.749        4.182      333.541       91.354        0.075      339.420       12.739      860.358
03/06/2014  10:50:00     -216.190     -168.725       -3.209      285.070      201.890      100.868    81264.941    40759.750    10174.433       10.369        6.610      274.238      110.430        0.162      339.455       12.796      860.297
03/06/2014  10:51:00     -283.676     -461.014      -19.666      192.201      218.054       85.206    36941.037    47547.568     7260.081       19.256        4.587      541.300       90.100        0.028      339.080       12.167      860.280
03/06/2014  10:52:00     -273.894     -266.961        4.132      184.167      170.403       85.774    33917.375    29037.332     7357.106       10.830        3.516      382.474       81.221        0.045      339.253       12.457      860.223
03/06/2014  10:53:00     -430.075     -179.386        2.392      257.667      200.808       95.035    66392.055    40323.899     9031.604       16.643        5.787      465.987      104.722        0.051      339.432       12.758      860.179
03/06/2014  10:54:00     -356.838     -190.330       -3.925      234.477      249.294      106.305    54979.552    62147.534    11300.743       14.598        6.421      404.424      111.108        0.075      339.245       12.444      860.083
03/06/2014  10:55:00     -392.122     -230.085      -18.032      262.857      258.849      122.893    69093.754    67003.026    15102.599       17.909        7.560      454.642      136.080        0.090      339.277       12.496      860.090
03/06/2014  10:56:00     -361.875     -223.288        0.789      285.805      212.015      117.238    81684.720    44950.221    13744.729       16.057        7.019      425.219      144.385        0.115      339.319       12.569      860.086
03/06/2014  10:57:00     -493.097     -228.491      -11.847      251.429      189.244      112.837    63216.764    35813.433    12732.082       20.361        5.588      543.463      124.496        0.052      339.145       12.276      860.045
03/06/2014  10:58:00     -457.338     -222.145       -9.045      228.721      180.920      101.021    52313.421    32731.987    10205.211       17.690        4.763      508.436      112.437        0.049      339.184       12.341      860.037
03/06/2014  10:59:00     -453.014     -291.762      -39.028      254.926      193.844      104.149    64987.446    37575.525    10847.082       20.262        5.671      538.838      130.840        0.059      339.370       12.653      859.992
03/06/2014  11:00:00     -498.168     -224.824        0.621      287.172      233.734      105.150    82467.765    54631.685    11056.430       22.341        7.408      546.551      123.956        0.051      339.492       12.860      859.963
03/06/2014  11:01:00     -540.949     -343.669        4.319      326.771      235.829      138.280   106779.603    55615.110    19121.369       29.610        9.076      640.885      167.468        0.068      339.367       12.650      859.923
03/06/2014  11:02:00     -553.195     -465.682      -13.076      311.509      271.250      133.664    97038.085    73576.313    17866.046       35.574        9.424      723.107      147.118        0.041      339.119       12.232      860.005
03/06/2014  11:03:00     -273.789     -258.429       -9.619      179.694      178.014       82.910    32289.914    31688.901     6874.137       10.633        3.543      376.492       79.429        0.045      339.325       12.578      860.143
03/06/2014  11:04:00     -311.126     -121.674      -19.790      136.405      178.103       76.914    18606.278    31720.621     5915.782        8.411        2.812      334.072       61.144        0.033      339.404       12.709      860.083
03/06/2014  11:05:00     -342.284     -155.453      -15.673      197.468      189.682       93.928    38993.718    35979.359     8822.399       11.267        4.190      375.931       92.432        0.060      339.432       12.757      860.100
03/06/2014  11:06:00     -510.371     -471.200      -22.888      319.937      178.055      118.015   102359.557    31703.601    13927.493       31.549        7.400      694.628      132.550        0.036      339.277       12.498      860.017
03/06/2014  11:07:00     -509.801     -346.059      -30.480      244.051      227.000       95.223    59561.097    51529.078     9067.513       25.035        6.008      616.161      106.603        0.030      339.176       12.326      860.043
03/06/2014  11:08:00     -443.890     -311.047       17.802      308.397      225.446      120.736    95108.410    50825.726    14577.118       22.728        8.026      542.023      142.073        0.069      339.182       12.336      860.020
03/06/2014  11:09:00     -539.920     -423.506       12.963      343.837      224.201      159.126   118223.931    50265.928    25321.030       33.239        9.691      686.200      182.548        0.071      339.208       12.380      860.002
03/06/2014  11:10:00     -559.978     -369.524      -22.717      354.157      227.624      128.023   125426.846    51812.690    16389.897       32.210        9.681      670.913      159.047        0.056      339.112       12.220      860.018
03/06/2014  11:11:00     -588.056     -360.726      -11.045      273.944      235.923      122.534    75045.290    55659.739    15014.571       31.086        7.286      689.879      130.699        0.036      339.264       12.475      859.986
03/06/2014  11:12:00     -433.790     -417.220      -28.225      230.593      275.086      104.951    53173.096    75672.085    11014.793       25.143        6.993      601.869      105.750        0.031      339.179       12.333      860.047
03/06/2014  11:13:00     -383.720     -436.539      -19.174      270.049      213.997      128.890    72926.676    45794.724    16612.691       23.673        6.767      581.212      114.611        0.039      339.198       12.363      860.040
03/06/2014  11:14:00     -337.197     -318.936      -15.920      225.471      152.371       86.534    50837.105    23216.956     7488.158       14.859        4.077      464.135       92.054        0.039      339.267       12.480      860.101
03/06/2014  11:15:00     -358.976     -198.028      -13.146      188.449      134.819       89.716    35513.169    18176.284     8049.035       11.498        3.087      409.974       86.687        0.045      339.249       12.450      860.089
03/06/2014  11:16:00     -462.013     -215.417      -11.748      227.178      207.242      111.512    51609.743    42949.183    12435.036       18.348        5.350      509.765      126.562        0.062      339.275       12.494      860.060
03/06/2014  11:17:00     -329.012     -202.809      -13.202      203.961      138.373       85.720    41600.067    19147.208     7347.977       10.881        3.405      386.498       85.632        0.049      339.421       12.739      860.055
03/06/2014  11:18:00     -287.133     -317.152       -4.600      166.090      205.445       77.566    27585.909    42207.843     6016.556       12.942        3.791      427.821       60.887        0.020      339.408       12.717      860.034
03/06/2014  11:19:00     -181.188     -235.354       18.654      195.003      192.443       77.837    38025.993    37034.117     6058.615        8.483        4.056      297.019       60.267        0.041      339.397       12.699      859.987
03/06/2014  11:20:00     -425.958     -315.496      -11.677      255.588      184.923      103.643    65325.434    34196.380    10741.868       19.567        5.513      530.073       90.075        0.029      339.307       12.545      860.014
03/06/2014  11:21:00     -360.775     -245.866        3.071      224.423      151.862      109.533    50365.639    23062.126    11997.513       13.801        4.271      436.587      100.928        0.053      339.381       12.673      860.001
03/06/2014  11:22:00     -260.877     -196.034       11.629      225.284      186.647       80.743    50753.057    34837.166     6519.472        9.935        4.605      326.322       85.046        0.068      339.367       12.649      859.998
03/06/2014  11:23:00     -238.204     -174.319        7.125      188.461      144.803       77.052    35517.457    20967.942     5936.945        7.479        3.121      295.174       84.048        0.081      339.547       12.954      859.979
03/06/2014  11:24:00     -266.723     -242.839      -12.827      138.931      124.417       72.542    19301.821    15479.576     5262.368        8.515        2.002      360.710       77.482        0.046      339.474       12.828      859.964
03/06/2014  11:25:00     -135.261     -171.818       18.174      142.066       91.395       62.511    20182.801     8353.133     3907.633        4.029        1.622      218.671       57.822        0.070      339.645       13.117      859.953
03/06/2014  11:26:00     -174.650     -217.126        8.012      141.568      135.237       71.278    20041.531    18289.153     5080.605        6.055        2.171      278.651       59.240        0.045      339.760       13.311      860.013
03/06/2014  11:27:00     -271.689     -373.453      -24.669      197.077      136.055       76.022    38839.525    18510.836     5779.407       13.850        3.156      461.825       72.573        0.025      339.342       12.608      860.078
03/06/2014  11:28:00     -231.397     -172.807       24.468      202.555      154.053       87.408    41028.361    23732.298     7640.167        7.819        3.620      288.802       89.813        0.097      339.449       12.787      860.018
03/06/2014  11:29:00     -339.719     -296.576      -12.680      226.063      165.977       80.828    51104.650    27548.214     6533.183       14.434        4.259      450.962       86.132        0.036      339.417       12.733      860.030
03/06/2014  11:30:00     -534.854     -304.656      -22.720      172.610      158.097       89.017    29794.289    24994.728     7923.942       22.105        3.136      615.535       75.537        0.015      339.298       12.532      860.085
03/06/2014  11:31:00     -411.855     -218.384        3.096      227.241      145.469       83.622    51638.293    21161.318     6992.690       14.855        3.990      466.172       96.777        0.043      339.242       12.439      860.175
03/06/2014  11:32:00     -146.499     -118.378       17.604      125.658      119.197       72.611    15790.027    14208.037     5272.297        3.552        1.764      188.349       67.802        0.130      339.542       12.945      860.155
03/06/2014  11:33:00     -271.334       -0.411        5.720      170.955      143.159       81.399    29225.661    20494.471     6625.737        6.499        2.817      271.335       76.945        0.080      339.750       13.295      860.132
03/06/2014  11:34:00     -417.305     -333.848        6.122      333.183      259.739      126.985   111010.898    67464.178    16125.273       24.009        9.730      534.414      167.582        0.098      339.448       12.786      860.104
03/06/2014  11:35:00     -453.923      -48.467      -15.463      253.005      207.864      111.550    64011.603    43207.600    12443.293       16.413        5.983      456.504      115.829        0.064      339.353       12.625      860.113
03/06/2014  11:36:00     -444.107      -93.323      -20.679      278.343      170.115      103.284    77475.031    28939.192    10667.499       16.171        5.854      453.806      132.818        0.086      339.421       12.740      860.087
03/06/2014  11:37:00     -570.517      -85.033      -42.248      288.288      166.701      107.950    83109.809    27789.157    11653.176       22.851        6.128      576.819      117.383        0.041      339.242       12.438      860.068
03/06/2014  11:38:00     -500.939     -198.952       -3.079      228.995      208.804      106.790    52438.496    43598.964    11404.024       19.897        5.372      539.001      115.859        0.046      339.153       12.288      859.990
03/06/2014  11:39:00     -486.613     -212.715      -20.040      208.511      157.061       85.001    43476.705    24668.122     7225.105       17.889        3.768      531.074       75.535        0.020      339.334       12.592      859.954
03/06/2014  11:40:00     -340.176     -291.467       -8.823      196.167      195.868      106.531    38481.470    38364.406    11348.761       14.446        4.410      447.965      120.910        0.073      339.551       12.959      859.963
03/06/2014  11:41:00     -443.227     -329.374       -5.393      280.578      288.053      121.160    78723.808    82974.449    14679.635       24.064        8.819      552.211      145.108        0.069      339.429       12.754      859.927
03/06/2014  11:42:00     -448.702     -225.262      -28.887      250.222      211.657      120.594    62610.912    44798.772    14542.823       18.741        6.098      502.072      111.302        0.049      339.258       12.467      859.839
03/06/2014  11:43:00     -577.149     -387.109      -21.438      314.463      243.142      133.223    98887.156    59117.845    17748.433       32.955        8.788      694.949      158.311        0.052      339.231       12.419      859.829
03/06/2014  11:44:00     -398.883     -246.679       -4.971      316.895      222.843      112.364   100422.530    49659.191    12625.642       19.132        8.135      468.997      154.935        0.109      339.350       12.621      859.818
03/06/2014  11:45:00     -584.295     -191.041      -27.712      281.078      253.021      105.291    79004.645    64019.726    11086.233       26.636        7.706      614.734      119.204        0.038      339.381       12.673      859.830
03/06/2014  11:46:00     -349.987     -176.900      -11.439      216.031      200.393       91.668    46669.531    40157.162     8403.020       12.456        4.761      392.154       92.419        0.056      339.512       12.893      859.853
03/06/2014  11:47:00     -246.926     -134.885       11.297      209.689      144.671       85.059    43969.531    20929.735     7235.116        7.570        3.607      281.365       96.455        0.118      339.753       13.299      859.830
03/06/2014  11:48:00     -379.177     -133.155       -1.358      258.043      178.741      108.243    66586.387    31948.463    11716.598       13.586        5.513      401.877      124.814        0.096      339.521       12.908      859.829
03/06/2014  11:49:00     -198.378     -174.292       -1.953      174.911      120.458       79.126    30593.951    14510.127     6260.875        6.054        2.568      264.067       79.479        0.091      339.692       13.197      859.835
03/06/2014  11:50:00     -382.903     -217.129       -2.285      182.061      161.639       91.176    33146.077    26127.111     8313.121       13.066        3.379      440.182       83.000        0.036      339.661       13.144      859.849
03/06/2014  11:51:00     -650.284     -233.419      -52.073      327.731      281.595      120.719   107407.551    79295.846    14573.014       34.064       10.064      690.908      144.951        0.044      339.297       12.531      859.837
03/06/2014  11:52:00     -476.599     -235.423      -19.242      296.882      270.366      114.861    88139.193    73098.005    13193.014       22.866        8.722      531.574      120.628        0.051      339.442       12.774      859.826
03/06/2014  11:53:00     -489.466      -99.855        3.460      328.272      224.019      140.827   107762.206    50184.289    19832.196       21.364        8.889      499.548      162.818        0.106      339.553       12.963      859.847
03/06/2014  11:54:00     -528.267     -193.553      -21.463      231.634      238.800      112.687    53654.518    57025.627    12698.324       22.016        6.169      562.609      109.477        0.038      339.343       12.608      859.840
03/06/2014  11:55:00     -766.001     -217.847      -22.563      404.135      280.795      148.422   163325.375    78846.012    22029.064       44.942       13.210      796.376      177.094        0.049      339.181       12.336      859.744
03/06/2014  11:56:00     -624.826     -139.228      -26.189      295.821      231.157      114.714    87510.249    53433.468    13159.362       28.226        7.705      640.150      127.811        0.040      339.235       12.426      859.787
03/06/2014  11:57:00     -417.840     -217.715      -13.798      285.992      227.399      129.977    81791.291    51710.429    16893.968       18.626        7.520      471.159      139.160        0.087      339.397       12.698      859.769
03/06/2014  11:58:00     -531.053     -178.170       -1.156      304.844      222.041      133.667    92929.875    49302.119    17866.987       23.690        8.005      560.144      162.980        0.085      339.278       12.500      859.735
03/06/2014  11:59:00     -543.574     -167.563       -5.663      356.003      250.303      135.229   126738.415    62651.490    18286.918       26.559       10.384      568.814      163.403        0.083      339.355       12.628      859.758
03/06/2014  12:00:00     -799.658     -228.414      -31.908      323.486      313.499      140.841   104643.088    98281.603    19836.171       45.766       11.138      831.640      129.705        0.024      339.135       12.258      859.740
03/06/2014  12:01:00     -623.829     -408.197      -16.959      450.343      352.874      163.636   202808.492   124520.223    26776.880       45.503       17.705      745.511      204.211        0.075      339.189       12.350      859.802
03/06/2014  12:02:00     -483.533     -339.843      -14.489      306.105      186.875      118.112    93700.074    34922.169    13950.346       24.602        7.129      591.014      143.536        0.059      339.317       12.562      859.962
03/06/2014  12:03:00     -421.772     -296.764       -4.716      294.223      207.549      125.589    86567.356    43076.571    15772.605       20.568        7.271      515.713      145.662        0.080      339.177       12.330      860.033
03/06/2014  12:04:00     -626.959     -349.870       -5.065      335.788      257.204      135.514   112753.474    66154.152    18364.110       35.636        9.864      717.973      163.118        0.052      339.059       12.131      860.036
03/06/2014  12:05:00     -624.815     -435.615       -9.012      334.952      273.106      124.502   112192.921    74586.663    15500.764       39.122       10.114      761.679      161.061        0.045      338.907       11.874      859.998
03/06/2014  12:06:00     -537.690     -305.427       -6.224      249.986      200.056      118.273    62493.110    40022.376    13988.444       24.945        5.825      618.381      112.096        0.033      339.007       12.043      859.993
03/06/2014  12:07:00     -444.193     -205.196       13.095      223.695      212.817      122.153    50039.398    45291.185    14921.335       17.490        5.513      489.298      127.188        0.068      339.146       12.276      859.981
03/06/2014  12:08:00     -620.910     -267.698      -21.990      338.201      347.908      123.830   114380.167   121039.637    15333.789       35.417       12.538      676.159      151.607        0.050      339.198       12.364      859.948
03/06/2014  12:09:00     -703.610     -377.627      -41.263      339.816      268.150      123.961   115474.980    71904.330    15366.279       42.102       10.137      798.542      148.213        0.034      338.978       11.995      859.984
03/06/2014  12:10:00     -643.595     -479.828       -5.143      293.130      240.436      140.208    85925.108    57809.264    19658.278       40.391        8.170      802.776      153.053        0.036      338.866       11.804      859.958
03/06/2014  12:11:00     -475.916     -311.750        2.028      246.123      173.771      102.286    60576.396    30196.283    10462.387       21.244        5.062      568.932      109.706        0.037      339.104       12.206      859.956
03/06/2014  12:12:00     -472.366     -201.858       -0.580      304.068      252.977      141.140    92457.286    63997.194    19920.474       22.010        8.819      513.689      159.604        0.097      339.155       12.293      859.865
03/06/2014  12:13:00     -397.887     -262.477      -10.280      258.517      265.163      104.150    66831.210    70311.212    10847.191       18.763        7.399      476.663      105.129        0.049      339.321       12.571      859.836
03/06/2014  12:14:00     -490.899     -388.547      -27.094      278.185      213.170      121.955    77386.976    45441.596    14873.078       26.517        6.885      626.060      143.460        0.053      339.085       12.175      859.817
03/06/2014  12:15:00     -586.762     -204.576      -22.928      364.926      223.310      121.391   133170.633    49867.365    14735.893       29.219        9.889      621.402      170.086        0.075      339.228       12.414      859.774
03/06/2014  12:16:00     -359.143     -185.606       11.483      255.902      237.821      111.329    65485.892    56558.918    12394.140       14.898        6.722      404.269      130.070        0.104      339.460       12.806      859.862
03/06/2014  12:17:00     -552.792     -287.218        0.064      391.006      245.944      134.372   152885.312    60488.319    18055.951       30.971       11.571      622.955      152.902        0.060      339.123       12.237      859.806
03/06/2014  12:18:00     -581.479     -285.514       -7.944      319.885      230.587      127.715   102326.103    53170.147    16311.073       29.572        8.590      647.793      132.543        0.042      339.011       12.049      859.696
03/06/2014  12:19:00     -627.979     -435.689      -16.003      311.528      254.239      123.665    97049.591    64637.334    15292.917       38.068        8.849      764.319      136.850        0.032      338.929       11.913      859.600
03/06/2014  12:20:00     -368.814     -281.536       23.663      286.931      187.020      133.327    82329.430    34976.365    17776.180       17.544        6.754      463.990      155.945        0.113      339.167       12.311      859.558
03/06/2014  12:21:00     -455.410     -337.044      -17.257      276.992      231.723      141.473    76724.713    53695.390    20014.560       23.584        7.522      566.566      158.071        0.078      339.226       12.412      859.610
03/06/2014  12:22:00     -736.795     -406.524      -31.136      376.739      259.664      174.646   141932.325    67425.240    30501.352       47.444       11.993      841.504      196.559        0.055      338.994       12.021      859.596
03/06/2014  12:23:00     -558.917     -356.290      -21.013      357.031      271.272      140.680   127470.910    73588.395    19790.834       33.027       11.043      662.820      155.769        0.055      339.078       12.160      859.667
03/06/2014  12:24:00     -766.857     -362.793      -23.558      479.752      366.507      142.457   230162.324   134327.406    20294.078       55.245       19.239      848.344      191.141        0.051      338.861       11.797      859.602
03/06/2014  12:25:00     -631.512     -309.878        6.205      406.873      316.452      160.940   165545.434   100142.102    25901.619       39.318       14.579      703.443      205.608        0.085      338.969       11.979      859.565
03/06/2014  12:26:00     -555.624     -260.419       10.847      355.289      328.577      157.171   126230.614   107962.601    24702.880       31.773       12.945      613.625      165.925        0.073      339.016       12.059      859.557
03/06/2014  12:27:00     -559.651     -359.232        4.782      456.390      253.360      168.974   208292.102    64191.526    28552.347       37.161       15.052      665.024      215.869        0.105      338.957       11.958      859.556
03/06/2014  12:28:00     -660.389     -104.147      -30.494      381.835      257.724      150.625   145798.324    66421.843    22687.979       34.136       11.745      668.551      182.909        0.075      339.151       12.286      859.542
03/06/2014  12:29:00     -551.562     -258.662       -8.797      356.826      329.545      144.805   127324.593   108599.906    20968.575       31.401       12.845      609.202      183.901        0.091      339.049       12.112      859.540
03/06/2014  12:30:00     -551.001     -345.865      -15.022      431.519      280.981      141.890   186209.058    78950.471    20132.654       35.432       14.265      650.558      171.507        0.070      339.014       12.055      859.493
03/06/2014  12:31:00     -852.718     -304.529      -41.273      465.043      334.091      170.273   216264.959   111616.555    28993.049       58.916       17.844      905.464      205.286        0.051      338.832       11.747      859.454
03/06/2014  12:32:00     -683.629     -295.001      -18.786      439.153      367.945      153.865   192855.648   135383.693    23674.531       45.326       17.596      744.563      199.133        0.072      338.885       11.837      859.439
03/06/2014  12:33:00     -598.440     -386.728      -16.856      304.613      221.974      146.134    92789.144    49272.290    21355.164       33.567        8.171      712.523      160.734        0.051      338.954       11.953      859.492
03/06/2014  12:34:00     -793.955     -320.564       -8.822      392.708      336.556      146.835   154219.331   113270.182    21560.425       51.108       14.452      856.227      167.029        0.038      338.795       11.687      859.489
03/06/2014  12:35:00     -866.502     -410.144      -19.241      417.885      365.927      154.598   174627.932   133902.580    23900.413       62.587       16.622      958.667      192.282        0.040      338.682       11.497      859.488
03/06/2014  12:36:00     -724.713     -285.400      -27.154      391.075      305.493      140.386   152939.887    93325.735    19708.298       43.664       13.299      778.885      159.712        0.042      338.710       11.542      859.500
03/06/2014  12:37:00     -583.953     -248.117       14.796      474.657      282.322      157.378   225298.978    79705.591    24767.963       36.622       16.489      634.479      215.770        0.116      338.974       11.988      859.495
03/06/2014  12:38:00     -858.301     -308.272      -42.289      391.535      347.560      148.966   153299.294   120797.673    22190.873       56.484       14.814      911.982      156.426        0.029      338.704       11.532      859.432
03/06/2014  12:39:00     -728.660     -438.135       12.498      350.800      243.194      151.451   123060.316    59143.442    22937.367       46.407       10.257      850.240      172.708        0.041      338.639       11.425      859.494
03/06/2014  12:40:00     -616.366     -426.699       18.339      424.538      299.452      165.685   180232.388    89671.427    27451.564       42.979       14.868      749.653      206.736        0.076      338.756       11.621      859.473
03/06/2014  12:41:00     -416.894     -146.913      -25.349      270.512      201.079      109.121    73176.608    40432.761    11907.459       16.075        6.276      442.023      105.637        0.057      339.080       12.167      859.509
03/06/2014  12:42:00     -428.208     -275.184       15.841      312.423      220.944      133.299    97607.888    48816.134    17768.586       21.174        8.210      509.007      170.845        0.113      339.090       12.182      859.516
03/06/2014  12:43:00     -408.941     -152.692      -12.671      326.807      283.723      121.690   106802.977    80498.875    14808.440       19.638       10.106      436.517      142.997        0.107      339.239       12.435      859.515
03/06/2014  12:44:00     -895.125     -463.013      -14.060      391.715      272.356      151.539   153440.666    74177.584    22964.201       63.316       12.529     1007.785      192.815        0.037      338.795       11.686      859.526
03/06/2014  12:45:00     -412.288     -308.120       15.200      425.518      321.305      195.950   181065.935   103236.624    38396.389       29.387       16.135      514.703      246.155        0.229      338.969       11.980      859.563
03/06/2014  12:46:00     -844.915     -502.679      -36.976      381.582      304.148      154.178   145605.149    92506.290    23770.917       61.486       13.094      983.142      193.756        0.039      338.718       11.558      859.590
03/06/2014  12:47:00     -562.869     -301.129       -0.294      373.519      284.145      133.369   139516.245    80738.419    17787.230       32.273       11.902      638.357      156.838        0.060      338.913       11.884      859.655
03/06/2014  12:48:00     -615.832     -313.083       -3.847      363.731      271.980      154.004   132300.364    73973.221    23717.310       35.360       11.500      690.847      159.592        0.053      338.904       11.870      859.638
03/06/2014  12:49:00     -676.033     -317.520      -39.174      367.390      269.372      140.634   134975.148    72561.064    19778.060       39.331       11.366      746.886      185.681        0.062      338.842       11.766      859.650
03/06/2014  12:50:00     -433.519     -249.493       27.606      333.067      220.429      157.195   110933.401    48588.742    24710.369       21.756        9.212      500.185      184.907        0.137      339.029       12.080      859.635
03/06/2014  12:51:00     -707.523     -400.277      -32.954      312.554      230.715      133.582    97689.890    53229.378    17844.185       41.530        8.438      812.902      136.130        0.028      338.859       11.792      859.560
03/06/2014  12:52:00     -743.102     -338.329      -26.553      380.450      233.152      135.732   144741.917    54359.791    18423.072       44.241       10.876      816.496      160.931        0.039      338.852       11.782      859.533
03/06/2014  12:53:00     -587.591     -223.509       14.250      526.462      276.771      155.472   277162.280    76602.102    24171.458       38.662       18.897      628.665      212.115        0.114      338.898       11.860      859.521
03/06/2014  12:54:00     -570.111     -233.029       26.980      413.064      331.467      170.430   170621.460   109870.696    29046.342       34.475       15.477      615.897      217.489        0.125      338.906       11.873      859.535
03/06/2014  12:55:00     -769.297     -369.591      -55.620      323.190      287.766      139.281   104451.826    82809.187    19399.154       46.905       10.333      853.472      155.162        0.033      338.802       11.697      859.610
03/06/2014  12:56:00     -631.795     -432.634      -10.095      374.751      399.359      176.782   140438.652   159487.276    31251.763       45.875       16.559      765.726      207.073        0.073      338.786       11.671      859.550
03/06/2014  12:57:00     -688.466     -377.720       -5.046      312.897      271.517      135.224    97904.622    73721.428    18285.456       40.327        9.496      785.275      162.446        0.043      338.879       11.828      859.553
03/06/2014  12:58:00     -419.363     -201.122       -7.618      231.892      222.146       99.647    53774.058    49348.818     9929.602       16.469        5.653      465.097       91.039        0.038      339.141       12.269      859.595
03/06/2014  12:59:00     -617.345     -439.839      -10.966      368.693      266.722      140.342   135934.319    71140.517    19696.016       40.069       11.339      758.006      175.237        0.053      339.060       12.132      859.611
03/06/2014  13:00:00     -662.383     -322.300      -32.533      367.388      296.206      154.406   134973.906    87737.812    23841.356       39.508       12.328      736.633      156.606        0.045      338.906       11.872      859.553
03/06/2014  13:01:00     -628.875     -325.321       -6.499      313.826      235.465      138.518    98486.532    55443.872    19187.287       33.721        8.656      708.038      134.859        0.036      338.814       11.717      859.544
03/06/2014  13:02:00     -721.982     -446.662        7.236      381.473      340.556      153.553   145521.827   115978.709    23578.596       50.290       14.254      848.978      184.013        0.047      338.803       11.699      859.511
03/06/2014  13:03:00     -811.610     -580.905      -40.460      377.729      284.709      129.827   142679.117    81059.379    16854.968       61.916       12.030      998.079      140.902        0.020      338.763       11.631      859.547
03/06/2014  13:04:00     -799.229     -522.502      -26.419      348.282      274.496      146.575   121300.479    75348.101    21484.188       56.527       10.907      954.869      158.426        0.028      338.825       11.735      859.490
03/06/2014  13:05:00     -648.275     -476.341        2.568      379.155      296.051      158.619   143758.409    87646.255    25159.900       45.182       12.828      804.463      169.895        0.045      338.880       11.830      859.508
03/06/2014  13:06:00     -618.494     -436.694       -9.588      363.581      248.531      156.788   132191.069    61767.783    24582.455       39.590       10.927      757.123      192.267        0.064      338.910       11.880      859.460
03/06/2014  13:07:00     -532.124     -398.520       -3.747      333.922      274.278      139.705   111503.588    75228.262    19517.488       32.408       10.312      664.811      182.567        0.075      339.036       12.091      859.517
03/06/2014  13:08:00     -834.096     -313.254      -17.722      431.658      333.749      160.419   186328.565   111388.373    25734.154       55.875       16.173      890.979      192.971        0.047      338.882       11.833      859.446
03/06/2014  13:09:00     -753.718     -511.646      -20.510      362.861      334.212      169.634   131668.327   111697.980    28775.586       55.117       13.607      910.974      192.710        0.045      338.741       11.595      859.371
03/06/2014  13:10:00     -526.433     -413.729      -31.919      268.920      245.541      135.259    72317.826    60290.361    18295.086       30.009        7.545      669.555      119.914        0.032      338.898       11.860      859.437
03/06/2014  13:11:00     -581.078     -257.435       -2.327      358.818      286.705      144.178   128750.248    82199.538    20787.173       31.779       11.587      635.551      170.436        0.072      338.931       11.916      859.453
03/06/2014  13:12:00     -393.307     -313.332       20.384      347.160      261.603      154.457   120520.312    68436.052    23856.892       23.301       10.641      502.859      184.199        0.134      339.020       12.065      859.494
03/06/2014  13:13:00     -715.704     -284.123        0.760      367.035      321.898      140.269   134714.649   103618.038    19675.343       42.544       12.900      770.038      173.297        0.051      338.884       11.836      859.434
03/06/2014  13:14:00     -747.482     -467.088      -11.132      496.824      386.311      173.617   246834.108   149236.053    30142.982       60.155       21.311      881.420      216.823        0.061      338.744       11.599      859.402
03/06/2014  13:15:00     -873.634     -464.841      -49.713      388.311      316.940      172.369   150785.752   100451.184    29711.043       63.132       14.047      989.602      174.788        0.031      338.623       11.397      859.284
03/06/2014  13:16:00     -833.371     -344.543      -28.217      495.413      356.429      150.477   245433.707   127041.627    22643.258       60.450       19.756      901.786      176.887        0.038      338.696       11.520      859.325
03/06/2014  13:17:00     -826.745     -397.536      -38.785      395.499      328.283      145.078   156419.407   107769.658    21047.689       56.409       14.262      917.356      164.799        0.032      338.757       11.623      859.322
03/06/2014  13:18:00     -749.444     -311.715       -0.600      417.710      290.743      165.620   174481.281    84531.341    27429.972       47.259       14.322      811.685      199.684        0.061      338.709       11.540      859.389
03/06/2014  13:19:00     -724.245     -404.131      -26.376      329.036      315.787      147.213   108264.694    99721.373    21671.764       45.906       11.483      829.369      143.463        0.030      338.691       11.511      859.425
03/06/2014  13:20:00     -540.633     -383.464      -10.744      350.654      209.319      130.532   122958.548    43814.482    17038.595       31.160        9.191      662.818      133.660        0.041      338.758       11.622      859.480
03/06/2014  13:21:00     -714.405     -460.704        4.394      422.936      310.453      148.713   178874.470    96381.280    22115.446       50.996       14.869      850.072      177.546        0.044      338.654       11.448      859.414
03/06/2014  13:22:00     -644.459     -323.931      -12.912      346.296      308.956      167.006   119921.173    95453.947    27891.145       38.181       12.163      721.289      177.859        0.061      338.680       11.492      859.419
03/06/2014  13:23:00     -730.798     -447.087      -23.785      344.146      289.472      134.468   118436.193    83794.145    18081.726       47.738       11.016      856.710      147.484        0.030      338.638       11.422      859.468
03/06/2014  13:24:00     -583.262     -334.703      -11.180      242.845      220.906      105.414    58973.647    48799.681    11112.068       28.560        5.944      672.474       97.797        0.021      338.851       11.781      859.448
03/06/2014  13:25:00     -804.060     -486.061      -49.687      473.611      353.660      179.993   224307.204   125075.419    32397.300       63.344       19.089      939.557      208.291        0.049      338.650       11.442      859.402
03/06/2014  13:26:00     -658.806     -206.837       -9.798      413.530      247.231      139.222   171006.926    61123.190    19382.641       36.417       12.576      690.512      171.313        0.062      338.827       11.740      859.431
03/06/2014  13:27:00     -569.471     -316.184        6.744      315.885      268.203      120.876    99783.077    71932.853    14610.924       30.529        9.316      651.360      133.939        0.042      338.793       11.684      859.412
03/06/2014  13:28:00     -508.086     -389.985        2.490      297.447      248.545      125.408    88474.430    61774.433    15727.290       28.808        8.299      640.500      142.269        0.049      338.903       11.869      859.489
03/06/2014  13:29:00     -676.182     -266.168      -29.657      331.631      209.250      120.176   109978.937    43785.691    14442.246       34.855        8.410      726.683      143.072        0.039      338.812       11.715      859.456
03/06/2014  13:30:00     -599.379     -247.310        6.122      365.213      367.811      154.572   133380.466   135285.099    23892.531       35.646       14.628      648.396      164.944        0.065      338.914       11.885      859.439
03/06/2014  13:31:00     -602.937     -477.774       17.578      323.050      332.971      152.025   104361.602   110869.942    23111.707       41.519       11.917      769.286      163.948        0.045      338.772       11.648      859.463
03/06/2014  13:32:00     -657.534     -429.536      -11.446      377.134      370.633      151.717   142229.677   137369.110    23018.042       45.975       15.131      785.399      187.399        0.057      338.862       11.800      859.409
03/06/2014  13:33:00     -525.853     -556.492      -17.231      380.988      312.727      178.001   145151.761    97798.080    31684.296       43.052       13.732      765.640      206.273        0.073      338.713       11.548      859.511
03/06/2014  13:34:00     -576.376     -355.215       17.721      426.091      272.260      166.120   181553.529    74125.282    27595.825       37.094       14.164      677.043      192.930        0.081      338.767       11.639      859.508
03/06/2014  13:35:00     -727.513     -485.993      -39.068      286.738      286.780      147.067    82218.710    82242.552    21628.784       47.651        9.305      874.908      127.838        0.021      338.609       11.374      859.506
03/06/2014  13:36:00     -700.288     -327.727      -13.400      467.095      311.018      147.528   218178.050    96731.940    21764.535       46.727       16.834      773.181      194.673        0.063      338.691       11.511      859.507
03/06/2014  13:37:00     -708.361     -233.168      -39.657      346.683      322.252      145.959   120188.924   103846.170    21304.091       40.149       12.267      745.750      165.930        0.050      338.722       11.564      859.461
03/06/2014  13:38:00     -530.994     -224.362        7.737      303.115      296.263      115.342    91878.867    87772.058    13303.765       26.262        9.648      576.448      113.648        0.039      338.888       11.843      859.500
03/06/2014  13:39:00     -815.504     -377.282      -48.790      371.840      375.405      146.465   138265.057   140929.062    21451.943       55.516       15.032      898.547      174.455        0.038      338.568       11.304      859.424
03/06/2014  13:40:00     -584.868     -335.130       -6.980      387.819      307.027      153.367   150403.427    94265.593    23521.493       36.127       13.410      674.079      190.814        0.080      338.762       11.632      859.459
03/06/2014  13:41:00     -775.037     -430.782       -0.119      379.500      336.469      141.631   144020.569   113211.149    20059.363       53.173       13.865      886.711      179.202        0.041      338.641       11.427      859.419
03/06/2014  13:42:00     -787.225     -532.848      -20.165      408.648      345.034      165.367   166993.380   119048.731    27346.404       60.866       15.669      950.605      185.357        0.038      338.649       11.439      859.383
03/06/2014  13:43:00     -512.038     -427.517        1.526      329.010      232.808      157.740   108247.470    54199.561    24881.914       31.611        9.366      667.049      175.187        0.069      338.829       11.744      859.438
03/06/2014  13:44:00     -840.646     -547.613      -25.045      421.689      352.210      162.037   177821.745   124052.125    26256.100       66.759       16.406     1003.278      208.635        0.043      338.432       11.075      859.460
03/06/2014  13:45:00     -729.015     -431.723      -15.445      374.352      303.038      143.571   140139.752    91832.112    20612.555       48.528       12.629      847.259      188.015        0.049      338.585       11.332      859.477
03/06/2014  13:46:00     -482.523     -272.545       12.423      360.384      298.305      154.743   129876.743    88985.783    23945.311       27.499       12.140      554.174      177.707        0.103      338.847       11.775      859.535
03/06/2014  13:47:00     -893.015     -381.142      -66.021      424.440      385.286      179.002   180148.970   148445.166    32041.859       65.380       18.032      970.951      195.220        0.040      338.571       11.308      859.432
03/06/2014  13:48:00     -772.284     -544.615      -41.692      449.911      346.946      152.843   202420.336   120371.293    23360.891       62.039       17.308      945.001      211.170        0.050      338.605       11.366      859.505
03/06/2014  13:49:00     -726.465     -447.786      -31.656      446.238      306.227      147.088   199128.253    93774.870    21634.949       52.184       15.727      853.384      166.695        0.038      338.550       11.275      859.466
03/06/2014  13:50:00     -742.871     -547.113      -36.827      383.802      293.460      155.252   147303.698    86118.957    24103.306       55.498       12.876      922.600      190.820        0.043      338.592       11.346      859.582
03/06/2014  13:51:00     -527.708     -402.427       -5.486      307.114      302.275      137.753    94319.291    91370.196    18976.025       32.252       10.233      663.644      151.753        0.052      338.702       11.529      859.545
03/06/2014  13:52:00     -696.577     -431.434       -5.867      387.574      310.266      148.612   150213.629    96265.070    22085.499       46.992       13.428      819.362      175.658        0.046      338.660       11.460      859.545
03/06/2014  13:53:00     -659.351     -498.269       -0.565      342.391      299.692      172.972   117231.333    89815.397    29919.429       45.994       11.848      826.447      184.712        0.050      338.628       11.405      859.489
03/06/2014  13:54:00     -499.292     -309.392       10.160      315.668      262.009      125.551    99646.074    68648.469    15763.123       26.455        9.203      587.380      148.640        0.064      338.940       11.930      859.587
03/06/2014  13:55:00     -665.484     -300.448        6.354      398.938      308.615      142.981   159151.396    95243.092    20443.467       40.395       13.742      730.163      188.344        0.067      338.880       11.830      859.643
03/06/2014  13:56:00     -628.516     -461.270      -27.828      364.767      332.417      147.088   133054.644   110500.744    21634.741       43.683       13.260      779.617      182.592        0.055      338.686       11.502      859.607
03/06/2014  13:57:00     -671.910     -364.675      -23.208      440.461      265.107      137.354   194006.197    70281.687    18866.232       43.402       14.158      764.494      163.114        0.046      338.724       11.567      859.603
03/06/2014  13:58:00     -899.257     -607.033      -30.202      444.839      368.006      176.926   197882.139   135428.270    31302.891       77.127       18.231     1084.966      215.048        0.039      338.451       11.108      859.651
03/06/2014  13:59:00     -697.907     -497.111      -23.867      430.263      313.942      167.988   185126.194    98559.501    28219.825       52.327       15.595      856.851      212.132        0.061      338.477       11.153      859.674
03/06/2014  14:00:00     -691.476     -241.650      -11.381      400.836      343.384      157.926   160669.662   117912.601    24940.735       42.004       15.176      732.485      151.642        0.043      338.565       11.299      859.817
03/06/2014  14:01:00     -717.467     -432.511      -47.961      411.648      279.710      161.974   169454.103    78237.769    26235.693       48.898       13.696      837.749      178.081        0.045      338.466       11.134      859.784
03/06/2014  14:02:00     -476.905     -202.452        9.386      284.897      209.262      131.280    81166.456    43790.543    17234.309       20.533        7.110      518.098      130.694        0.064      338.810       11.710      859.772
03/06/2014  14:03:00     -352.014     -272.161       12.708      292.529      295.581      159.144    85573.049    87368.036    25326.924       19.817        9.913      444.956      189.504        0.181      338.959       11.963      859.787
03/06/2014  14:04:00     -649.375     -476.344      -27.419      318.326      242.489      134.306   101331.464    58801.011    18037.975       41.372        8.909      805.352      164.615        0.042      338.688       11.506      859.772
03/06/2014  14:05:00     -698.119     -542.168      -11.950      354.501      283.654      161.431   125670.945    80459.609    26059.859       50.678       11.610      883.921      190.116        0.046      338.653       11.446      859.764
03/06/2014  14:06:00     -500.071     -365.602      -11.179      403.619      326.066      146.688   162908.446   106318.751    21517.238       33.724       14.537      619.465      210.808        0.116      338.848       11.776      859.773
03/06/2014  14:07:00     -697.164     -413.748      -22.780      362.087      344.721      154.955   131106.975   118832.905    24011.095       46.579       13.698      810.694      177.686        0.048      338.656       11.453      859.808
03/06/2014  14:08:00     -647.132     -259.702      -13.833      321.065      329.835      144.663   103082.588   108791.330    20927.465       35.956       11.640      697.298      157.470        0.051      338.685       11.501      859.835
03/06/2014  14:09:00     -613.126     -268.541      -18.457      311.590      237.212      125.705    97088.068    56269.480    15801.832       30.873        8.458      669.357      130.920        0.038      338.779       11.659      859.834
03/06/2014  14:10:00     -573.847     -227.254       -4.491      337.382      284.741      148.845   113826.464    81077.290    22154.813       29.897       10.853      617.208      172.713        0.078      338.727       11.571      859.810
03/06/2014  14:11:00     -717.736     -417.255      -12.613      327.439      285.729      143.145   107216.512    81641.296    20490.385       44.934       10.467      830.209      148.259        0.032      338.627       11.403      859.823
03/06/2014  14:12:00     -817.474     -493.923      -18.549      418.927      302.113      165.618   175499.474    91272.163    27429.277       60.333       14.710      955.104      209.754        0.048      338.472       11.142      859.771
03/06/2014  14:13:00     -665.902     -296.464       -8.816      337.064      240.694      125.328   113612.187    57933.666    15707.082       35.929        9.363      728.915      147.972        0.041      338.752       11.614      859.841
03/06/2014  14:14:00     -573.809     -320.924       -7.469      341.225      238.081      131.644   116434.541    56682.443    17330.066       31.134        9.522      657.457      166.778        0.064      338.731       11.577      859.821
03/06/2014  14:15:00     -532.578     -338.701        6.403      330.636      270.038      157.441   109320.305    72920.652    24787.687       30.267       10.351      631.156      163.640        0.067      338.736       11.588      859.805
03/06/2014  14:16:00     -534.745     -309.788       -5.452      317.290      273.277      122.902   100673.076    74680.340    15104.986       28.617        9.523      617.998      120.163        0.038      338.670       11.477      859.824
03/06/2014  14:17:00     -771.239     -441.896      -20.416      400.728      351.503      161.145   160583.253   123554.605    25967.755       55.024       15.505      888.865      192.916        0.047      338.438       11.085      859.744
03/06/2014  14:18:00     -622.819     -372.043        9.858      391.205      307.842      184.700   153041.223    94766.847    34114.127       40.411       14.096      725.479      217.085        0.090      338.452       11.109      859.730
03/06/2014  14:19:00     -589.219     -360.933       -7.996      342.561      261.517      132.518   117347.984    68391.241    17561.095       34.037       10.165      690.979      174.189        0.064      338.608       11.372      859.772
03/06/2014  14:20:00     -594.377     -373.523       -7.076      303.862      330.364      127.201    92332.154   109140.151    16180.078       35.521       10.883      702.000      151.801        0.047      338.555       11.283      859.794
03/06/2014  14:21:00     -922.038     -603.143      -43.024      415.253      344.400      170.572   172435.107   118611.164    29094.707       76.790       16.007     1101.787      182.651        0.027      338.419       11.053      859.731
03/06/2014  14:22:00     -971.678     -557.606      -36.559      445.474      329.479      156.392   198447.410   108556.336    24458.331       79.387       16.573     1120.305      177.870        0.025      338.247       10.766      859.736
03/06/2014  14:23:00     -670.288     -448.992      -14.875      382.725      321.455      158.703   146478.753   103333.017    25186.575       46.300       13.750      806.771      188.921        0.055      338.266       10.797      859.829
03/06/2014  14:24:00     -791.837     -461.311      -35.454      313.913      326.401      140.814    98541.497   106537.290    19828.446       53.294       11.245      916.413      126.009        0.019      338.227       10.731      859.800
03/06/2014  14:25:00     -511.069     -334.884      -11.209      319.744      264.920      133.226   102236.229    70182.664    17749.212       28.178        9.508      611.015      153.722        0.063      338.447       11.100      859.743
03/06/2014  14:26:00     -782.377     -501.661      -24.914      396.738      279.003      150.390   157401.290    77842.883    22617.236       56.108       12.893      929.397      165.033        0.032      338.328       10.900      859.753
03/06/2014  14:27:00     -670.003     -448.930       13.557      300.894      266.304      145.548    90537.136    70917.617    21184.321       41.660        9.132      806.500      137.683        0.029      338.428       11.068      859.711
03/06/2014  14:28:00     -841.481     -505.718      -16.235      435.414      318.759      170.618   189585.230   101607.087    29110.669       64.214       16.015      981.754      193.105        0.039      338.296       10.848      859.663
03/06/2014  14:29:00     -646.490     -336.263       -3.781      347.595      316.214      149.663   120821.966    99991.602    22399.074       38.708       12.161      728.712      179.139        0.060      338.364       10.963      859.714
03/06/2014  14:30:00     -652.142     -299.353        4.818      414.559      287.744      152.136   171858.965    82796.816    23145.413       39.631       13.890      717.567      199.165        0.077      338.434       11.078      859.687
03/06/2014  14:31:00     -763.713     -442.199      -40.974      373.680      265.839      153.926   139637.074    70670.122    23693.195       50.719       11.700      882.495      161.153        0.033      338.355       10.945      859.718
03/06/2014  14:32:00     -657.527     -602.090       -9.645      377.513      299.198      171.729   142515.985    89519.444    29490.943       52.818       13.076      891.546      186.040        0.044      338.258       10.784      859.754
03/06/2014  14:33:00     -778.006     -445.961      -11.073      397.086      327.643      153.003   157677.484   107350.189    23409.897       54.631       14.422      896.758      190.993        0.045      338.261       10.789      859.798
03/06/2014  14:34:00     -635.886     -473.203      -14.246      311.912      253.885      133.522    97289.170    64457.500    17828.251       40.399        8.979      792.636      141.801        0.032      338.229       10.734      859.825
03/06/2014  14:35:00     -698.252     -392.047      -20.219      319.287      278.450      146.446   101943.942    77534.466    21446.504       42.126       10.046      800.785      176.290        0.048      338.244       10.760      859.798
03/06/2014  14:36:00     -738.804     -406.904       -6.509      383.384      285.279      152.319   146983.188    81383.920    23201.069       48.146       12.578      843.447      177.874        0.044      338.299       10.851      859.778
03/06/2014  14:37:00     -714.990     -449.955      -25.008      265.095      288.950      136.575    70275.546    83491.887    18652.793       44.332        8.621      844.790      136.426        0.026      338.314       10.877      859.780
03/06/2014  14:38:00     -586.888     -367.928      -25.914      336.186      226.341      137.501   113021.182    51230.091    18906.485       33.178        9.158      692.682      157.789        0.052      338.353       10.944      859.753
03/06/2014  14:39:00     -726.646     -267.806      -23.525      360.677      331.295      158.296   130087.552   109756.254    25057.720       43.254       13.245      774.426      195.006        0.063      338.334       10.911      859.687
03/06/2014  14:40:00     -551.953     -243.789      -16.464      331.367      277.517      132.824   109804.115    77015.508    17642.089       28.437       10.223      603.395      164.852        0.075      338.443       11.094      859.700
03/06/2014  14:41:00     -485.704     -351.317       -7.122      300.418      257.856      129.988    90251.255    66489.480    16896.784       26.648        8.682      599.442      139.589        0.054      338.448       11.104      859.723
03/06/2014  14:42:00     -473.921     -348.350      -19.579      365.049      268.124      171.495   133260.719    71890.371    29410.388       29.040       11.728      588.174      197.209        0.112      338.442       11.093      859.688
03/06/2014  14:43:00     -639.492     -361.181       12.771      410.937      303.872      153.933   168869.539    92338.435    23695.305       41.218       14.245      734.440      200.403        0.074      338.323       10.893      859.696
03/06/2014  14:44:00     -661.724     -268.806        6.647      307.953      338.570      149.438    94835.089   114629.311    22331.682       37.094       11.590      714.237      165.235        0.054      338.288       10.833      859.642
03/06/2014  14:45:00     -734.662     -383.051      -35.186      369.122      284.589      152.566   136250.699    80990.909    23276.437       46.406       12.026      828.527      179.772        0.047      338.329       10.902      859.593
03/06/2014  14:46:00     -305.315     -153.974       20.489      215.187      208.645      107.017    46305.359    43532.771    11452.624       10.930        5.065      341.943      119.915        0.123      338.608       11.372      859.584
03/06/2014  14:47:00     -584.832     -247.553      -25.663      300.905      234.690      126.950    90543.702    55079.399    16116.188       28.282        8.087      635.068      142.592        0.050      338.449       11.104      859.570
03/06/2014  14:48:00     -521.141     -178.326      -15.162      310.905      217.215      110.998    96661.622    47182.198    12320.522       22.986        7.808      550.806      134.612        0.060      338.441       11.091      859.578
03/06/2014  14:49:00     -541.112     -328.876       -3.635      358.493      268.545      147.222   128516.933    72116.237    21674.444       31.160       11.115      633.215      173.338        0.075      338.459       11.121      859.635
03/06/2014  14:50:00     -468.493     -360.404       -4.611      268.927      202.864      127.530    72321.769    41153.840    16263.877       23.954        6.487      591.081      128.640        0.047      338.458       11.119      859.712
03/06/2014  14:51:00     -445.478     -339.829      -24.305      249.923      194.905      116.943    62461.698    37987.821    13675.688       21.430        5.706      560.298      121.132        0.047      338.626       11.402      859.846
03/06/2014  14:52:00     -383.107     -162.227        1.582      243.411      205.652       96.215    59249.000    42292.831     9257.315       14.192        5.540      416.039      113.682        0.075      338.789       11.677      859.947
03/06/2014  14:53:00     -343.267     -158.022       -6.771      255.986      199.518       91.369    65528.941    39807.274     8348.256       12.824        5.684      377.893      109.728        0.084      338.845       11.771      860.047
03/06/2014  14:54:00     -553.319     -205.504      -30.513      350.713      218.174      138.192   122999.308    47599.728    19096.961       26.947        9.485      590.249      150.465        0.065      338.655       11.450      860.039
03/06/2014  14:55:00     -534.130     -231.947        3.210      324.798      221.133      144.021   105493.432    48899.994    20741.909       25.708        8.757      582.318      165.647        0.081      338.563       11.296      860.052
03/06/2014  14:56:00     -575.606      -10.446       -8.734      340.114      257.534      127.072   115677.635    66323.664    16147.284       26.479        9.907      575.701      148.313        0.066      338.721       11.562      860.084
03/06/2014  14:57:00     -338.727     -134.659        3.661      341.999      214.077      129.305   116962.997    45829.027    16719.867       15.616        8.976      364.512      156.274        0.184      338.815       11.720      860.076
03/06/2014  14:58:00     -567.137     -349.048        4.155      369.809      319.017      178.247   136758.838   101771.571    31772.044       35.685       13.515      665.942      204.121        0.094      338.479       11.155      859.996
03/06/2014  14:59:00     -482.873     -362.299      -24.180      360.298      281.825      177.880   129814.658    79425.147    31641.298       30.290       12.044      603.678      191.605        0.101      338.429       11.070      859.982
03/06/2014  15:00:00     -727.091     -434.354      -31.479      360.449      278.362      139.347   129923.709    77485.456    19417.524       47.253       11.341      846.950      161.687        0.036      338.359       10.951      860.016
03/06/2014  15:01:00     -507.581     -337.008        1.556      265.154      241.427      144.112    70306.688    58286.974    20768.143       26.026        7.468      609.273      152.541        0.063      338.424       11.063      859.999
03/06/2014  15:02:00     -446.088     -253.564        5.383      336.761      236.557      156.229   113407.668    55959.414    24407.417       22.851        9.689      513.117      169.621        0.109      338.482       11.161      859.994
03/06/2014  15:03:00     -434.655     -291.383       -5.396      389.986      345.024      128.569   152089.167   119041.607    16530.051       28.070       14.383      523.286      158.673        0.092      338.612       11.380      859.969
03/06/2014  15:04:00     -565.482     -230.601      -21.898      327.424      280.167      136.899   107206.697    78493.312    18741.445       28.889       10.222      610.694      164.323        0.072      338.430       11.072      859.999
03/06/2014  15:05:00     -630.593     -456.118      -30.843      362.005      311.170      154.888   131047.264    96826.688    23990.143       42.920       12.593      778.262      179.098        0.053      338.298       10.851      859.973
03/06/2014  15:06:00     -632.013     -225.041      -26.438      357.009      223.904      119.732   127455.419    50133.033    14335.667       32.131        9.596      670.883      134.830        0.040      338.437       11.085      860.002
03/06/2014  15:07:00     -612.812     -299.597       -5.031      308.696      184.620      119.287    95293.461    34084.367    14229.440       30.444        7.180      682.126      142.086        0.043      338.459       11.121      860.074
03/06/2014  15:08:00     -714.241     -447.374      -32.031      304.794      230.263      142.522    92899.230    53020.971    20312.446       43.874        8.312      842.783      144.999        0.030      338.358       10.952      860.039
03/06/2014  15:09:00     -664.652     -354.430      -48.775      357.415      274.062      144.814   127745.299    75109.855    20971.086       39.675       11.191      753.248      154.450        0.042      338.326       10.898      859.975
03/06/2014  15:10:00     -476.678     -158.642       -0.726      334.442      260.137      135.363   111851.348    67671.371    18323.138       22.508        9.892      502.384      161.237        0.103      338.522       11.227      859.979
03/06/2014  15:11:00     -502.728     -328.172       -6.692      344.655      223.939      131.651   118787.217    50148.744    17332.012       27.334        9.313      600.360      145.381        0.059      338.454       11.113      859.943
03/06/2014  15:12:00     -497.596     -378.695      -10.963      299.079      237.411      129.373    89448.209    56363.946    16737.298       27.681        8.127      625.309      146.913        0.055      338.474       11.146      859.949
03/06/2014  15:13:00     -572.521     -180.326       -6.508      302.248      244.100      127.078    91353.868    59584.832    16148.900       26.368        8.354      600.248      147.207        0.060      338.480       11.157      859.923
03/06/2014  15:14:00     -650.117     -327.056      -14.770      377.187      266.118      135.205   142269.762    70818.643    18280.477       38.056       11.568      727.748      137.895        0.036      338.387       11.001      859.948
03/06/2014  15:15:00     -491.407     -345.949        9.931      318.058      249.811      141.375   101160.815    62405.499    19986.800       27.237        9.178      600.967      163.686        0.074      338.361       10.957      859.876
03/06/2014  15:16:00     -455.495     -297.662       -8.461      330.367      247.308      146.583   109142.513    61161.029    21486.695       24.393        9.590      544.131      185.534        0.116      338.346       10.932      859.849
03/06/2014  15:17:00     -642.746     -253.039      -21.345      337.498      264.277      142.455   113905.132    69842.144    20293.306       34.078       10.202      690.761      156.475        0.051      338.358       10.952      859.854
03/06/2014  15:18:00     -424.475     -231.896       26.155      436.896      237.086      157.008   190877.787    56209.959    24651.483       25.313       13.587      483.689      209.839        0.188      338.366       10.966      859.810
03/06/2014  15:19:00     -592.339     -356.874       -9.490      358.982      256.587      135.315   128867.824    65836.821    18310.080       34.562       10.651      691.538      158.788        0.053      338.406       11.032      859.810
03/06/2014  15:20:00     -524.601     -256.144       13.957      391.965      233.613      135.675   153636.472    54574.891    18407.670       28.377       11.331      583.794      166.928        0.082      338.466       11.133      859.823
03/06/2014  15:21:00     -506.823     -263.697      -13.427      331.578      240.284      144.250   109944.123    57736.569    20808.118       25.750        9.424      571.320      161.338        0.080      338.446       11.101      859.761
03/06/2014  15:22:00     -554.588     -233.332       -6.547      278.648      229.025      124.742    77644.540    52452.332    15560.633       25.383        7.283      601.674      147.707        0.060      338.496       11.184      859.760
03/06/2014  15:23:00     -506.995     -191.383        1.821      342.710      271.368      142.815   117450.138    73640.352    20396.004       25.254       10.574      541.914      175.779        0.105      338.484       11.163      859.810
03/06/2014  15:24:00     -647.123     -344.465      -26.948      355.624      283.478      144.474   126468.654    80359.584    20872.732       38.288       11.385      733.092      156.961        0.046      338.264       10.794      859.754
03/06/2014  15:25:00     -715.714     -254.676      -28.460      335.325      315.223      142.955   112442.830    99365.410    20436.189       40.503       11.612      759.675      165.433        0.047      338.254       10.779      859.743
03/06/2014  15:26:00     -640.449     -379.408      -22.178      332.127      255.613      138.196   110308.574    65338.174    19098.086       37.464        9.737      744.396      150.998        0.041      338.238       10.750      859.769
03/06/2014  15:27:00     -455.583     -211.283       25.806      335.190      268.421      152.996   112352.199    72049.749    23407.791       23.029       10.390      502.192      185.709        0.137      338.434       11.080      859.737
03/06/2014  15:28:00     -364.154     -263.216       19.154      293.062      265.609      137.748    85885.210    70548.196    18974.418       18.880        8.770      449.323      154.942        0.119      338.496       11.184      859.794
03/06/2014  15:29:00     -544.443     -210.906       -6.300      303.963      232.207      111.457    92393.465    53920.297    12422.757       24.981        7.937      583.866      137.866        0.056      338.436       11.083      859.818
03/06/2014  15:30:00     -630.038     -198.569      -19.384      267.188      249.932      115.828    71389.334    62465.870    13416.061       29.198        7.364      660.589      129.024        0.038      338.378       10.984      859.818
03/06/2014  15:31:00     -548.565     -324.138       -3.369      366.810      310.495      127.678   134549.659    96407.192    16301.757       32.658       12.363      637.173      156.481        0.060      338.312       10.875      859.850
03/06/2014  15:32:00     -569.777     -350.494       -9.740      329.078      238.732      130.527   108292.341    56993.009    17037.192       31.492        9.116      668.948      125.987        0.035      338.157       10.614      859.756
03/06/2014  15:33:00     -734.599     -314.663      -25.795      286.574      258.439      126.989    82124.934    66790.612    16126.213       40.215        8.252      799.155      135.596        0.029      338.214       10.710      859.781
03/06/2014  15:34:00     -409.271     -147.247       22.305      278.774      211.164      137.978    77714.715    44590.095    19037.823       16.548        7.067      434.953      148.121        0.116      338.387       11.000      859.764
03/06/2014  15:35:00     -486.702     -278.767      -28.771      286.984      235.968      121.304    82359.815    55680.964    14714.725       23.406        7.638      560.884      124.493        0.049      338.334       10.912      859.722
03/06/2014  15:36:00     -641.408     -163.015      -34.724      259.401      214.938      117.540    67289.009    46198.553    13815.723       28.322        6.365      661.799      117.181        0.031      338.215       10.712      859.798
03/06/2014  15:37:00     -563.493     -350.357      -25.424      223.977      194.883       94.815    50165.833    37979.208     8989.858       26.901        4.857      663.532      100.996        0.023      338.246       10.765      859.794
03/06/2014  15:38:00     -484.669     -145.113      -26.516      251.443      157.175      102.306    63223.787    24704.050    10466.474       17.751        4.920      505.927      122.772        0.059      338.391       11.008      859.856
03/06/2014  15:39:00     -331.774     -194.844       -2.202      232.868      209.332      108.374    54227.338    43819.876    11744.867       12.890        5.490      384.757      108.414        0.079      338.472       11.143      859.933
03/06/2014  15:40:00     -386.787     -272.742        0.620      225.681      231.781      122.561    50931.814    53722.211    15021.243       17.181        5.984      473.278      140.211        0.088      338.263       10.792      859.955
03/06/2014  15:41:00     -442.090      -44.918      -40.632      252.648      175.044       98.911    63830.928    30640.308     9783.477       15.166        5.213      444.366      118.554        0.071      338.375       10.981      859.974
03/06/2014  15:42:00     -510.066     -136.408       -2.893      290.521      224.926      101.908    84402.378    50591.730    10385.140       21.205        7.269      527.991      127.779        0.059      338.435       11.081      860.006
03/06/2014  15:43:00     -394.689     -190.311      -19.147      214.693      163.351       87.134    46093.245    26683.549     7592.265       13.635        4.018      438.176       85.236        0.038      338.378       10.986      860.011
03/06/2014  15:44:00     -447.634     -169.519        0.386      275.062      202.438      118.208    75658.839    40981.056    13973.040       17.984        6.531      478.657      117.408        0.060      338.407       11.034      859.985
03/06/2014  15:45:00     -593.375     -174.715      -24.811      274.689      169.886      107.792    75453.808    28861.328    11619.141       24.956        5.797      618.563      106.213        0.029      338.384       10.995      860.004
03/06/2014  15:46:00     -398.727     -196.194      -10.762      194.680      177.057       79.485    37900.273    31349.155     6317.902       13.656        3.778      444.382       81.210        0.033      338.515       11.215      860.043
03/06/2014  15:47:00     -468.237     -345.323      -17.670      291.774      202.693      131.123    85132.181    41084.304    17193.166       24.108        7.170      581.803      124.502        0.046      338.358       10.951      860.058
03/06/2014  15:48:00     -398.021     -189.137        1.731      204.493      202.783      105.079    41817.474    41120.745    11041.539       14.407        4.699      440.674      101.247        0.053      338.194       10.676      860.106
03/06/2014  15:49:00     -443.073     -244.939      -23.443      221.161      168.399      100.049    48912.274    28358.230    10009.897       17.205        4.364      506.269      102.792        0.041      338.196       10.680      860.127
03/06/2014  15:50:00     -346.039     -189.860      -20.127      216.088      152.746       89.680    46693.834    23331.451     8042.437       11.712        3.903      394.702      106.614        0.073      338.352       10.943      860.148
03/06/2014  15:51:00     -350.115     -149.374        7.333      231.966      185.323       89.048    53808.307    34344.463     7929.631       12.050        4.804      380.649      104.889        0.076      338.485       11.166      860.134
03/06/2014  15:52:00     -486.579     -304.429      -28.083      210.130      169.783       97.356    44154.574    28826.168     9478.139       20.633        4.123      573.965       90.738        0.025      338.304       10.861      860.120
03/06/2014  15:53:00     -309.506     -197.892        2.717      214.599      205.894      106.983    46052.583    42392.173    11445.436       11.741        4.995      367.363      122.268        0.111      338.326       10.898      860.095
03/06/2014  15:54:00     -335.762      -19.286       -1.601      230.762      207.335      107.313    53251.319    42987.815    11516.183       11.041        5.388      336.316      112.798        0.112      338.535       11.248      860.096
03/06/2014  15:55:00     -600.859      -49.782      -28.405      237.052      221.717       98.868    56193.650    49158.484     9774.934       23.970        5.756      602.918      113.088        0.035      338.098       10.515      860.109
03/06/2014  15:56:00     -435.871     -283.872      -15.721      225.943      231.925      116.047    51050.027    53789.255    13466.815       19.454        5.915      520.160      122.408        0.055      338.124       10.559      860.156
03/06/2014  15:57:00     -488.514     -282.273      -10.486      208.340      240.022       97.709    43405.619    57610.763     9546.997       21.448        5.528      564.202       96.491        0.029      338.110       10.535      860.177
03/06/2014  15:58:00     -535.532     -396.489      -18.440      301.894      217.099      114.959    91140.284    47132.105    13215.614       29.788        7.574      666.331      131.249        0.039      337.934       10.241      860.122
03/06/2014  15:59:00     -486.560     -166.075      -12.639      295.343      216.749       91.536    87227.693    46980.075     8378.765       20.351        7.129      514.122      117.799        0.052      338.198       10.683      860.144
03/06/2014  16:00:00     -222.812      -52.525       -0.172      144.061      180.542       83.618    20753.628    32595.393     6991.942        5.636        3.017      228.920       73.344        0.103      338.523       11.228      860.188
03/06/2014  16:01:00     -595.241     -207.064      -20.336      309.665      282.885      117.254    95892.651    80023.840    13748.527       29.359        9.483      630.228      138.465        0.048      338.216       10.713      860.212
03/06/2014  16:02:00     -389.462     -131.827      -16.195      253.182      168.852       94.666    64100.991    28511.134     8961.682       13.543        5.079      411.168      114.634        0.078      338.198       10.684      860.217
03/06/2014  16:03:00     -700.400     -149.623      -22.639      321.131      255.832      138.319   103125.422    65449.902    19132.246       35.055        9.385      716.204      167.200        0.055      338.014       10.374      860.202
03/06/2014  16:04:00     -538.323     -157.207       -3.755      284.446      220.179      116.521    80909.577    48478.614    13577.128       22.871        7.148      560.808      117.869        0.044      338.100       10.520      860.265
03/06/2014  16:05:00     -482.057     -121.146        2.076      232.595      220.780      117.476    54100.297    48743.588    13800.722       18.183        5.832      497.047      128.564        0.067      338.075       10.476      860.301
03/06/2014  16:06:00     -599.939     -169.364        0.005      326.596      242.441      126.289   106664.936    58777.702    15948.868       28.497        9.070      623.387      164.239        0.069      337.923       10.223      860.261
03/06/2014  16:07:00     -776.753     -376.014      -41.591      318.036      249.660      139.220   101146.581    62330.278    19382.079       46.462        9.143      862.978      154.921        0.032      337.790        9.998      860.212
03/06/2014  16:08:00     -479.828     -235.872       -5.276      232.357      197.388      109.978    53989.557    38962.149    12095.158       19.545        5.252      534.668      117.448        0.048      338.043       10.423      860.290
03/06/2014  16:09:00     -641.602     -174.076       -6.603      328.033      247.072      141.950   107605.904    61044.453    20149.698       31.536        9.440      664.798      161.977        0.059      337.861       10.118      860.278
03/06/2014  16:10:00     -617.967     -231.441      -17.492      284.543      258.015      117.542    80964.797    66571.863    13816.158       29.852        8.068      659.885      118.089        0.032      337.860       10.115      860.274
03/06/2014  16:11:00     -631.447     -353.800      -12.789      317.045      249.964      139.392   100517.776    62481.908    19429.995       35.321        9.121      723.810      128.190        0.031      337.787        9.994      860.311
03/06/2014  16:12:00     -661.254     -312.031      -20.148      314.000      299.547      140.965    98595.980    89728.432    19871.111       37.157       10.410      731.178      166.795        0.052      337.793       10.002      860.345
03/06/2014  16:13:00     -568.784     -272.577       -1.332      337.045      209.987      138.633   113599.178    44094.384    19219.145       28.733        8.846      630.724      170.462        0.073      337.762        9.950      860.378
03/06/2014  16:14:00     -512.963     -315.639       11.675      383.036      303.808      148.780   146716.345    92299.096    22135.622       31.197       13.058      602.295      190.928        0.100      337.781        9.984      860.376
03/06/2014  16:15:00     -833.129     -343.726      -27.549      345.427      255.055      138.063   119319.996    65053.232    19061.486       50.818       10.172      901.250      143.758        0.025      337.597        9.675      860.332
03/06/2014  16:16:00     -634.344     -166.328      -35.377      292.226      237.902      121.604    85396.289    56597.351    14787.592       29.401        7.839      655.788      143.011        0.048      337.705        9.857      860.319
03/06/2014  16:17:00     -721.344     -369.807      -16.484      404.583      314.641      145.107   163687.176    98998.796    21056.171       47.050       14.187      810.614      166.342        0.042      337.593        9.668      860.237
03/06/2014  16:18:00     -535.100     -139.604      -12.542      299.311      209.065      115.812    89587.090    43708.191    13412.508       22.631        7.335      553.011      129.627        0.055      337.707        9.860      860.186
03/06/2014  16:19:00     -435.594     -171.489        2.252      257.610      250.099       99.965    66362.785    62549.642     9993.039       17.900        6.945      468.135      106.786        0.052      337.861       10.118      860.222
03/06/2014  16:20:00     -681.654     -479.618      -22.497      397.926      335.151      168.891   158345.350   112326.424    28524.018       49.713       14.960      833.478      209.186        0.063      337.614        9.703      860.180
03/06/2014  16:21:00     -623.495     -402.509      -14.808      410.207      338.837      180.238   168269.446   114810.255    32485.860       43.321       15.778      742.132      213.061        0.082      337.474        9.469      860.221
03/06/2014  16:22:00     -592.449     -207.806       17.708      371.518      351.408      163.047   138025.341   123487.878    26584.471       34.124       14.405      627.837      184.414        0.086      337.466        9.456      860.291
03/06/2014  16:23:00     -747.870     -442.561       -3.051      391.520      287.226      157.140   153288.153    82498.693    24693.116       50.778       13.024      869.005      188.356        0.047      337.338        9.241      860.400
03/06/2014  16:24:00     -570.667     -367.653        5.131      345.356      270.728      147.491   119270.915    73293.602    21753.595       33.755       10.716      678.845      180.561        0.071      337.381        9.313      860.528
03/06/2014  16:25:00     -708.954     -398.606      -15.518      452.385      313.268      168.698   204652.217    98136.750    28458.964       49.643       16.562      813.329      220.975        0.074      337.229        9.059      860.547
03/06/2014  16:26:00     -507.716     -321.930        0.366      296.504      224.852      122.934    87914.368    50558.198    15112.806       25.747        7.679      601.178      152.791        0.065      337.258        9.108      860.636
03/06/2014  16:27:00     -606.853     -321.048      -15.709      396.540      318.404      169.110   157243.878   101381.211    28598.084       37.935       14.361      686.544      186.319        0.074      337.111        8.862      860.636
03/06/2014  16:28:00     -553.501     -340.780      -13.622      418.500      266.322      164.673   175142.449    70927.649    27117.200       34.788       13.659      649.996      213.247        0.108      337.067        8.788      860.591
03/06/2014  16:29:00     -644.700     -260.832      -30.157      375.021      244.190      128.340   140640.687    59628.807    16471.226       35.062       10.837      695.465      147.067        0.045      337.028        8.723      860.650
03/06/2014  16:30:00     -456.797     -250.877      -11.505      324.666      276.576      127.964   105407.907    76494.369    16374.818       23.497        9.914      521.155      151.485        0.084      337.064        8.783      860.667
03/06/2014  16:31:00     -626.989     -466.382      -12.088      353.299      290.278      156.029   124819.955    84261.153    24345.157       42.205       11.671      781.427      190.131        0.059      336.831        8.393      860.678
03/06/2014  16:32:00     -399.811     -212.046        0.056      218.534      204.793      105.414    47757.130    41940.156    11112.215       15.279        5.040      452.562      113.649        0.063      337.026        8.719      860.682
03/06/2014  16:33:00     -423.125     -241.112      -12.114      209.405      197.815      120.361    43850.475    39130.863    14486.688       16.737        4.873      487.001      115.513        0.056      336.992        8.661      860.687
03/06/2014  16:34:00     -487.990     -141.103      -25.471      316.221      208.426      122.738    99995.560    43441.309    15064.692       20.857        7.925      507.980      146.160        0.083      337.024        8.715      860.629
03/06/2014  16:35:00     -401.038     -250.149       -9.383      218.055      139.006       84.282    47548.192    19322.695     7103.443       14.872        3.699      472.659       91.096        0.037      337.020        8.710      860.663
03/06/2014  16:36:00     -246.713     -134.402        8.062      255.602      174.167      115.844    65332.572    30334.315    13419.725        9.402        5.454      280.947      132.671        0.223      337.114        8.865      860.669
03/06/2014  16:37:00     -423.924     -162.805      -12.887      258.518      178.011       98.336    66831.629    31687.746     9670.016       15.726        5.409      454.111      104.357        0.053      337.071        8.794      860.668
03/06/2014  16:38:00     -424.777     -195.183       -5.673      290.829      175.334      114.611    84581.641    30742.074    13135.708       17.349        6.423      467.474      142.606        0.093      337.020        8.709      860.703
03/06/2014  16:39:00     -526.640     -225.067      -28.625      222.327      206.820      110.882    49429.186    42774.680    12294.718       21.664        5.225      572.717      116.096        0.041      336.953        8.596      860.716
03/06/2014  16:40:00     -435.746     -187.965      -15.919      178.023      228.947      107.794    31692.144    52416.788    11619.489       16.057        4.786      474.558      102.571        0.047      336.975        8.635      860.705
03/06/2014  16:41:00     -510.135     -228.540       -8.853      266.139      204.289      117.367    70829.950    41734.163    13774.986       21.942        6.317      558.989      121.396        0.047      336.885        8.482      860.700
03/06/2014  16:42:00     -533.622      -38.210      -17.653      286.162      175.730      111.223    81888.589    30881.059    12370.649       20.581        6.257      534.988      133.359        0.062      336.881        8.477      860.713
03/06/2014  16:43:00     -408.110     -157.849      -22.387      278.735      234.762      111.509    77692.972    55113.115    12434.323       16.858        7.262      437.573      123.276        0.079      336.883        8.480      860.709
03/06/2014  16:44:00     -305.466     -192.520       -5.021      203.569      165.095       91.242    41440.414    27256.225     8325.039       10.369        3.851      361.073      107.791        0.089      337.007        8.688      860.733
03/06/2014  16:45:00     -308.236      -69.049       11.750      256.887      184.356      107.001    65991.003    33987.017    11449.124       10.565        5.571      315.875      132.036        0.175      337.081        8.812      860.757
03/06/2014  16:46:00     -493.627     -127.431       -5.534      262.431      208.465      105.815    68870.057    43457.714    11196.834       19.171        6.176      509.811      116.400        0.052      336.998        8.672      860.757
03/06/2014  16:47:00     -557.486     -124.469       -3.508      210.419      208.239       95.974    44275.981    43363.339     9211.057       21.155        4.843      571.212       89.969        0.025      336.931        8.560      860.763
03/06/2014  16:48:00     -484.436     -190.129      -26.290      197.579      218.247       93.244    39037.486    47631.705     8694.479       18.342        4.768      520.411      103.291        0.039      336.968        8.622      860.776
03/06/2014  16:49:00     -433.344     -136.777       -9.705      230.531      225.150       92.254    53144.347    50692.332     8510.752       15.945        5.617      454.417      111.506        0.060      337.082        8.814      860.795
03/06/2014  16:50:00     -302.593     -128.306        0.348      238.004      190.150      107.046    56646.126    36156.998    11458.762       10.612        5.213      328.672      115.417        0.123      337.137        8.905      860.837
03/06/2014  16:51:00     -536.451     -233.121      -25.748      259.212      268.445      103.324    67190.922    72062.883    10675.881       24.633        7.496      584.914      135.385        0.054      337.063        8.781      860.856
03/06/2014  16:52:00     -329.466     -138.637       -0.710      195.343      195.716      103.629    38158.975    38304.818    10738.948       10.747        4.360      357.446      100.553        0.079      337.257        9.106      860.837
03/06/2014  16:53:00     -367.053     -253.300      -18.666      230.404      210.280      100.490    53085.949    44217.743    10098.249       15.330        5.370      445.970      105.426        0.056      337.119        8.876      860.864
03/06/2014  16:54:00     -500.168      -77.316      -27.771      280.843      175.360      108.076    78872.652    30751.280    11680.509       18.909        6.065      506.109      109.818        0.047      337.155        8.936      860.812
03/06/2014  16:55:00     -573.958     -206.083      -30.049      263.716      243.050      124.199    69546.329    59073.149    15425.485       25.839        7.202      609.834      143.982        0.056      337.058        8.773      860.792
03/06/2014  16:56:00     -507.984     -163.817      -26.024      195.116      226.442       99.466    38070.141    51276.123     9893.402       19.238        4.962      533.745       81.278        0.023      337.119        8.874      860.833
03/06/2014  16:57:00     -474.969     -225.053      -19.858      231.279      231.586      109.975    53489.798    53631.915    12094.570       19.790        5.961      525.589      130.993        0.062      337.094        8.833      860.833
03/06/2014  16:58:00     -339.741     -168.836      -13.424      246.452      146.355       97.148    60738.735    21419.643     9437.772       11.783        4.580      379.381      116.396        0.094      337.147        8.922      860.895
03/06/2014  16:59:00     -463.020     -315.846      -13.105      299.455      273.152      121.647    89673.374    74611.896    14797.959       24.667        8.954      560.488      151.746        0.073      337.100        8.844      860.886
03/06/2014  17:00:00     -489.810     -160.059      -11.724      225.264      212.316      111.711    50744.014    45078.061    12479.362       18.696        5.415      515.299      124.234        0.058      337.091        8.828      860.907
03/06/2014  17:01:00     -388.092     -295.572       20.899      313.357      223.141      135.482    98192.495    49791.699    18355.500       20.234        8.317      487.830      165.751        0.115      337.084        8.816      860.942
03/06/2014  17:02:00     -309.447     -161.999       14.969      296.134      179.002      109.072    87695.196    32041.676    11896.717       12.690        6.582      349.287      123.115        0.124      337.076        8.804      860.975
03/06/2014  17:03:00     -598.045     -322.525      -13.916      305.166      274.502      136.504    93126.331    75351.110    18633.432       32.445        9.356      679.471      157.673        0.054      336.955        8.600      860.898
03/06/2014  17:04:00     -537.306      -28.085      -24.250      234.362      153.816      103.160    54925.639    23659.513    10641.886       18.963        4.461      538.040      110.768        0.042      336.980        8.641      860.987
03/06/2014  17:05:00     -287.531      -57.886       14.865      192.840      153.009       84.892    37187.321    23411.782     7206.623        7.701        3.390      293.300       86.969        0.088      337.035        8.734      860.997
03/06/2014  17:06:00     -335.664     -195.210        2.984      214.761      183.135       93.650    46122.200    33538.447     8770.387       11.959        4.422      388.300       95.815        0.061      337.063        8.782      861.017
03/06/2014  17:07:00     -357.408      -77.970        2.253      265.160      223.296       95.345    70309.837    49861.176     9090.644       13.152        6.463      365.814      115.945        0.100      336.981        8.644      861.056
03/06/2014  17:08:00     -405.329      -69.170        0.219      218.849      155.270       94.116    47894.757    24108.750     8857.867       12.495        4.043      411.189       96.128        0.055      336.913        8.531      861.067
03/06/2014  17:09:00     -319.135      -97.410       -7.320      256.481      128.456       91.324    65782.463    16500.952     8339.993       10.099        4.531      333.670      118.824        0.127      336.968        8.621      861.092
03/06/2014  17:10:00     -532.187     -264.277      -33.817      218.886      231.822      100.434    47911.059    53741.565    10086.917       23.295        5.587      594.193       95.311        0.026      336.913        8.530      861.079
03/06/2014  17:11:00     -472.330     -290.020      -30.969      244.132      233.884      105.293    59600.582    54701.678    11086.668       21.675        6.269      554.263      121.366        0.048      336.895        8.499      861.053
03/06/2014  17:12:00     -445.897     -138.431      -23.843      237.331      168.942       96.586    56325.803    28541.537     9328.828       15.636        4.710      466.891      105.344        0.051      336.915        8.533      861.026
03/06/2014  17:13:00     -205.527     -120.893        0.635      176.129      162.421       93.067    31021.256    26380.611     8661.406        6.145        3.303      238.446      100.225        0.177      336.977        8.638      861.088
03/06/2014  17:14:00     -368.884     -136.070      -19.138      197.772      193.379       88.612    39113.920    37395.576     7852.096       11.964        4.218      393.180      105.100        0.071      336.944        8.581      861.088
03/06/2014  17:15:00     -553.389     -184.247      -24.009      276.801      178.499      101.297    76618.633    31861.919    10261.120       22.973        5.937      583.255      118.735        0.041      336.879        8.473      861.107
03/06/2014  17:16:00     -425.967     -147.342      -22.896      221.456      138.361       86.837    49042.879    19143.852     7540.582       13.969        3.786      450.730       88.775        0.039      336.922        8.545      861.136
03/06/2014  17:17:00     -292.462     -122.524        0.482      240.836      182.862       98.267    58002.109    33438.477     9656.453       10.080        5.055      317.090      115.730        0.133      336.954        8.598      861.142
03/06/2014  17:18:00     -476.947     -162.867       -3.890      259.456      199.408      107.854    67317.440    39763.491    11632.590       18.634        5.936      503.989      129.971        0.067      336.880        8.474      861.054
03/06/2014  17:19:00     -411.941     -102.112       -8.366      188.644      136.175       77.576    35586.480    18543.555     6018.107       12.016        3.007      424.408       80.901        0.036      336.905        8.518      861.085
03/06/2014  17:20:00     -591.916     -120.045       -8.348      280.880      229.508      124.607    78893.832    52673.801    15526.935       25.594        7.355      603.966      135.501        0.050      336.816        8.369      861.013
03/06/2014  17:21:00     -477.737     -301.972       -2.336      247.738      216.579      106.392    61374.209    46906.625    11319.236       21.949        5.980      565.172      119.049        0.044      336.806        8.351      860.946
03/06/2014  17:22:00     -289.547     -245.343        2.385      214.854      188.245      113.377    46162.428    35436.031    12854.431       11.923        4.723      379.514      113.478        0.089      336.788        8.321      860.918
03/06/2014  17:23:00     -571.615     -274.367      -39.358      244.732      194.920       98.281    59893.594    37993.841     9659.063       25.554        5.377      634.052      110.318        0.030      336.718        8.204      860.923
03/06/2014  17:24:00     -465.232     -244.976      -16.647      164.906      190.569       92.087    27194.056    36316.641     8480.106       17.435        3.600      525.789       78.354        0.022      336.723        8.213      860.966
03/06/2014  17:25:00     -392.002     -101.389       -5.216      206.791      162.773       83.314    42762.373    26495.126     6941.243       12.007        3.810      404.901       86.664        0.046      336.794        8.333      860.993
03/06/2014  17:26:00     -437.978     -101.032       -6.722      232.372      157.451       87.766    53996.941    24790.969     7702.803       14.427        4.325      449.480       89.568        0.040      336.749        8.256      860.995
03/06/2014  17:27:00     -276.664      -29.912        2.467      172.736      132.518       72.263    29837.570    17560.962     5221.923        6.502        2.631      278.276       72.795        0.068      336.841        8.411      861.080
03/06/2014  17:28:00     -340.243        1.340      -12.931      144.636      144.457       69.911    20919.568    20867.705     4887.618        8.130        2.334      340.245       74.314        0.048      336.802        8.344      861.155
03/06/2014  17:29:00     -436.396     -105.920       -0.060      282.691      178.343       83.815    79914.191    31806.097     7024.887       16.018        5.937      449.067      102.610        0.052      336.760        8.275      861.248
03/06/2014  17:30:00     -381.366      -46.853      -25.090      187.421      153.152       86.431    35126.755    23455.625     7470.243       10.715        3.303      384.233       81.220        0.045      336.718        8.203      861.347
03/06/2014  17:31:00     -246.243     -105.870       -2.360      217.614      166.786       92.691    47355.859    27817.424     8591.703        7.779        4.188      268.037      106.294        0.157      336.709        8.191      861.429
03/06/2014  17:32:00     -485.769      -64.734      -31.894      301.085      173.978       96.203    90652.080    30268.325     9255.108       18.565        6.509      490.063      116.857        0.057      336.608        8.021      861.450
03/06/2014  17:33:00     -296.259      -45.892      -14.505      112.820      142.937       69.080    12728.384    20431.016     4772.114        6.400        1.897      299.793       63.640        0.045      336.638        8.071      861.576
03/06/2014  17:34:00     -296.309      -19.346       23.610      284.108      141.747       96.768    80717.428    20092.255     9364.015        9.943        5.509      296.940      123.786        0.174      336.609        8.025      861.564
03/06/2014  17:35:00     -598.098       19.008      -44.649      244.045      213.046       85.527    59558.035    45388.451     7314.881       23.615        5.613      598.400       98.283        0.027      336.510        7.857      861.667
03/06/2014  17:36:00     -391.142      -91.330      -23.155      177.651      160.086       75.070    31559.886    25627.426     5635.514       11.233        3.141      401.663       77.261        0.037      336.513        7.863      861.695
03/06/2014  17:37:00     -462.314      -58.564       -9.847      219.809      212.297      102.059    48315.972    45070.208    10416.099       16.051        5.190      466.008      110.616        0.056      336.495        7.832      861.740
03/06/2014  17:38:00     -566.306      -90.890      -39.122      224.182      197.348      103.850    50257.545    38946.261    10784.881       21.522        4.999      573.554      113.746        0.039      336.450        7.756      861.729
03/06/2014  17:39:00     -581.201     -172.453      -34.806      196.319      165.733      100.426    38541.131    27467.274    10085.443       22.240        3.805      606.246       87.811        0.021      336.402        7.675      861.731
03/06/2014  17:40:00     -637.246      -24.562      -50.384      205.166      173.661       99.473    42093.290    30158.249     9894.884       24.567        4.107      637.719       98.155        0.024      336.391        7.655      861.734
03/06/2014  17:41:00     -430.191     -213.755      -28.072      182.275      159.255       82.212    33224.200    25362.111     6758.779       14.843        3.267      480.370       75.867        0.025      336.386        7.649      861.690
03/06/2014  17:42:00     -491.308     -125.638      -51.469      240.897      179.344       76.572    58031.215    32164.172     5863.289       17.792        4.803      507.117       77.919        0.024      336.416        7.699      861.712
03/06/2014  17:43:00     -541.202       28.882      -61.171      232.274      108.286       74.003    53951.315    11725.905     5476.442       18.430        3.558      541.972       93.689        0.030      336.359        7.603      861.665
03/06/2014  17:44:00     -257.099     -108.478      -14.453      141.658      116.986       66.367    20066.931    13685.797     4404.528        5.811        1.908      279.047       72.646        0.068      336.443        7.744      861.666
03/06/2014  17:45:00     -318.680     -168.267        2.388      197.888      169.060       79.110    39159.538    28581.281     6258.442       10.192        3.700      360.376       98.366        0.075      336.429        7.720      861.655
03/06/2014  17:46:00     -479.571     -191.302      -27.444      219.329      161.419       99.523    48105.239    26056.085     9904.750       17.569        4.203      516.319      108.977        0.045      336.390        7.656      861.632
03/06/2014  17:47:00     -522.513     -198.242      -19.965      211.359      154.885       91.317    44672.777    23989.315     8338.734       19.484        3.850      558.855       95.692        0.029      336.376        7.631      861.626
03/06/2014  17:48:00     -315.113      -22.552       -7.633      164.265      136.383       79.160    26983.136    18600.441     6266.238        7.585        2.592      315.919       82.230        0.068      336.407        7.683      861.640
03/06/2014  17:49:00     -326.846      -37.697        0.164      189.195      174.437       86.551    35794.825    30428.364     7491.012        9.097        3.686      329.013       90.598        0.076      336.410        7.688      861.665
03/06/2014  17:50:00     -322.731      -83.206       -4.422      200.291      165.208       86.982    40116.451    27293.747     7565.917        9.302        3.749      333.285       96.521        0.084      336.374        7.627      861.686
03/06/2014  17:51:00     -239.110      -64.577      -16.663      181.848      152.148       68.159    33068.567    23148.972     4645.589        6.123        3.043      247.677       50.852        0.042      336.397        7.667      861.756
03/06/2014  17:52:00     -455.898       -5.683      -27.918      177.814      152.247       80.739    31617.681    23179.223     6518.856       13.497        3.066      455.934       83.779        0.034      336.331        7.558      861.760
03/06/2014  17:53:00     -367.880      -47.755      -34.122      202.595      131.350       91.219    41044.691    17252.778     8320.910       10.269        3.331      370.966       74.648        0.040      336.352        7.592      861.773
03/06/2014  17:54:00     -177.863      -35.238        8.277      127.438      107.083       61.027    16240.399    11466.807     3724.309        3.218        1.572      181.320       57.297        0.100      336.336        7.567      861.776
03/06/2014  17:55:00     -193.386      -19.444        8.534      173.088      101.981       67.772    29959.462    10400.217     4593.023        4.139        2.248      194.361       75.977        0.153      336.319        7.537      861.803
03/06/2014  17:56:00     -437.947      -73.326      -35.101      168.699      201.568       80.039    28459.216    40629.680     6406.199       13.694        3.775      444.043       83.562        0.035      336.274        7.462      861.825
03/06/2014  17:57:00     -413.396     -102.562      -32.300      174.354       96.301       73.792    30399.242     9273.897     5445.228       11.378        2.256      425.929       87.580        0.042      336.257        7.433      861.865
03/06/2014  17:58:00     -285.396      -70.093      -23.670      139.155       86.283       57.592    19364.053     7444.730     3316.797        5.852        1.506      293.878       67.658        0.053      336.298        7.501      861.928
03/06/2014  17:59:00     -376.379       -5.344      -29.096      215.006      144.110       69.786    46227.394    20767.573     4870.102       10.719        3.593      376.417       87.956        0.055      336.275        7.465      861.948
03/06/2014  18:00:00     -309.336      -39.274      -15.433      213.929      115.726       65.003    45765.536    13392.576     4225.355        8.041        3.169      311.819       79.040        0.064      336.269        7.454      861.951
03/06/2014  18:01:00     -433.306      -99.069       -8.230      158.836      122.976       73.924    25228.756    15123.180     5464.724       12.172        2.291      444.488       80.412        0.033      336.217        7.366      861.962
03/06/2014  18:02:00     -222.377      -70.061        1.759      158.468      114.246       68.298    25112.021    13052.088     4664.640        4.859        2.141      233.153       73.708        0.100      336.291        7.491      861.996
03/06/2014  18:03:00     -468.935      -76.741      -35.732      153.719      129.808       61.584    23629.421    16849.993     3792.597       13.566        2.214      475.173       60.286        0.016      336.212        7.359      862.029
03/06/2014  18:04:00     -367.235      -75.117      -22.509      165.104      166.916       68.506    27259.230    27861.064     4693.110       10.040        2.991      374.839       66.654        0.032      336.240        7.406      862.046
03/06/2014  18:05:00     -315.364      -63.260       -5.002      180.762      124.030       77.051    32674.969    15383.519     5936.883        7.873        2.700      321.646       91.077        0.080      336.303        7.511      862.084
03/06/2014  18:06:00     -255.273      -37.505       -0.566      146.612      106.398       63.368    21495.132    11320.546     4015.541        5.169        1.842      258.014       74.677        0.084      336.235        7.398      862.118
03/06/2014  18:07:00     -327.888      -34.643       -8.996      126.231      100.769       70.937    15934.159    10154.344     5032.012        6.995        1.556      329.713       66.689        0.041      336.256        7.432      862.128
03/06/2014  18:08:00     -218.385      -46.284       11.540      157.567      112.480       64.017    24827.393    12651.770     4098.227        4.576        2.079      223.236       56.862        0.065      336.288        7.486      862.131
03/06/2014  18:09:00     -299.854       -4.077       -7.989      184.234      113.778       67.949    33942.220    12945.382     4617.009        7.074        2.575      299.881       85.977        0.082      336.260        7.439      862.181
03/06/2014  18:10:00     -298.459      -20.111       -1.797      190.359       92.542       60.740    36236.464     8564.034     3689.343        6.898        2.424      299.135       70.171        0.055      336.259        7.437      862.218
03/06/2014  18:11:00     -370.173      -33.262      -11.459      154.754      139.026       70.294    23948.676    19328.297     4941.189        9.323        2.411      371.665       81.120        0.048      336.263        7.444      862.259
03/06/2014  18:12:00     -367.756      -94.795      -13.244      186.157      139.861       85.224    34654.362    19561.041     7263.201       10.293        3.074      379.777       77.479        0.042      336.224        7.378      862.333
03/06/2014  18:13:00     -390.190     -127.601      -14.384      146.408      105.294       67.430    21435.300    11086.838     4546.764       10.290        1.853      410.525       70.238        0.029      336.264        7.444      862.383
03/06/2014  18:14:00     -283.004      -54.979       -3.592      135.130      123.485       63.241    18260.136    15248.513     3999.419        6.031        1.875      288.295       55.969        0.038      336.259        7.436      862.436
03/06/2014  18:15:00     -386.880       49.986      -46.074      155.335       99.194       63.185    24129.005     9839.496     3992.309        9.612        1.898      390.096       62.296        0.026      336.260        7.438      862.490
03/06/2014  18:16:00     -370.418      -20.986      -24.492      162.714       97.130       59.762    26475.987     9434.324     3571.480        8.886        1.974      371.012       68.865        0.034      336.275        7.464      862.525
03/06/2014  18:17:00     -350.264     -188.564        0.939      215.397      147.878       91.765    46396.076    21868.008     8420.725       11.745        3.834      397.795      106.433        0.072      336.246        7.416      862.566
03/06/2014  18:18:00     -461.334     -158.543      -14.663      202.204      125.905       84.657    40886.306    15852.105     7166.748       15.103        3.195      487.816       96.981        0.040      336.222        7.377      862.603
03/06/2014  18:19:00     -396.718     -142.733      -23.469      147.944      153.976       67.714    21887.541    23708.666     4585.161       11.423        2.509      421.613       65.003        0.024      336.230        7.389      862.658
03/06/2014  18:20:00     -500.738     -132.005      -31.228      158.158      139.768       66.581    25014.105    19535.215     4433.027       15.905        2.449      517.845       63.599        0.015      336.210        7.357      862.691
03/06/2014  18:21:00     -469.301     -175.061      -16.129      172.490      120.526       78.668    29752.676    14526.570     6188.612       15.080        2.523      500.889       60.575        0.015      336.194        7.329      862.719
03/06/2014  18:22:00     -382.962     -111.575       -1.846      152.880      163.225       79.903    23372.193    26642.399     6384.410       10.774        2.820      398.885       65.902        0.027      336.191        7.323      862.718
03/06/2014  18:23:00     -347.783       18.557      -32.119      131.412      125.097       51.757    17269.022    15649.178     2678.831        7.896        1.780      348.277       48.850        0.020      336.191        7.324      862.792
03/06/2014  18:24:00     -317.875      -82.917       -6.829      155.087      104.243       63.237    24052.063    10866.706     3998.957        7.343        1.946      328.511       67.323        0.042      336.163        7.277      862.829
03/06/2014  18:25:00     -407.359      -84.790      -15.199      187.635      119.876       58.622    35207.024    14370.203     3436.516       11.318        2.651      416.090       62.612        0.023      336.116        7.198      862.866
03/06/2014  18:26:00     -176.769      -75.721       -7.499      128.893      101.226       66.761    16613.529    10246.705     4457.068        3.417        1.566      192.304       63.600        0.109      336.165        7.282      862.900
03/06/2014  18:27:00     -489.437        7.664      -15.506      190.587       92.826       73.346    36323.256     8616.727     5379.566       14.507        2.516      489.497       91.215        0.035      336.103        7.178      862.948
03/06/2014  18:28:00     -435.643      -10.255      -28.938      171.849       97.994       69.760    29532.221     9602.787     4866.507       11.736        2.200      435.764       81.794        0.035      336.095        7.165      862.965
03/06/2014  18:29:00     -392.324      -10.758      -28.579      119.114      111.381       58.112    14188.250    12405.799     3376.971        9.240        1.499      392.472       58.207        0.022      336.101        7.174      862.979
03/06/2014  18:30:00     -307.392      -50.452       -1.259      122.993       92.508       49.893    15127.181     8557.690     2489.299        6.160        1.309      311.505       49.004        0.025      336.110        7.188      863.000
03/06/2014  18:31:00     -270.974     -107.491      -12.779      161.914       94.822       55.613    26216.301     8991.188     3092.792        6.171        1.915      291.515       47.938        0.027      336.161        7.275      863.021
03/06/2014  18:32:00     -265.742      -22.379      -17.033       90.235       75.233       49.154     8142.412     5659.990     2416.101        4.381        0.811      266.682       44.490        0.028      336.143        7.243      863.049
03/06/2014  18:33:00     -190.835       -4.512      -19.456       73.049       75.937       38.260     5336.119     5766.385     1463.833        2.469        0.628      190.888       11.168        0.003      336.168        7.288      863.089
03/06/2014  18:34:00     -130.714      -61.616        3.938      101.734       70.489       44.773    10349.836     4968.712     2004.649        1.911        0.866      144.508       51.236        0.126      336.215        7.365      863.110
03/06/2014  18:35:00      -67.917       36.777      -10.494       39.003       33.747       24.883     1521.229     1138.893      619.181        0.468        0.164       77.236       21.437        0.077      336.235        7.401      863.159
03/06/2014  18:36:00     -155.036      139.570      -33.451       61.839       69.926       43.275     3824.063     4889.708     1872.696        2.761        0.529      208.605       40.193        0.037      336.012        7.026      863.195
03/06/2014  18:37:00      -65.392       42.838      -14.215       42.315       49.518       23.425     1790.586     2452.009      548.742        0.555        0.240       78.174       22.474        0.083      336.073        7.128      863.228
03/06/2014  18:38:00      -68.768      142.631      -19.005       41.817      101.930       33.830     1748.671    10389.694     1144.471        1.936        0.664      158.344       37.330        0.056      336.182        7.310      863.271
03/06/2014  18:39:00      -80.468      160.526      -19.879       47.227       69.377       33.874     2230.404     4813.164     1147.469        2.041        0.410      179.566       27.387        0.023      336.212        7.360      863.318
03/06/2014  18:40:00      -68.757      131.685       -7.044       61.956       62.259       36.804     3838.542     3876.233     1354.528        1.559        0.453      148.554       28.738        0.037      336.123        7.212      863.339
03/06/2014  18:41:00     -171.380       79.790      -25.864      110.068       65.972       36.921    12114.988     4352.319     1363.126        2.711        0.892      189.043       36.988        0.038      336.145        7.248      863.353
03/06/2014  18:42:00      -88.214        4.353       -0.926       75.388       57.139       47.073     5683.407     3264.897     2215.848        0.948        0.558       88.322       44.979        0.259      336.114        7.199      863.350
03/06/2014  18:43:00     -119.539      -39.148       -4.499       60.401       39.285       30.705     3648.304     1543.309      942.783        1.099        0.307      125.786       28.928        0.053      336.053        7.095      863.358
03/06/2014  18:44:00      -64.675       -1.476      -11.289       44.841       61.496       20.435     2010.680     3781.771      417.579        0.526        0.311       64.692       27.388        0.179      336.124        7.213      863.366
03/06/2014  18:45:00      -37.462      108.963       -5.619       68.578       62.755       48.521     4702.978     3938.171     2354.242        1.215        0.550      115.223       10.126        0.008      336.132        7.226      863.389
03/06/2014  18:46:00     -101.958       90.874      -23.692       55.265       48.620       35.593     3054.256     2363.904     1266.863        1.295        0.334      136.578       32.067        0.055      336.103        7.178      863.413
03/06/2014  18:47:00     -103.281      177.192      -27.071       40.426       45.326       33.567     1634.289     2054.439     1126.751        2.381        0.241      205.095       30.034        0.021      336.082        7.143      863.443
03/06/2014  18:48:00     -122.581      162.722      -27.442       60.335       66.700       40.503     3640.274     4448.866     1640.502        2.599        0.486      203.726       41.212        0.041      336.066        7.118      863.470
03/06/2014  18:49:00     -102.989      105.133      -13.052       56.140       56.212       35.738     3151.679     3159.828     1277.223        1.471        0.379      147.172       34.372        0.055      336.051        7.091      863.509
03/06/2014  18:50:00      -47.502       89.455       -4.466       48.867       37.328       23.224     2388.023     1393.389      539.351        0.730        0.216      101.285       20.892        0.043      336.129        7.222      863.531
03/06/2014  18:51:00      -36.371      108.958      -11.726       35.738       40.897       22.709     1277.209     1672.552      515.714        0.840        0.173      114.868       16.546        0.021      336.254        7.433      863.555
03/06/2014  18:52:00      -86.634       93.915       -3.800       57.599       41.399       34.933     3317.610     1713.905     1220.303        1.129        0.313      127.771       28.810        0.051      336.090        7.158      863.589
03/06/2014  18:53:00      -51.922      150.619      -15.155       42.583       35.794       29.942     1813.331     1281.201      896.542        1.480        0.200      159.317       26.547        0.028      336.142        7.246      863.605
03/06/2014  18:54:00      -27.643      161.217      -19.769       61.795       49.987       32.652     3818.626     2498.681     1066.146        1.726        0.369      163.569       30.246        0.034      336.100        7.175      863.602
03/06/2014  18:55:00      -78.395      179.729      -22.738       69.667       70.071       37.421     4853.548     4909.971     1400.300        2.506        0.558      196.082       22.963        0.014      336.026        7.050      863.594
03/06/2014  18:56:00      -35.048      169.286      -13.434       56.048       57.254       38.989     3141.380     3277.973     1520.121        1.900        0.397      172.876       30.246        0.031      336.089        7.154      863.591
03/06/2014  18:57:00      -30.566      158.871      -16.451       37.239       69.380       34.846     1386.708     4813.549     1214.218        1.693        0.371      161.785       36.336        0.050      336.067        7.118      863.590
03/06/2014  18:58:00      -40.104      109.195      -14.331       44.940       37.278       27.650     2019.564     1389.640      764.544        0.895        0.209      116.326       17.993        0.024      336.083        7.146      863.596
03/06/2014  18:59:00      -28.838       71.146        9.356       60.245       56.312       34.780     3629.459     3171.060     1209.651        0.699        0.401       76.768       30.461        0.157      336.075        7.132      863.610
03/06/2014  19:00:00      -86.196      156.808      -29.668       75.050       73.597       34.489     5632.486     5416.569     1189.459        2.257        0.612      178.938       34.919        0.038      335.945        6.914      863.641
03/06/2014  19:01:00      -34.043       95.146       -1.906       52.857       71.135       30.855     2793.910     5060.187      952.010        0.951        0.440      101.053       33.626        0.111      336.097        7.169      863.656
03/06/2014  19:02:00      -67.380       71.233       -5.368       57.849       52.839       39.131     3346.487     2791.986     1531.220        0.865        0.383       98.052       41.041        0.175      336.021        7.042      863.661
03/06/2014  19:03:00      -20.659      153.224       -8.817       50.385       88.620       36.321     2538.667     7853.444     1319.215        1.784        0.586      154.610       39.662        0.066      335.991        6.990      863.672
03/06/2014  19:04:00      -44.283      192.727      -18.808       71.300       83.305       43.567     5083.694     6939.785     1898.090        2.669        0.696      197.749       46.960        0.056      335.986        6.982      863.672
03/06/2014  19:05:00      -12.857      248.083      -37.814       64.078       63.075       33.620     4105.988     3978.448     1130.300        3.618        0.461      248.415       32.950        0.018      335.923        6.876      863.681
03/06/2014  19:06:00      -40.245      278.405      -29.985       51.289       75.875       30.467     2630.587     5757.010      928.214        4.467        0.466      281.299       29.373        0.011      335.900        6.837      863.690
03/06/2014  19:07:00      -81.615      194.405      -21.318       55.676       59.772       36.937     3099.812     3572.649     1364.378        2.647        0.402      210.842       28.310        0.018      335.955        6.930      863.695
03/06/2014  19:08:00      -58.950      100.443       -8.132       68.212       71.523       37.423     4652.892     5115.557     1400.456        1.240        0.558      116.464       39.543        0.115      336.044        7.082      863.689
03/06/2014  19:09:00      -15.695      330.766      -40.211       57.714      153.280       39.397     3330.904    23494.803     1552.153        6.982        1.419      331.138       58.025        0.031      335.904        6.845      863.675
03/06/2014  19:10:00      -63.161      358.498      -44.893       55.808       84.050       41.092     3114.548     7064.486     1688.585        7.319        0.593      364.019       37.709        0.011      335.835        6.729      863.676
03/06/2014  19:11:00      -56.523      372.713      -48.961       45.737       63.674       25.454     2091.902     4054.363      647.924        7.565        0.340      376.975       19.842        0.003      335.792        6.658      863.679
03/06/2014  19:12:00       22.298      235.447      -27.690       47.805       60.162       33.889     2285.322     3619.471     1148.494        3.187        0.353      236.501       30.012        0.016      335.826        6.714      863.681
03/06/2014  19:13:00      -21.808      211.452      -20.770       63.508       70.958       39.870     4033.277     5034.979     1589.608        2.814        0.533      212.573       32.721        0.024      335.862        6.774      863.677
03/06/2014  19:14:00        4.598      194.528       -4.187       67.770      109.159       56.328     4592.805    11915.771     3172.868        2.878        0.984      194.582       57.558        0.088      335.862        6.776      863.664
03/06/2014  19:15:00      -60.384      190.430      -23.607       77.070       75.202       42.139     5939.807     5655.290     1775.659        2.692        0.669      199.774       44.800        0.050      335.821        6.706      863.658
03/06/2014  19:16:00      -11.688      141.287      -18.767       47.752       60.217       26.967     2280.252     3626.036      727.205        1.354        0.332      141.770       26.565        0.035      335.903        6.846      863.642
03/06/2014  19:17:00      -10.755      163.856      -17.385       31.547       53.638       29.664      995.211     2877.084      879.964        1.601        0.238      164.208       29.821        0.033      335.886        6.817      863.632
03/06/2014  19:18:00      -45.431      207.145      -22.182       40.955       61.663       28.786     1677.325     3802.304      828.632        2.589        0.315      212.068       24.269        0.013      335.789        6.654      863.621
03/06/2014  19:19:00       -3.537      192.109      -29.145       32.731       30.304       19.310     1071.345      918.334      372.884        2.006        0.118      192.142       17.025        0.008      335.800        6.673      863.619
03/06/2014  19:20:00      -50.119      120.742       -7.261       44.600       60.496       27.859     1989.182     3659.740      776.121        1.178        0.321      130.731       30.530        0.055      335.860        6.774      863.619
03/06/2014  19:21:00      -71.836       95.695      -12.686       51.102       56.184       36.837     2611.462     3156.601     1356.983        1.080        0.356      119.658       30.125        0.063      335.964        6.947      863.623
03/06/2014  19:22:00      -48.269       63.930      -18.099       62.306       60.272       24.798     3882.042     3632.731      614.953        0.744        0.406       80.106       28.609        0.128      335.945        6.916      863.639
03/06/2014  19:23:00      -29.677      105.137       -4.052       72.181       90.305       39.676     5210.145     8154.967     1574.172        1.344        0.747      109.245       43.533        0.159      335.963        6.946      863.657
03/06/2014  19:24:00      -89.996      174.545       -8.209       68.584       98.689       46.294     4703.782     9739.471     2143.168        2.761        0.829      196.380       32.637        0.028      335.857        6.767      863.668
03/06/2014  19:25:00     -129.016      164.860       -3.237       79.068       93.895       68.900     6251.703     8816.320     4747.165        3.182        0.991      209.342       59.389        0.080      335.855        6.762      863.662
03/06/2014  19:26:00     -130.861      264.122      -26.317       65.220      119.163       59.466     4253.589    14199.939     3536.154        5.478        1.099      294.763       59.609        0.041      335.790        6.653      863.671
03/06/2014  19:27:00     -159.939      193.383      -29.413       89.537       86.609       56.750     8016.940     7501.074     3220.528        4.129        0.937      250.953       63.163        0.063      335.802        6.676      863.679
03/06/2014  19:28:00      -99.918      109.998       -8.129       97.758      102.629       46.926     9556.642    10532.780     2202.071        2.222        1.115      148.604       46.008        0.096      335.829        6.721      863.686
03/06/2014  19:29:00     -127.393      226.097      -17.339       82.062      106.837       62.046     6734.131    11414.248     3849.765        4.482        1.100      259.517       68.949        0.071      335.747        6.583      863.708
03/06/2014  19:30:00     -112.768      142.146      -16.963       68.712       78.117       43.897     4721.286     6102.303     1926.928        2.298        0.638      181.445       38.580        0.045      335.815        6.697      863.718
03/06/2014  19:31:00     -176.770      115.723      -39.576      107.505      103.415       44.995    11557.243    10694.735     2024.559        3.524        1.214      211.280       46.567        0.049      335.810        6.689      863.736
03/06/2014  19:32:00      -89.691       28.358        0.150       73.363       97.604       44.407     5382.166     9526.478     1972.006        1.286        0.844       94.068       37.776        0.161      335.820        6.708      863.739
03/06/2014  19:33:00      -81.176       10.015       -2.929       53.008       56.431       36.645     2809.834     3184.412     1342.859        0.702        0.367       81.792       27.147        0.110      335.884        6.815      863.758
03/06/2014  19:34:00      -52.544       37.230       -5.821       62.995       56.573       40.400     3968.432     3200.507     1632.147        0.649        0.440       64.397       38.432        0.356      335.866        6.784      863.763
03/06/2014  19:35:00     -118.109       13.684      -17.318      121.209       64.302       41.473    14691.611     4134.703     1719.970        1.749        1.027      118.899       34.034        0.082      335.841        6.743      863.759
03/06/2014  19:36:00     -121.555       57.201      -10.206       73.024       63.604       35.649     5332.565     4045.513     1270.858        1.440        0.532      134.341       24.149        0.032      335.837        6.736      863.754
03/06/2014  19:37:00     -119.843      -21.327       -9.639       87.351       72.183       49.771     7630.266     5210.334     2477.110        1.511        0.766      121.726       36.323        0.089      335.849        6.756      863.757
03/06/2014  19:38:00     -116.860       78.616      -31.141       93.689       89.344       41.089     8777.613     7982.349     1688.286        1.962        0.922      140.843       50.639        0.129      335.843        6.744      863.750
03/06/2014  19:39:00     -142.951       33.965      -15.792      123.011       97.829       58.963    15131.739     9570.507     3476.652        2.500        1.409      146.931       71.364        0.236      335.853        6.761      863.751
03/06/2014  19:40:00     -176.259       96.574      -27.070      104.903      103.499       55.524    11004.667    10712.121     3082.960        3.296        1.240      200.982       66.647        0.110      335.813        6.696      863.769
03/06/2014  19:41:00     -118.285       83.405       -9.018       64.924       82.231       46.845     4215.085     6762.006     2194.440        1.710        0.659      144.733       38.688        0.071      335.846        6.749      863.800
03/06/2014  19:42:00     -150.352       80.524      -31.989       71.416       62.614       37.283     5100.237     3920.513     1390.048        2.026        0.521      170.558       28.422        0.028      335.783        6.645      863.815
03/06/2014  19:43:00      -98.043       32.620       -7.709       52.252       70.810       43.448     2730.244     5013.994     1887.698        1.018        0.482      103.327       28.263        0.075      335.826        6.718      863.830
03/06/2014  19:44:00     -107.398       -0.242       -9.222       66.514       84.209       55.308     4424.172     7091.091     3059.029        1.309        0.729      107.398       37.846        0.124      335.844        6.748      863.823
03/06/2014  19:45:00     -118.788      110.523      -11.960       70.403       95.916       54.708     4956.601     9199.910     2992.969        2.181        0.857      162.252       45.818        0.080      335.830        6.723      863.828
03/06/2014  19:46:00     -143.439       85.873      -12.480      102.492       86.592       53.835    10504.608     7498.171     2898.257        2.450        1.045      167.179       49.000        0.086      335.795        6.665      863.856
03/06/2014  19:47:00     -243.948       23.940      -22.942      123.856      141.913       64.382    15340.223    20139.182     4145.085        5.011        1.981      245.120       71.147        0.084      335.750        6.588      863.859
03/06/2014  19:48:00      -94.408       23.083      -10.288       79.869       82.482       41.522     6379.076     6803.258     1724.060        1.223        0.745       97.189       43.613        0.201      335.826        6.717      863.845
03/06/2014  19:49:00      -80.308       52.844      -12.371       50.568       75.578       35.170     2557.081     5712.106     1236.931        0.945        0.475       96.135       25.026        0.068      335.790        6.659      863.852
03/06/2014  19:50:00     -133.836       -8.979      -24.561       86.561       63.766       44.455     7492.814     4066.116     1976.250        1.606        0.677      134.137       32.176        0.058      335.757        6.601      863.853
03/06/2014  19:51:00      -67.374      -24.361        0.653       57.741       53.430       30.124     3334.077     2854.718      907.467        0.611        0.355       71.643       29.860        0.174      335.839        6.739      863.845
03/06/2014  19:52:00     -160.316       55.607      -27.872       72.737       99.388       57.756     5290.678     9877.893     3335.770        2.403        0.925      169.686       45.697        0.073      335.745        6.580      863.834
03/06/2014  19:53:00     -159.872       30.341      -16.135      120.699      108.716       59.362    14568.223    11819.124     3523.901        2.832        1.496      162.725       55.744        0.117      335.776        6.633      863.823
03/06/2014  19:54:00     -143.545      -31.820        5.351       67.565       64.183       36.517     4564.968     4119.480     1333.464        1.583        0.501      147.030       29.540        0.040      335.720        6.540      863.830
03/06/2014  19:55:00     -193.044      -55.108      -22.814       71.672       58.409       35.604     5136.852     3411.558     1267.644        2.532        0.491      200.756       31.066        0.024      335.668        6.453      863.831
03/06/2014  19:56:00     -309.693      -67.152       -6.550      114.369      112.014       59.900    13080.237    12547.157     3588.041        6.483        1.461      316.889       59.536        0.035      335.604        6.345      863.821
03/06/2014  19:57:00     -272.494      -78.408      -20.608       80.407       87.106       57.420     6465.269     7587.489     3297.045        4.908        0.867      283.550       50.013        0.031      335.618        6.367      863.823
03/06/2014  19:58:00     -142.009      -18.233      -23.087      121.445       85.844       46.223    14748.803     7369.185     2136.553        2.264        1.213      143.175       51.792        0.131      335.636        6.400      863.831
03/06/2014  19:59:00     -142.558       40.335      -24.648       65.473       61.091       38.949     4286.691     3732.078     1517.030        1.604        0.477      148.154       20.483        0.019      335.661        6.443      863.842
03/06/2014  20:00:00     -212.101       84.408      -24.489      148.502       65.931       56.032    22052.752     4346.929     3139.565        4.112        1.477      228.279       74.434        0.106      335.648        6.418      863.845
03/06/2014  20:01:00     -168.049       98.630      -28.225      123.771       56.211       38.893    15319.318     3159.665     1512.691        2.937        1.000      194.855       41.635        0.046      335.714        6.529      863.846
03/06/2014  20:02:00     -110.938      141.254      -17.877       72.130       73.557       46.523     5202.798     5410.563     2164.369        2.268        0.639      179.610       42.148        0.055      335.713        6.529      863.857
03/06/2014  20:03:00     -165.628      131.504      -35.998       63.293      102.572       39.800     4006.018    10520.930     1584.052        3.106        0.806      211.485       27.020        0.016      335.695        6.497      863.865
03/06/2014  20:04:00     -130.113       21.417      -15.515       75.786       64.102       33.902     5743.570     4109.028     1149.366        1.431        0.550      131.864       30.583        0.054      335.749        6.590      863.879
03/06/2014  20:05:00     -117.126      -47.375       14.363       80.313       83.092       43.709     6450.193     6904.265     1910.481        1.571        0.763      126.345       39.497        0.098      335.791        6.659      863.866
03/06/2014  20:06:00       -3.428       69.342       -0.293       67.404       74.783       38.424     4543.339     5592.557     1476.367        0.821        0.581       69.426       36.321        0.274      335.777        6.637      863.878
03/06/2014  20:07:00      -70.148      -17.339       -6.462       50.184       43.436       30.113     2518.413     1886.648      906.802        0.529        0.266       72.259       27.727        0.147      335.792        6.663      863.888
03/06/2014  20:08:00      -53.758        8.219       -8.439       37.423       38.262       25.114     1400.469     1464.011      630.714        0.326        0.175       54.382       16.115        0.088      335.786        6.652      863.906
03/06/2014  20:09:00      -57.046       38.963      -27.679       27.508       49.168       22.892      756.673     2417.457      524.055        0.462        0.185       69.083       19.192        0.077      335.766        6.619      863.924
03/06/2014  20:10:00      -19.823      103.975       -1.571       64.789       70.848       52.543     4197.658     5019.412     2760.721        1.159        0.599      105.847       25.860        0.060      335.762        6.611      863.938
03/06/2014  20:11:00      -97.083       68.224       -7.347       54.925       75.795       38.278     3016.785     5744.911     1465.233        1.218        0.511      118.657       24.531        0.043      335.746        6.586      863.975
03/06/2014  20:12:00     -128.148       71.002      -13.621       77.637       82.334       43.104     6027.501     6778.966     1857.978        1.815        0.733      146.503       44.576        0.093      335.741        6.575      863.997
03/06/2014  20:13:00      -78.633       45.522       -5.681       87.602       64.975       39.195     7674.093     4221.707     1536.211        1.086        0.672       90.860       40.130        0.195      335.720        6.542      864.014
03/06/2014  20:14:00      -67.899       28.161        7.938       57.981       51.890       32.600     3361.810     2692.567     1062.732        0.629        0.356       73.507       24.040        0.107      335.794        6.665      864.032
03/06/2014  20:15:00      -63.215       31.877       -5.085       57.087       38.754       30.874     3258.967     1501.895      953.198        0.537        0.286       70.797       33.969        0.230      335.788        6.657      864.048
03/06/2014  20:16:00     -165.854        8.862      -22.285       49.896       61.583       27.809     2489.627     3792.500      773.355        1.757        0.353      166.090       15.139        0.008      335.707        6.520      864.053
03/06/2014  20:17:00      -93.215       17.310       -6.491       80.108       45.966       38.336     6417.339     2112.909     1469.620        0.951        0.500       94.808       43.768        0.213      335.683        6.479      864.060
03/06/2014  20:18:00      -31.592       56.233       -0.763       37.071       55.318       22.485     1374.243     3060.058      505.593        0.455        0.247       64.500       25.514        0.156      335.757        6.604      864.062
03/06/2014  20:19:00      -60.333       91.233       -7.509       50.056       49.786       30.840     2505.610     2478.683      951.077        0.898        0.297      109.377       24.461        0.050      335.721        6.543      864.077
03/06/2014  20:20:00      -43.290       71.056       -7.381       40.593       42.425       25.502     1647.798     1799.888      650.340        0.554        0.205       83.205       21.804        0.069      335.794        6.664      864.091
03/06/2014  20:21:00      -93.349      129.138      -24.535       48.551       57.685       32.716     2357.164     3327.538     1070.346        1.637        0.338      159.345       34.677        0.047      335.721        6.542      864.109
03/06/2014  20:22:00      -88.661      103.859      -14.543       60.109       61.208       36.208     3613.063     3746.402     1310.995        1.376        0.434      136.556       37.712        0.076      335.735        6.567      864.129
03/06/2014  20:23:00      -96.993       41.768       -6.972       51.238       63.890       34.033     2625.285     4081.911     1158.272        0.953        0.393      105.604       39.630        0.141      335.731        6.561      864.141
03/06/2014  20:24:00     -144.829       55.349      -14.883       66.722       66.366       32.189     4451.861     4404.412     1036.119        1.707        0.495      155.045       29.935        0.037      335.690        6.491      864.152
03/06/2014  20:25:00      -75.425       35.226       -4.209       41.005       47.474       29.610     1681.448     2253.805      876.725        0.588        0.241       83.245       14.326        0.030      335.769        6.623      864.164
03/06/2014  20:26:00      -79.809       89.392       -4.004       57.224       81.111       41.922     3274.569     6579.002     1757.479        1.299        0.581      119.835       38.945        0.106      335.737        6.570      864.174
03/06/2014  20:27:00      -43.881       27.975       12.853       44.844       67.566       38.618     2010.957     4565.200     1491.332        0.547        0.403       52.040       22.047        0.179      335.775        6.633      864.179
03/06/2014  20:28:00      -78.569       40.235      -22.193       65.911       55.332       33.121     4344.229     3061.583     1097.017        0.839        0.425       88.272       28.457        0.104      335.692        6.497      864.190
03/06/2014  20:29:00     -135.360      177.402      -27.366       71.870      106.009       42.696     5165.275    11237.957     1822.952        3.438        0.911      223.145       48.533        0.047      335.646        6.416      864.209
03/06/2014  20:30:00      -77.106      183.003      -18.871       41.004       53.236       37.882     1681.308     2834.059     1435.013        2.287        0.298      198.584       24.647        0.015      335.676        6.466      864.220
03/06/2014  20:31:00      -31.736       47.050       11.342       30.345       42.020       27.335      920.789     1765.659      747.216        0.339        0.172       56.752       20.045        0.125      335.755        6.600      864.241
03/06/2014  20:32:00     -105.956      180.939      -21.490       69.373      101.569       41.966     4812.608    10316.348     1761.128        3.066        0.845      209.680       43.892        0.044      335.667        6.452      864.267
03/06/2014  20:33:00     -140.311       91.636      -17.178       42.198      137.971       43.314     1780.700    19036.038     1876.136        2.553        1.135      167.584       49.434        0.087      335.707        6.518      864.294
03/06/2014  20:34:00     -100.400      104.781      -17.053       88.752       79.631       52.587     7876.869     6341.031     2765.375        1.916        0.849      145.118       57.567        0.157      335.698        6.504      864.304
03/06/2014  20:35:00      -87.759      170.947      -26.121       63.192       61.568       35.572     3993.166     3790.615     1265.388        2.333        0.452      192.158       30.340        0.025      335.672        6.459      864.321
03/06/2014  20:36:00      -54.781      160.986       -7.117       40.365       60.178       38.011     1629.314     3621.338     1444.872        1.783        0.335      170.052       31.152        0.034      335.724        6.547      864.331
03/06/2014  20:37:00      -79.326       97.512      -10.627       39.885       55.278       29.552     1590.792     3055.670      873.349        1.072        0.276      125.703       28.015        0.050      335.647        6.420      864.331
03/06/2014  20:38:00      -97.410      195.277      -21.111       51.971       80.749       39.011     2700.939     6520.472     1521.859        2.940        0.537      218.224       33.444        0.023      335.621        6.374      864.341
03/06/2014  20:39:00      -30.704       70.718        1.304       51.078       53.884       26.017     2608.960     2903.523      676.865        0.607        0.309       77.096       24.733        0.103      335.722        6.546      864.338
03/06/2014  20:40:00     -109.392      176.460      -28.652       53.558       72.693       33.734     2868.458     5284.289     1137.986        2.661        0.465      207.617       36.646        0.031      335.652        6.427      864.339
03/06/2014  20:41:00     -136.494      132.104      -33.247       84.728       58.186       35.259     7178.772     3385.565     1243.212        2.450        0.590      189.953       29.941        0.025      335.677        6.467      864.348
03/06/2014  20:42:00      -41.497       85.473      -17.378       41.700       60.509       30.158     1738.923     3661.356      909.524        0.782        0.315       95.014       14.589        0.024      335.741        6.577      864.363
03/06/2014  20:43:00      -32.194       27.537        7.989       39.288       34.268       31.025     1543.554     1174.289      962.520        0.277        0.184       42.364       22.121        0.273      335.707        6.521      864.369
03/06/2014  20:44:00      -79.427       34.614       -6.182       53.296       65.777       34.546     2840.444     4326.643     1193.396        0.795        0.418       86.642       28.850        0.111      335.722        6.545      864.379
03/06/2014  20:45:00     -112.083       77.652      -22.965       66.317       56.606       41.259     4397.963     3204.259     1702.338        1.421        0.465      136.354       41.341        0.092      335.689        6.488      864.393
03/06/2014  20:46:00     -108.052       23.832      -27.575       79.838       61.795       41.378     6374.061     3818.608     1712.102        1.245        0.595      110.649       24.783        0.050      335.708        6.522      864.415
03/06/2014  20:47:00     -199.470      116.171      -21.758       81.904      102.860       53.314     6708.201    10580.131     2842.398        3.694        1.007      230.833       42.331        0.034      335.615        6.365      864.443
03/06/2014  20:48:00     -152.012       59.582      -17.421       81.417       62.871       40.196     6628.798     3952.786     1615.744        1.958        0.610      163.272       34.391        0.044      335.615        6.367      864.464
03/06/2014  20:49:00     -194.917       87.417      -28.324       95.996       48.712       34.480     9215.171     2372.817     1188.903        2.960        0.639      213.622       22.784        0.011      335.588        6.320      864.486
03/06/2014  20:50:00     -187.550       40.127      -20.782       90.642      109.129       42.558     8215.993    11909.205     1811.186        2.957        1.097      191.795       51.515        0.072      335.576        6.299      864.491
03/06/2014  20:51:00     -160.470       87.204      -36.599       62.404       73.708       35.976     3894.255     5432.861     1294.294        2.266        0.531      182.634       22.857        0.016      335.603        6.345      864.486
03/06/2014  20:52:00     -126.090      -26.543      -19.862       62.392       54.242       31.398     3892.722     2942.216      985.836        1.241        0.391      128.854       11.246        0.008      335.633        6.395      864.496
03/06/2014  20:53:00      -91.276      -30.521       -6.396       52.129       35.242       28.351     2717.387     1242.002      803.807        0.703        0.238       96.243       16.469        0.029      335.618        6.373      864.505
03/06/2014  20:54:00     -102.776        0.930       -1.406       83.326       48.883       29.683     6943.247     2389.543      881.075        1.039        0.511      102.780       32.417        0.099      335.588        6.320      864.523
03/06/2014  20:55:00      -23.858      -11.153        1.323       59.909       48.702       21.246     3589.122     2371.859      451.380        0.355        0.321       26.337       25.048        0.905      335.647        6.421      864.538
03/06/2014  20:56:00      -94.519        3.567       -8.971       56.660       72.406       29.397     3210.404     5242.687      864.181        0.917        0.466       94.586       19.413        0.042      335.653        6.431      864.536
03/06/2014  20:57:00     -133.169       22.774       -6.763       60.268       32.114       33.902     3632.180     1031.297     1149.324        1.205        0.291      135.102       36.769        0.074      335.587        6.320      864.538
03/06/2014  20:58:00     -125.149       58.116      -14.312       66.132       55.351       36.677     4373.456     3063.712     1345.195        1.401        0.439      137.984       25.867        0.035      335.598        6.338      864.557
03/06/2014  20:59:00      -81.916       12.591      -12.231       67.030       59.697       35.861     4493.081     3563.779     1286.039        0.818        0.467       82.878       36.262        0.191      335.673        6.463      864.562
03/06/2014  21:00:00     -167.319       43.240      -28.758       69.951       66.221       47.532     4893.183     4385.171     2259.308        2.111        0.577      172.816       41.357        0.057      335.593        6.329      864.568
03/06/2014  21:01:00     -112.418      -30.995       -7.322       62.026       60.814       39.805     3847.281     3698.352     1584.446        1.139        0.457      116.612       21.800        0.035      335.616        6.370      864.555
03/06/2014  21:02:00     -143.216      -78.643       -2.033       83.317       61.598       33.395     6941.765     3794.354     1115.240        1.927        0.593      163.388       46.236        0.080      335.545        6.249      864.562
03/06/2014  21:03:00     -138.227      -32.932      -13.973       55.606       52.134       29.985     3092.070     2717.995      899.118        1.355        0.335      142.096       25.910        0.033      335.532        6.230      864.567
03/06/2014  21:04:00      -82.377       -1.944      -10.825       48.165       40.634       23.023     2319.891     1651.136      530.038        0.570        0.225       82.400       20.980        0.065      335.522        6.212      864.566
03/06/2014  21:05:00     -172.082      -50.795      -16.636       64.466       46.604       34.054     4155.806     2171.927     1159.676        1.998        0.374      179.422       38.112        0.045      335.538        6.235      864.559
03/06/2014  21:06:00     -136.648      -19.588      -22.843       52.553       48.419       27.566     2761.864     2344.406      759.879        1.272        0.293      138.045       26.184        0.036      335.549        6.257      864.562
03/06/2014  21:07:00     -155.850      -55.753       -8.695       49.656       49.388       26.286     2465.762     2439.195      690.967        1.653        0.280      165.523       16.732        0.010      335.516        6.201      864.562
03/06/2014  21:08:00     -160.320      -47.269       -8.994       82.064       68.926       34.813     6734.480     4750.740     1211.932        2.036        0.635      167.144       36.933        0.049      335.518        6.203      864.567
03/06/2014  21:09:00     -121.521      -66.521       -6.524       89.032       66.689       36.916     7926.662     4447.383     1362.790        1.648        0.687      138.536       40.630        0.086      335.541        6.242      864.561
03/06/2014  21:10:00     -126.012      -52.169      -10.407       88.763       49.298       38.646     7878.832     2430.287     1493.476        1.525        0.590      136.384       33.282        0.060      335.503        6.179      864.552
03/06/2014  21:11:00     -127.497      -21.945       -7.308       71.857       38.541       28.772     5163.435     1485.374      827.822        1.213        0.374      129.371       25.286        0.038      335.493        6.163      864.551
03/06/2014  21:12:00     -199.585      -85.742      -10.788       54.906       41.523       27.904     3014.653     1724.182      778.609        2.641        0.276      217.223       25.340        0.014      335.476        6.131      864.537
03/06/2014  21:13:00     -170.231      -32.200       -5.698       55.966       62.184       27.204     3132.245     3866.907      740.038        1.889        0.387      173.250       26.815        0.024      335.440        6.073      864.529
03/06/2014  21:14:00     -188.698      -32.574       -5.107       64.381       44.522       29.705     4144.975     1982.182      882.397        2.185        0.350      191.489       24.572        0.016      335.488        6.153      864.525
03/06/2014  21:15:00     -154.710      -31.114       -1.818       80.419       50.706       35.368     6467.202     2571.054     1250.899        1.760        0.514      157.808       38.503        0.060      335.479        6.139      864.528
03/06/2014  21:16:00     -102.383      -47.567        2.238       70.709       39.892       34.096     4999.820     1591.379     1162.522        1.025        0.388      112.893       37.165        0.108      335.476        6.136      864.508
03/06/2014  21:17:00     -131.620      -63.077       -2.852       36.368       40.241       24.187     1322.609     1619.374      585.015        1.242        0.176      145.954       17.110        0.014      335.556        6.269      864.495
03/06/2014  21:18:00      -63.790      -38.939        7.666       75.570       36.902       29.144     5710.779     1361.753      849.401        0.678        0.396       74.736       39.113        0.274      335.576        6.304      864.499
03/06/2014  21:19:00     -153.606      -33.196      -12.659       43.066       34.815       29.506     1854.661     1212.083      870.601        1.440        0.197      157.152       21.076        0.018      335.501        6.177      864.500
03/06/2014  21:20:00     -190.991      -51.313      -12.920       41.725       37.534       30.385     1740.989     1408.830      923.272        2.167        0.204      197.764       24.805        0.016      335.489        6.154      864.494
03/06/2014  21:21:00      -96.521      -33.759        5.163       65.044       42.628       27.319     4230.687     1817.180      746.306        0.864        0.340      102.254       29.413        0.083      335.468        6.121      864.490
03/06/2014  21:22:00     -197.387      -66.572      -18.999       43.428       35.356       22.486     1886.005     1250.042      505.607        2.370        0.182      208.311       19.137        0.008      335.498        6.170      864.477
03/06/2014  21:23:00     -114.244      -35.966       -6.328       44.592       34.618       28.997     1988.449     1198.383      840.800        0.921        0.201      119.772       18.241        0.023      335.519        6.207      864.464
03/06/2014  21:24:00     -182.388      -52.654      -10.164       39.732       39.079       22.513     1578.594     1527.189      506.818        1.988        0.181      189.836       19.353        0.010      335.401        6.010      864.467
03/06/2014  21:25:00     -162.020      -22.433       -3.380       82.244       39.190       31.416     6764.006     1535.860      986.958        1.802        0.464      163.566       37.073        0.051      335.495        6.167      864.455
03/06/2014  21:26:00     -175.446      -19.951       -9.161       42.584       33.518       25.095     1813.372     1123.424      629.759        1.741        0.178      176.577       24.414        0.019      335.520        6.210      864.436
03/06/2014  21:27:00     -154.245      -11.232      -10.016       40.364       34.796       19.995     1629.257     1210.790      399.810        1.363        0.162      154.654       19.274        0.016      335.542        6.245      864.434
03/06/2014  21:28:00     -137.532      -45.603      -10.750       43.299       32.459       20.485     1874.788     1053.555      419.653        1.223        0.167      144.895       20.680        0.020      335.599        6.341      864.431
03/06/2014  21:29:00      -99.405      -43.387       -9.267       35.538       35.367       19.914     1262.963     1250.792      396.568        0.738        0.146      108.460       17.910        0.027      335.641        6.410      864.429
03/06/2014  21:30:00     -121.641      -47.963      -12.744       27.122       27.558       16.221      735.627      759.468      263.111        0.951        0.088      130.756       10.503        0.006      335.669        6.458      864.425
03/06/2014  21:31:00     -112.977      -52.472       -9.808       26.083       26.751       14.394      680.334      715.610      207.178        0.861        0.080      124.568        8.004        0.004      335.650        6.427      864.419
03/06/2014  21:32:00      -79.243      -24.995       -4.621       45.089       37.534       18.226     2032.989     1408.807      332.200        0.535        0.189       83.092       20.837        0.063      335.597        6.337      864.415
03/06/2014  21:33:00     -101.858      -25.805      -10.531       27.323       25.845       12.785      746.568      667.957      163.467        0.636        0.079      105.076       11.201        0.011      335.642        6.412      864.409
03/06/2014  21:34:00     -107.198        6.762       -7.384       30.122       26.981       14.799      907.356      727.968      218.997        0.672        0.093      107.411       14.621        0.019      335.546        6.253      864.415
03/06/2014  21:35:00      -94.114        0.860       -5.074       29.231       30.525       16.181      854.428      931.752      261.830        0.547        0.102       94.118       16.710        0.032      335.532        6.227      864.419
03/06/2014  21:36:00      -95.240       30.152       -4.598       37.644       20.544       18.844     1417.040      422.040      355.107        0.610        0.110       99.899       14.268        0.020      335.544        6.249      864.433
03/06/2014  21:37:00      -49.379       41.092       -6.585       22.313       22.814       15.196      497.883      520.499      230.905        0.271        0.062       64.241        5.354        0.007      335.673        6.463      864.440
03/06/2014  21:38:00      -47.135       52.762      -16.416       18.622       16.877       15.026      346.788      284.824      225.778        0.307        0.043       70.749       11.703        0.027      335.759        6.607      864.441
03/06/2014  21:39:00        9.621       96.062      -14.483       20.571       34.583       12.749      423.172     1195.950      162.548        0.566        0.089       96.542       16.068        0.028      335.514        6.200      864.432
03/06/2014  21:40:00       23.021      103.424      -12.283       26.284       35.160       19.821      690.855     1236.248      392.857        0.685        0.116      105.955       18.104        0.029      335.350        5.923      864.434
03/06/2014  21:41:00       37.424      146.012      -25.259       44.947       50.120       21.277     2020.238     2512.010      452.708        1.417        0.249      150.732       21.629        0.021      335.303        5.845      864.436
03/06/2014  21:42:00       37.350      173.111      -30.442       34.948       31.289       21.343     1221.352      978.982      455.539        1.747        0.133      177.094       19.381        0.012      335.259        5.773      864.450
03/06/2014  21:43:00       37.277      163.491      -29.397       34.207       46.215       22.998     1170.125     2135.832      528.886        1.641        0.192      167.687       23.923        0.020      335.195        5.665      864.468
03/06/2014  21:44:00       -0.723      188.375      -29.314       32.846       38.488       19.143     1078.830     1481.336      366.458        1.964        0.146      188.377       15.093        0.006      335.175        5.635      864.483
03/06/2014  21:45:00        2.428      138.470      -19.420       29.362       33.779       17.491      862.149     1141.027      305.938        1.093        0.115      138.491       15.944        0.013      335.135        5.569      864.492
03/06/2014  21:46:00      -13.562      139.451      -16.708       32.879       38.882       20.025     1081.022     1511.846      400.990        1.145        0.150      140.109       19.563        0.019      335.173        5.631      864.493
03/06/2014  21:47:00       -6.580      152.476      -14.957       23.473       47.052       18.542      550.971     2213.865      343.802        1.331        0.155      152.618       21.683        0.020      335.291        5.827      864.484
03/06/2014  21:48:00      -14.901      113.957       -0.182       31.745       52.085       29.634     1007.720     2712.839      878.167        0.890        0.230      114.927       30.520        0.071      335.310        5.859      864.474
03/06/2014  21:49:00      -36.079       35.451        6.781       22.740       36.079       19.808      517.118     1301.689      392.362        0.241        0.111       50.581       13.391        0.070      335.434        6.065      864.474
03/06/2014  21:50:00      -32.530       25.002       -7.250       33.791       36.678       14.235     1141.818     1345.266      202.627        0.221        0.134       41.028       16.584        0.163      335.509        6.189      864.478
03/06/2014  21:51:00      -21.501       56.291       -4.525       29.512       18.171       15.432      870.946      330.191      238.151        0.255        0.072       60.257        9.610        0.025      335.539        6.240      864.483
03/06/2014  21:52:00       28.497       44.696       -2.313       14.561       30.946       16.434      212.009      957.659      270.093        0.213        0.072       53.008       17.409        0.108      335.342        5.912      864.502
03/06/2014  21:53:00       49.669       42.438       -6.236       32.258       18.516       12.826     1040.579      342.837      164.511        0.293        0.077       65.330       13.949        0.046      335.258        5.772      864.519
03/06/2014  21:54:00       71.853       62.127       -0.688       22.416       29.448       19.929      502.474      867.184      397.169        0.539        0.088       94.987       14.170        0.022      335.086        5.487      864.553
03/06/2014  21:55:00       40.805      110.104       -4.722       56.812       54.985       38.117     3227.559     3023.316     1452.896        1.076        0.385      117.422       35.447        0.091      335.053        5.432      864.587
03/06/2014  21:56:00       -8.678      179.222      -25.502       38.332       72.626       25.710     1469.363     5274.566      660.981        2.012        0.370      179.432       31.363        0.031      335.046        5.420      864.611
03/06/2014  21:57:00        5.912      158.740      -19.508       44.725       41.787       26.802     2000.314     1746.141      718.362        1.504        0.223      158.850       21.504        0.018      335.102        5.513      864.625
03/06/2014  21:58:00       -7.070      196.923      -23.642       40.482       70.069       30.648     1638.786     4909.605      939.285        2.344        0.374      197.050       34.110        0.030      335.119        5.540      864.632
03/06/2014  21:59:00        1.181      188.620      -22.731       28.335       72.311       24.446      802.848     5228.895      597.627        2.136        0.331      188.624       29.420        0.024      335.119        5.542      864.641
03/06/2014  22:00:00       11.375      169.334      -24.694       36.798       60.946       22.517     1354.057     3714.442      507.000        1.749        0.279      169.716       25.690        0.023      335.141        5.577      864.647
03/06/2014  22:01:00       -6.664      211.990      -28.230       41.134       52.464       21.909     1692.028     2752.512      480.011        2.535        0.246      212.095       17.747        0.007      335.154        5.598      864.671
03/06/2014  22:02:00       -5.497      188.281      -30.966       29.583       47.537       23.903      875.181     2259.771      571.368        2.007        0.185      188.362       20.719        0.012      335.109        5.525      864.694
03/06/2014  22:03:00      -16.948      196.900      -23.261       48.483       43.958       31.153     2350.619     1932.284      970.486        2.242        0.263      197.628       26.311        0.018      335.160        5.609      864.732
03/06/2014  22:04:00      -12.302      146.045      -14.986       41.774       73.251       31.545     1745.066     5365.665      995.060        1.490        0.405      146.562       37.152        0.064      335.192        5.661      864.760
03/06/2014  22:05:00      -19.727      158.066      -16.054       59.984       48.252       29.652     3598.104     2328.243      879.254        1.622        0.340      159.292       26.273        0.027      335.209        5.692      864.779
03/06/2014  22:06:00        4.954      119.027      -10.871       32.407       38.723       20.194     1050.203     1499.466      407.783        0.863        0.148      119.130       15.130        0.016      335.201        5.677      864.798
03/06/2014  22:07:00      -41.166      140.279      -23.827       29.237       53.322       30.174      854.821     2843.236      910.475        1.327        0.230      146.194       30.053        0.042      335.208        5.690      864.801
03/06/2014  22:08:00      -15.764      113.819      -11.756       37.545       58.384       28.424     1409.649     3408.716      807.916        0.948        0.281      114.906       21.981        0.037      335.266        5.786      864.813
03/06/2014  22:09:00      -21.638      144.231      -14.197       52.494       72.318       36.942     2755.624     5229.881     1364.740        1.541        0.468      145.845       39.075        0.072      335.212        5.696      864.841
03/06/2014  22:10:00       -3.693      292.816      -41.048       53.200       91.584       34.799     2830.204     8387.687     1210.943        4.993        0.621      292.840       38.029        0.017      335.199        5.672      864.868
03/06/2014  22:11:00       -7.230      276.866      -35.924       50.532       60.236       30.437     2553.484     3628.409      926.418        4.255        0.355      276.960       27.241        0.010      335.221        5.706      864.883
03/06/2014  22:12:00      -66.278      311.195      -31.785       79.074      105.056       47.111     6252.647    11036.789     2219.404        6.087        0.975      318.175       53.810        0.029      335.277        5.800      864.902
03/06/2014  22:13:00      -36.341      399.320      -51.215       65.322       71.393       37.610     4267.020     5096.983     1414.544        8.709        0.539      400.970       23.115        0.003      335.293        5.827      864.902
03/06/2014  22:14:00      -50.051      312.505      -41.260       41.785       95.957       35.120     1745.996     9207.815     1233.448        5.702        0.609      316.488       44.305        0.020      335.283        5.808      864.901
03/06/2014  22:15:00      -73.676      327.615      -38.523       51.977       89.253       37.010     2701.624     7966.133     1369.728        6.314        0.602      335.797       36.037        0.012      335.262        5.773      864.904
03/06/2014  22:16:00      -66.631      281.901      -36.908       51.534       76.112       27.562     2655.760     5793.105      759.655        4.724        0.460      289.669       20.143        0.005      335.272        5.791      864.905
03/06/2014  22:17:00      -44.434      268.053      -37.513       59.453       63.548       34.391     3534.624     4038.294     1182.762        4.199        0.438      271.711       27.585        0.010      335.289        5.820      864.893
03/06/2014  22:18:00       25.307      270.899      -24.524       64.208       93.520       50.675     4122.623     8745.923     2567.920        4.503        0.772      272.079       44.738        0.027      335.320        5.871      864.896
03/06/2014  22:19:00       24.199      125.614      -22.869       64.496       41.469       31.321     4159.776     1719.711      981.017        1.187        0.343      127.924       16.124        0.016      335.284        5.814      864.883
03/06/2014  22:20:00      -17.108      200.965      -17.039       79.439      118.293       56.282     6310.618    13993.242     3167.629        3.222        1.174      201.692       59.246        0.086      335.301        5.840      864.887
03/06/2014  22:21:00      -48.197      233.466      -19.288       80.404       90.496       50.848     6464.742     8189.561     2585.485        3.722        0.862      238.389       48.441        0.041      335.349        5.921      864.908
03/06/2014  22:22:00       12.158      290.291      -34.674       69.241       64.850       46.856     4794.261     4205.539     2195.520        4.841        0.560      290.546       40.508        0.019      335.343        5.909      864.906
03/06/2014  22:23:00       26.904      176.032      -11.829       73.245       71.916       43.339     5364.792     5171.896     1878.283        2.213        0.621      178.076       39.349        0.049      335.349        5.922      864.893
03/06/2014  22:24:00       12.096      222.638      -23.351       61.126       80.686       56.877     3736.336     6510.178     3234.946        3.187        0.674      222.967       51.995        0.054      335.352        5.924      864.898
03/06/2014  22:25:00      -28.217      281.799      -33.541       59.640       62.816       48.061     3556.884     3945.792     2309.876        4.557        0.491      283.208       37.564        0.018      335.469        6.121      864.891
03/06/2014  22:26:00        1.929      270.773      -39.064       54.800       48.137       32.487     3003.020     2317.200     1055.414        4.061        0.319      270.780       24.856        0.008      335.496        6.164      864.883
03/06/2014  22:27:00      -18.074      306.238      -37.811       54.046       59.669       37.346     2920.973     3560.346     1394.737        5.171        0.394      306.771       36.277        0.014      335.416        6.031      864.874
03/06/2014  22:28:00      -45.287      321.126      -42.720       36.949       52.254       24.605     1365.247     2730.529      605.406        5.585        0.235      324.304       23.945        0.005      335.439        6.071      864.876
03/06/2014  22:29:00      -49.830      258.185      -33.915       35.730       41.825       23.413     1276.615     1749.367      548.154        3.693        0.179      262.950       20.355        0.006      335.492        6.159      864.878
03/06/2014  22:30:00       28.382      137.585      -15.729       32.391       50.042       24.004     1049.154     2504.252      576.192        1.206        0.206      140.481       26.956        0.037      335.502        6.178      864.873
03/06/2014  22:31:00       53.092      176.489      -28.905       41.211       31.556       24.747     1698.313      995.785      612.396        1.905        0.165      184.302       17.421        0.009      335.450        6.090      864.868
03/06/2014  22:32:00       47.657       86.185       -0.056       36.047       50.810       35.012     1299.400     2581.686     1225.861        0.740        0.255       98.483       33.790        0.118      335.459        6.106      864.874
03/06/2014  22:33:00       62.840       57.332        7.659       51.919       35.781       29.208     2695.633     1280.250      853.117        0.606        0.241       85.064       22.311        0.069      335.428        6.054      864.880
03/06/2014  22:34:00       35.998      134.431      -27.268       36.137       63.272       28.787     1305.857     4003.286      828.716        1.312        0.307      139.168       26.910        0.037      335.450        6.090      864.881
03/06/2014  22:35:00       27.301      146.699      -23.750       22.297       37.935       21.454      497.136     1439.030      460.271        1.261        0.120      149.217       19.732        0.017      335.485        6.152      864.870
03/06/2014  22:36:00       26.708      124.026       -4.859       46.508       62.295       30.558     2163.037     3880.689      933.766        1.155        0.349      126.869       29.072        0.053      335.499        6.172      864.871
03/06/2014  22:37:00       35.228      127.350       -3.781       44.644       77.350       40.420     1993.091     5982.985     1633.762        1.354        0.480      132.133       45.620        0.119      335.463        6.113      864.879
03/06/2014  22:38:00       72.648      159.509      -23.853       55.254       81.046       39.532     3053.001     6568.386     1562.775        2.123        0.559      175.274       35.603        0.041      335.412        6.027      864.886
03/06/2014  22:39:00      159.209      134.828       19.548       71.371       55.498       41.050     5093.886     3079.981     1685.096        2.688        0.493      208.629       20.909        0.010      335.384        5.980      864.891
03/06/2014  22:40:00       67.995       94.684        1.076       47.029       55.173       31.997     2211.741     3044.023     1023.802        0.993        0.314      116.569       26.060        0.050      335.412        6.028      864.910
03/06/2014  22:41:00       12.881      100.073      -13.566       40.452       31.219       25.920     1636.340      974.614      671.868        0.682        0.164      100.899       20.352        0.041      335.449        6.088      864.924
03/06/2014  22:42:00       56.765      167.035      -20.559       41.207       53.144       40.548     1698.013     2824.307     1644.174        1.885        0.308      176.417       30.343        0.030      335.425        6.049      864.943
03/06/2014  22:43:00       20.363       81.182      -14.174       25.413       39.172       22.727      645.827     1534.409      516.498        0.495        0.135       83.697       11.142        0.018      335.448        6.087      864.939
03/06/2014  22:44:00       21.362       39.256       10.279       22.800       26.735       28.137      519.822      714.743      791.709        0.206        0.101       44.692       22.539        0.254      335.450        6.092      864.943
03/06/2014  22:45:00       10.617       46.131       -9.292       11.922       22.688       17.208      142.143      514.746      296.109        0.164        0.048       47.337       12.759        0.073      335.439        6.073      864.934
03/06/2014  22:46:00       24.971       16.662        1.083       12.795        8.506        9.492      163.720       72.355       90.100        0.061        0.016       30.020        5.368        0.032      335.468        6.121      864.927
03/06/2014  22:47:00       -4.385       69.485       -9.786       22.246       44.087       11.988      494.898     1943.649      143.710        0.376        0.129       69.624       15.607        0.050      335.455        6.101      864.924
03/06/2014  22:48:00      -11.192       38.610      -18.225       29.548       31.313       14.036      873.113      980.492      197.019        0.200        0.103       40.200        6.126        0.023      335.496        6.168      864.916
03/06/2014  22:49:00        9.719      -16.198       -6.011       27.874       17.414       17.680      776.975      303.255      312.599        0.089        0.070       18.890       10.628        0.317      335.535        6.232      864.895
03/06/2014  22:50:00        5.659        7.305       -1.251       17.307       18.925       20.418      299.526      358.146      416.882        0.058        0.054        9.240       12.380        1.795      335.574        6.297      864.882
03/06/2014  22:51:00       -2.648        9.397       23.393       13.128       13.919        8.770      172.341      193.735       76.917        0.054        0.022        9.763        7.989        0.670      335.659        6.439      864.868
03/06/2014  22:52:00       14.537       23.032       24.947       17.440       13.804        9.466      304.161      190.537       89.603        0.097        0.029       27.236        3.498        0.016      335.518        6.204      864.850
03/06/2014  22:53:00       -1.458       19.782       26.675        6.996        9.761        6.447       48.939       95.274       41.561        0.065        0.009       19.836        5.292        0.071      335.555        6.267      864.838
03/06/2014  22:54:00       12.026       18.128       15.365        9.716       14.054        8.335       94.403      197.517       69.466        0.054        0.018       21.755        7.191        0.109      335.579        6.306      864.810
03/06/2014  22:55:00        0.042       25.620       22.563        8.925       11.949        9.241       79.649      142.767       85.399        0.074        0.015       25.620        7.218        0.079      335.598        6.340      864.785
03/06/2014  22:56:00        4.705       13.316       35.852       15.046       16.131       12.842      226.369      260.224      164.905        0.107        0.033       14.123        6.994        0.245      335.619        6.375      864.759
03/06/2014  22:57:00       -7.179       27.751       25.438       22.467       17.000       16.770      504.779      289.003      281.244        0.127        0.054       28.665       16.294        0.323      335.600        6.341      864.743
03/06/2014  22:58:00      -28.456       -9.812        3.166       25.272       14.301       13.582      638.687      204.513      184.472        0.097        0.051       30.100       14.549        0.234      335.628        6.387      864.726
03/06/2014  22:59:00        3.905      -14.667        3.157       29.983       22.564       15.785      898.971      509.120      249.157        0.095        0.083       15.178       10.284        0.459      335.683        6.481      864.715
03/06/2014  23:00:00      -30.284      -34.688        5.199       37.147       19.463       19.182     1379.914      378.802      367.952        0.214        0.106       46.047       21.715        0.222      335.676        6.468      864.710
03/06/2014  23:01:00      -63.764      -83.473       -7.777       33.873       20.783       21.237     1147.398      431.926      451.017        0.656        0.102      105.041       15.724        0.022      335.585        6.316      864.714
03/06/2014  23:02:00      -60.683      -58.862       -0.934       31.353       29.683       21.885      983.015      881.059      478.932        0.475        0.117       84.541        3.526        0.002      335.507        6.187      864.712
03/06/2014  23:03:00      -12.760       15.804       -2.457       37.156       25.405       18.905     1380.547      645.402      357.407        0.140        0.119       20.312       16.721        0.678      335.559        6.274      864.711
03/06/2014  23:04:00       64.378       46.744       40.470       47.190       25.972       30.534     2226.906      674.541      932.295        0.590        0.192       79.558       28.458        0.128      335.621        6.377      864.716
03/06/2014  23:05:00       47.682       44.799       40.509       40.765       28.630       34.155     1661.778      819.697     1166.562        0.478        0.182       65.426       32.517        0.247      335.602        6.344      864.726
03/06/2014  23:06:00       77.822       83.059       52.414       40.057       31.532       31.121     1604.594      994.258      968.509        0.963        0.178      113.820       25.873        0.052      335.544        6.246      864.740
03/06/2014  23:07:00      106.167       57.463       28.675       31.144       33.621       29.860      969.970     1130.376      891.599        0.919        0.150      120.721       15.790        0.017      335.560        6.275      864.769
03/06/2014  23:08:00       77.039       44.382       27.316       32.681       26.499       21.231     1068.024      702.178      450.775        0.544        0.111       88.909       13.047        0.022      335.601        6.344      864.786
03/06/2014  23:09:00      121.667       73.112       13.272       28.786       28.264       32.598      828.662      798.837     1062.623        1.151        0.135      141.944       21.769        0.024      335.524        6.213      864.799
03/06/2014  23:10:00       93.441       60.833        2.346       32.296       28.704       18.059     1043.000      823.932      326.137        0.731        0.110      111.499       10.753        0.009      335.485        6.150      864.816
03/06/2014  23:11:00       63.739       30.352        3.943       42.439       36.945       25.686     1801.079     1364.969      659.749        0.441        0.191       70.597       16.569        0.055      335.506        6.185      864.833
03/06/2014  23:12:00       53.428       75.970        2.275       30.801       36.229       32.120      948.696     1312.506     1031.679        0.596        0.165       92.877       25.251        0.074      335.482        6.145      864.846
03/06/2014  23:13:00       55.137      122.821       -8.833       30.903       63.515       38.878      955.009     4034.120     1511.531        1.235        0.325      134.629       39.389        0.086      335.505        6.184      864.848
03/06/2014  23:14:00       16.198      145.484      -25.193       22.411       37.617       17.236      502.239     1415.025      297.083        1.214        0.111      146.382       19.830        0.018      335.459        6.107      864.853
03/06/2014  23:15:00       33.564       43.341       -8.248       33.152       34.336       20.434     1099.023     1178.973      417.542        0.288        0.135       54.818       12.384        0.051      335.493        6.164      864.852
03/06/2014  23:16:00       42.451       34.566        3.331       23.321       25.603       18.182      543.847      655.512      330.586        0.227        0.076       54.744       15.247        0.078      335.476        6.135      864.862
03/06/2014  23:17:00        4.701        1.581       13.085       19.800       14.009       13.463      392.038      196.248      181.262        0.048        0.038        4.960        8.321        2.815      335.589        6.324      864.872
03/06/2014  23:18:00       40.491       53.794        1.189       21.991       30.937       22.787      483.611      957.080      519.260        0.325        0.098       67.330       22.242        0.109      335.490        6.157      864.893
03/06/2014  23:19:00       13.627       36.239       -1.300       24.959       29.457       18.588      622.930      867.729      345.523        0.167        0.092       38.717       16.454        0.181      335.480        6.139      864.915
03/06/2014  23:20:00       36.483       32.081       -2.401       37.216       43.000       22.040     1385.001     1849.023      485.778        0.304        0.186       48.582        5.023        0.011      335.507        6.184      864.938
03/06/2014  23:21:00       16.673       29.633       -2.040       24.627       16.794       17.493      606.484      282.054      305.989        0.118        0.060       34.002       11.397        0.112      335.531        6.225      864.965
03/06/2014  23:22:00       52.606       40.969        2.452       20.755       18.328       18.704      430.772      335.924      349.833        0.278        0.056       66.677        9.162        0.019      335.516        6.202      864.989
03/06/2014  23:23:00       66.126       23.060       12.928       28.381       20.040       24.113      805.471      401.592      581.419        0.343        0.089       70.031       15.680        0.050      335.544        6.249      865.016
03/06/2014  23:24:00       47.441       20.551       10.494       45.151       33.420       22.397     2038.622     1116.928      501.612        0.322        0.183       51.701       15.902        0.095      335.536        6.235      865.043
03/06/2014  23:25:00       70.271       30.011       17.060       49.911       32.481       26.816     2491.114     1054.986      719.104        0.520        0.213       76.412       18.925        0.061      335.530        6.224      865.072
03/06/2014  23:26:00       63.449       55.432        2.070       32.386       27.552       27.209     1048.845      759.129      740.336        0.483        0.127       84.253       17.684        0.044      335.530        6.225      865.094
03/06/2014  23:27:00       71.967       82.677       -5.530       24.782       36.003       25.909      614.123     1296.196      671.280        0.731        0.129      109.612       17.588        0.026      335.445        6.082      865.107
03/06/2014  23:28:00       79.197       66.718        3.619       41.863       33.398       25.856     1752.542     1115.458      668.541        0.714        0.177      103.554       19.897        0.037      335.386        5.986      865.105
03/06/2014  23:29:00       63.545       67.728        0.537       39.606       40.682       30.162     1568.641     1655.044      909.752        0.638        0.207       92.871       22.255        0.057      335.396        6.003      865.101
03/06/2014  23:30:00       72.867       53.501       10.860       34.233       28.133       25.935     1171.874      791.448      672.634        0.546        0.132       90.399       18.681        0.043      335.447        6.085      865.095
03/06/2014  23:31:00       77.776       44.186       11.390       34.196       29.502       23.734     1169.341      870.351      563.293        0.537        0.130       89.451       14.311        0.026      335.408        6.022      865.094
03/06/2014  23:32:00       25.966       26.193        4.181       21.416       28.462       18.913      458.639      810.113      357.699        0.150        0.081       36.883       11.399        0.096      335.490        6.158      865.083
03/06/2014  23:33:00       21.494       76.255       -9.589       22.259       27.660       15.136      495.460      765.081      229.109        0.393        0.074       79.226       12.385        0.024      335.414        6.030      865.072
03/06/2014  23:34:00       40.608       61.747       -0.482       21.230       30.384       24.453      450.728      923.173      597.971        0.372        0.099       73.903       22.285        0.091      335.419        6.042      865.057
03/06/2014  23:35:00       16.130       34.892       -3.204       17.529       17.479       14.509      307.258      305.521      210.514        0.116        0.041       38.440       12.541        0.106      335.439        6.074      865.048
03/06/2014  23:36:00       19.746       38.470       -1.848       16.661       15.132       13.012      277.577      228.964      169.315        0.127        0.034       43.242       10.922        0.064      335.498        6.171      865.049
03/06/2014  23:37:00       21.647       36.450       -6.085       10.202       13.747        8.148      104.086      188.971       66.389        0.110        0.018       42.393        6.309        0.022      335.449        6.089      865.057
03/06/2014  23:38:00       23.884       44.613       -4.622       11.990       25.100       12.329      143.756      630.003      152.013        0.175        0.046       50.604       14.368        0.081      335.462        6.113      865.061
03/06/2014  23:39:00       23.803       17.485        5.850       12.775       14.451       12.338      163.209      208.840      152.225        0.072        0.026       29.535        5.179        0.031      335.516        6.201      865.066
03/06/2014  23:40:00       22.375       33.095        0.805       16.749       20.400       11.719      280.526      416.170      137.324        0.122        0.042       39.949       12.779        0.102      335.482        6.144      865.065
03/06/2014  23:41:00       38.412       42.241       -9.505       11.191       12.053        7.417      125.238      145.276       55.012        0.184        0.016       57.095        4.127        0.005      335.504        6.181      865.064
03/06/2014  23:42:00       30.317       26.614        2.425       22.503       15.924       15.256      506.406      253.570      232.751        0.131        0.050       40.341        5.995        0.022      335.547        6.252      865.052
03/06/2014  23:43:00       66.060       27.111        8.031       24.027       17.134       20.116      577.306      293.574      404.667        0.322        0.064       71.407        7.116        0.010      335.545        6.249      865.049
03/06/2014  23:44:00       60.415       43.177        5.741       35.513       16.407       16.314     1261.143      269.198      266.130        0.367        0.090       74.258        8.800        0.014      335.510        6.192      865.044
03/06/2014  23:45:00      105.649       58.902       10.401       21.555       18.991       17.672      464.605      360.643      312.298        0.794        0.057      120.959        4.778        0.002      335.415        6.034      865.042
03/06/2014  23:46:00      112.652       60.944        7.215       24.449       21.306       21.109      597.737      453.932      445.604        0.898        0.075      128.080       17.285        0.018      335.395        5.999      865.042
03/06/2014  23:47:00      102.362       65.035       -1.245       17.937       22.329       17.987      321.746      498.590      323.549        0.793        0.057      121.275        8.068        0.004      335.385        5.982      865.033
03/06/2014  23:48:00       93.277       54.771       12.820       37.433       30.732       27.127     1401.207      944.483      735.895        0.747        0.154      108.169       17.071        0.025      335.430        6.057      865.026
03/06/2014  23:49:00       88.360       67.047       19.476       26.418       22.637       26.142      697.929      512.443      683.413        0.729        0.095      110.919       20.280        0.033      335.441        6.077      865.018
03/06/2014  23:50:00       82.480       50.854        6.356       27.212       24.261       21.720      740.476      588.576      471.754        0.561        0.090       96.897       14.447        0.022      335.430        6.058      865.018
03/06/2014  23:51:00       74.941       50.411       15.480       24.558       17.502       16.517      603.102      306.317      272.817        0.479        0.059       90.318       10.422        0.013      335.388        5.987      865.021
03/06/2014  23:52:00       84.190       59.449       14.524       21.434       21.577       22.876      459.424      465.567      523.290        0.614        0.072      103.064       14.368        0.019      335.376        5.968      865.021
03/06/2014  23:53:00       94.052       63.126       12.165       26.797       19.293       16.784      718.060      372.213      281.718        0.718        0.069      113.272       14.656        0.017      335.386        5.984      865.023
03/06/2014  23:54:00       69.966       28.917       -2.324       30.921       19.078       14.683      956.104      363.980      215.599        0.364        0.077       75.706        9.867        0.017      335.418        6.039      865.025
03/06/2014  23:55:00       46.314       29.800        6.529       25.257       20.885       17.455      637.909      436.177      304.693        0.223        0.069       55.072        8.742        0.025      335.424        6.048      865.025
03/06/2014  23:56:00       50.869       29.193       -5.662       26.250       19.274       15.019      689.082      371.495      225.558        0.238        0.064       58.651       10.811        0.034      335.466        6.119      865.019
03/06/2014  23:57:00       34.398       50.002        2.603       23.686       28.433       22.789      561.040      808.413      519.321        0.279        0.094       60.691       17.759        0.086      335.451        6.094      865.009
03/06/2014  23:58:00       22.650       71.233       -7.408       17.024       29.603       17.475      289.826      876.354      305.378        0.356        0.074       74.748       19.797        0.070      335.396        6.001      865.000
03/06/2014  23:59:00       20.570       89.335      -14.266       18.234       20.344       11.882      332.494      413.896      141.193        0.475        0.044       91.673       10.362        0.013      335.374        5.968      864.999
